[[{"header":{"parameterUnit":"m.s-1","parameterCategory":1,"la1":31.0,"la2":29.5877,"lo1":-88.7671,"lo2":-86.6584,"dy":0.0162,"dx":0.0185,"nx":115,"ny":88,"refTime":"2023-11-09T06:00:00:Z","depth":0,"parameterNumber":2,"parameterNumberName":"U-component_of_WINDS"},"data":[0.0,0.0,0.0,0.0,0.0,0.0,0.0,0.0,0.0,0.0,0.0,0.0,0.0,0.0,0.0,0.0,0.0,0.0,0.0,0.0,0.0,0.0,0.0,0.0,0.0,0.0,0.0,0.0,0.0,0.0,0.0,0.0,0.0,0.0,0.0,0.0,0.0,0.0,0.0,0.0,0.0,0.0,0.0,0.0,0.0,0.0,0.0,0.0,0.0,0.0,0.0,0.0,0.0,0.0,0.0,0.0,0.0,0.0,0.0,0.0,0.0,0.0,0.0,0.0,0.0,0.0,0.0,0.0,0.0,0.0,0.0,0.0,0.0,0.0,0.0,0.0,0.0,0.0,0.0,0.0,0.0,0.0,0.0,0.0,0.0,0.0,0.0,0.0,0.0,0.0,0.0,0.0,0.0,0.0,0.0,0.0,0.0,0.0,0.0,0.0,0.0,0.0,0.0,0.0,0.0,0.0,0.0,0.0,0.0,0.0,0.0,0.0,0.0,0.0,0.0,0.0,0.0,0.0,0.0,0.0,0.0,0.0,0.0,0.0,0.0,0.0,0.0,0.0,0.0,0.0,0.0,0.0,0.0,0.0,0.0,0.0,0.0,0.0,0.0,0.0,0.0,0.0,0.0,0.0,0.0,0.0,0.0,0.0,0.0,0.0,0.0,0.0,0.0,0.0,0.0,0.0,0.0,0.0,0.0,0.0,0.0,0.0,0.0,0.0,0.0,0.0,0.0,0.0,0.0,0.0,0.0,0.0,0.0,0.0,0.0,0.0,0.0,0.0,0.0,0.0,0.0,0.0,0.0,0.0,0.0,0.0,0.0,0.0,0.0,0.0,0.0,0.0,0.0,0.0,0.0,0.0,0.0,0.0,0.0,0.0,0.0,0.0,0.0,0.0,0.0,0.0,0.0,0.0,0.0,0.0,0.0,0.0,0.0,0.0,0.0,0.0,0.0,0.0,0.0,0.0,0.0,0.0,0.0,0.0,0.0,0.0,0.0,0.0,0.0,0.0,0.0,0.0,0.0,0.0,0.0,0.0,0.0,0.0,0.0,0.0,0.0,0.0,0.0,0.0,0.0,0.0,0.0,0.0,0.0,0.0,0.0,0.0,0.0,0.0,0.0,0.0,0.0,0.0,0.0,0.0,0.0,0.0,0.0,0.0,0.0,0.0,0.0,0.0,0.0,0.0,0.0,0.0,0.0,0.0,0.0,0.0,0.0,0.0,0.0,0.0,0.0,0.0,0.0,0.0,0.0,0.0,0.0,0.0,0.0,0.0,0.0,0.0,0.0,0.0,0.0,0.0,0.0,0.0,0.0,0.0,0.0,0.0,0.0,0.0,0.0,0.0,0.0,0.0,0.0,0.0,0.0,0.0,0.0,0.0,0.0,0.0,0.0,0.0,0.0,0.0,0.0,0.0,0.0,0.0,0.0,0.0,0.0,0.0,0.0,0.0,0.0,0.0,0.0,0.0,0.0,0.0,0.0,0.0,0.0,0.0,0.0,0.0,0.0,0.0,0.0,0.0,0.0,0.0,0.0,0.0,0.0,0.0,0.0,0.0,0.0,0.0,0.0,0.0,0.0,0.0,0.0,0.0,0.0,0.0,0.0,0.0,0.0,0.0,0.0,0.0,0.0,0.0,0.0,0.0,0.0,0.0,0.0,0.0,0.0,0.0,0.0,0.0,0.0,0.0,0.0,0.0,0.0,0.0,0.0,0.0,0.0,0.0,0.0,0.0,0.0,0.0,0.0,0.0,0.0,0.0,0.0,0.0,0.0,0.0,0.0,0.0,0.0,0.0,0.0,0.0,0.0,0.0,0.0,0.0,0.0,0.0,0.0,0.0,0.0,0.0,0.0,0.0,0.0,0.0,0.0,0.0,0.0,0.0,0.0,0.0,0.0,0.0,0.0,0.0,0.0,0.0,0.0,0.0,0.0,0.0,0.0,0.0,0.0,0.0,0.0,0.0,0.0,0.0,0.0,0.0,0.0,0.0,0.0,0.0,0.0,0.0,0.0,0.0,0.0,0.0,0.0,0.0,0.0,0.0,0.0,0.0,0.0,0.0,0.0,0.0,0.0,0.0,0.0,0.0,0.0,0.0,0.0,0.0,0.0,0.0,0.0,0.0,0.0,0.0,0.0,0.0,0.0,0.0,0.0,0.0,0.0,0.0,0.0,0.0,0.0,0.0,0.0,0.0,0.0,0.0,0.0,0.0,0.0,0.0,0.0,0.0,0.0,0.0,0.0,0.0,0.0,0.0,0.0,0.0,0.0,0.0,0.0,0.0,0.0,0.0,0.0,0.0,0.0,0.0,0.0,0.0,0.0,0.0,0.0,0.0,0.0,0.0,0.0,0.0,0.0,0.0,0.0,0.0,0.0,0.0,0.0,0.0,0.0,0.0,0.0,0.0,0.0,0.0,0.0,0.0,0.0,0.0,0.0,0.0,0.0,0.0,0.0,0.0,0.0,0.0,0.0,0.0,0.0,0.0,0.0,0.0,0.0,0.0,0.0,0.0,0.0,0.0,0.0,0.0,0.0,0.0,0.0,0.0,0.0,0.0,0.0,0.0,0.0,0.0,0.0,0.0,0.0,0.0,0.0,0.0,0.0,0.0,0.0,0.0,0.0,0.0,0.0,0.0,0.0,0.0,0.0,0.0,0.0,0.0,0.0,0.0,0.0,0.0,0.0,0.0,0.0,0.0,0.0,0.0,0.0,0.0,0.0,0.0,0.0,0.0,0.0,0.0,0.0,0.0,0.0,0.0,0.0,0.0,0.0,0.0,0.0,0.0,0.0,0.0,0.0,0.0,0.0,0.0,0.0,0.0,0.0,0.0,0.0,0.0,0.0,0.0,0.0,0.0,0.0,0.0,0.0,0.0,0.0,0.0,0.0,0.0,0.0,0.0,0.0,0.0,0.0,0.0,0.0,0.0,0.0,0.0,0.0,0.0,0.0,0.0,0.0,0.0,0.0,0.0,0.0,0.0,0.0,0.0,0.0,0.0,0.0,0.0,0.0,0.0,0.0,0.0,0.0,0.0,0.0,0.0,0.0,0.0,0.0,0.0,0.0,0.0,0.0,0.0,0.0,0.0,0.0,0.0,0.0,0.0,0.0,0.0,0.0,0.0,0.0,0.0,0.0,0.0,0.0,0.0,0.0,0.0,0.0,0.0,0.0,0.0,0.0,0.0,0.0,0.0,0.0,0.0,0.0,0.0,0.0,0.0,0.0,0.0,0.0,0.0,0.0,0.0,0.0,0.0,0.0,0.0,0.0,0.0,0.0,0.0,0.0,0.0,0.0,0.0,0.0,0.0,0.0,0.0,0.0,0.0,0.0,0.0,0.0,0.0,0.0,0.0,0.0,0.0,0.0,0.0,0.0,0.0,0.0,0.0,0.0,0.0,0.0,0.0,0.0,0.0,0.0,0.0,0.0,0.0,0.0,0.0,0.0,0.0,0.0,0.0,0.0,0.0,0.0,0.0,0.0,0.0,0.0,0.0,0.0,0.0,0.0,0.0,0.0,0.0,0.0,0.0,0.0,0.0,0.0,0.0,0.0,0.0,0.0,0.0,0.0,0.0,0.0,0.0,0.0,0.0,0.0,0.0,0.0,0.0,0.0,0.0,0.0,0.0,0.0,0.0,0.0,0.0,0.0,0.0,0.0,0.0,0.0,0.0,0.0,0.0,0.0,0.0,0.0,0.0,0.0,0.0,0.0,0.0,0.0,0.0,0.0,0.0,0.0,0.0,0.0,0.0,0.0,0.0,0.0,0.0,0.0,0.0,0.0,0.0,0.0,0.0,0.0,0.0,0.0,0.0,0.0,0.0,0.0,0.0,0.0,0.0,0.0,0.0,0.0,0.0,0.0,0.0,0.0,0.0,0.0,0.0,0.0,0.0,0.0,0.0,0.0,0.0,0.0,0.0,0.0,0.0,0.0,0.0,0.0,0.0,0.0,0.0,0.0,0.0,0.0,0.0,0.0,0.0,0.0,0.0,0.0,0.0,0.0,0.0,0.0,0.0,0.0,0.0,0.0,0.0,0.0,0.0,0.0,0.0,0.0,0.0,0.0,0.0,0.0,0.0,0.0,0.0,0.0,0.0,0.0,0.0,0.0,0.0,0.0,0.0,0.0,0.0,0.0,0.0,0.0,0.0,0.0,0.0,0.0,0.0,0.0,0.0,0.0,0.0,0.0,0.0,0.0,0.0,0.0,0.0,0.0,0.0,0.0,0.0,0.0,0.0,0.0,0.0,0.0,0.0,0.0,0.0,1.7789,0.0,0.0,0.0,0.0,0.0,0.0,0.0,0.0,0.0,0.0,0.0,0.0,0.0,0.0,0.0,0.0,0.0,0.0,0.0,0.0,0.0,0.0,0.0,0.0,0.0,0.0,0.0,0.0,0.0,0.0,0.0,0.0,0.0,0.0,0.0,0.0,0.0,0.0,0.0,0.0,0.0,0.0,0.0,0.0,0.0,0.0,0.0,0.0,0.0,0.0,0.0,0.0,0.0,0.0,0.0,0.0,0.0,0.0,0.0,0.0,0.0,0.0,0.0,0.0,0.0,0.0,0.0,0.0,0.0,0.0,0.0,0.0,0.0,0.0,0.0,0.0,0.0,0.0,0.0,0.0,0.0,0.0,0.0,0.0,0.0,0.0,0.0,0.0,0.0,0.0,0.0,0.0,0.0,0.0,0.0,0.0,0.0,0.0,0.0,0.0,0.0,0.0,0.0,0.0,0.0,0.0,0.0,0.0,0.0,0.0,1.7789,1.7789,1.7789,1.7789,1.7817,0.0,0.0,0.0,0.0,0.0,0.0,0.0,0.0,0.0,0.0,0.0,0.0,0.0,0.0,0.0,0.0,0.0,0.0,0.0,0.0,0.0,0.0,0.0,0.0,0.0,0.0,0.0,0.0,0.0,0.0,0.0,0.0,0.0,0.0,0.0,0.0,0.0,0.0,0.0,0.0,0.0,0.0,0.0,0.0,0.0,0.0,0.0,0.0,0.0,0.0,0.0,0.0,0.0,0.0,0.0,0.0,0.0,0.0,0.0,0.0,0.0,0.0,0.0,0.0,0.0,0.0,0.0,0.0,0.0,0.0,0.0,0.0,0.0,0.0,0.0,0.0,0.0,0.0,0.0,0.0,0.0,0.0,0.0,0.0,0.0,0.0,0.0,0.0,0.0,0.0,0.0,0.0,0.0,0.0,0.0,0.0,0.0,0.0,0.0,0.0,0.0,0.0,0.0,0.0,0.0,0.0,0.0,0.0,0.0,0.0,0.0,0.0,1.8572,1.856,1.8582,0.0,0.0,0.0,0.0,0.0,0.0,0.0,0.0,0.0,0.0,0.0,0.0,0.0,0.0,0.0,0.0,0.0,0.0,0.0,0.0,0.0,0.0,0.0,0.0,0.0,0.0,0.0,0.0,0.0,0.0,0.0,0.0,0.0,0.0,0.0,0.0,0.0,0.0,0.0,0.0,0.0,0.0,0.0,0.0,0.0,0.0,0.0,0.0,0.0,0.0,0.0,0.0,0.0,0.0,0.0,0.0,0.0,0.0,0.0,0.0,0.0,0.0,0.0,0.0,0.0,0.0,0.0,0.0,0.0,0.0,0.0,0.0,0.0,0.0,0.0,0.0,0.0,0.0,0.0,0.0,0.0,0.0,0.0,0.0,0.0,0.0,0.0,0.0,0.0,0.0,0.0,0.0,0.0,0.0,0.0,0.0,0.0,0.0,0.0,0.0,0.0,0.0,0.0,0.0,0.0,0.0,0.0,0.0,0.0,0.0,1.8792,2.0818,2.0869,0.0,2.0793,0.0,0.0,0.0,0.0,0.0,0.0,0.0,0.0,0.0,0.0,0.0,0.0,0.0,0.0,0.0,0.0,0.0,0.0,0.0,0.0,0.0,0.0,0.0,0.0,0.0,0.0,0.0,0.0,0.0,0.0,0.0,0.0,0.0,0.0,0.0,0.0,0.0,0.0,0.0,0.0,0.0,0.0,0.0,0.0,0.0,0.0,0.0,0.0,0.0,0.0,0.0,0.0,0.0,0.0,0.0,0.0,0.0,0.0,0.0,0.0,0.0,0.0,0.0,0.0,0.0,0.0,0.0,0.0,0.0,0.0,0.0,0.0,0.0,0.0,0.0,0.0,0.0,0.0,0.0,0.0,0.0,0.0,0.0,0.0,0.0,0.0,0.0,0.0,0.0,0.0,0.0,0.0,0.0,0.0,0.0,0.0,0.0,0.0,0.0,0.0,0.0,0.0,0.0,0.0,0.0,0.0,0.0,0.0,0.0,0.0,1.9113,2.0467,2.0491,2.0263,0.0,0.0,0.0,0.0,0.0,0.0,0.0,0.0,0.0,0.0,0.0,0.0,0.0,0.0,0.0,0.0,0.0,0.0,0.0,0.0,0.0,0.0,0.0,0.0,0.0,0.0,0.0,0.0,0.0,0.0,0.0,0.0,0.0,0.0,0.0,0.0,0.0,0.0,0.0,0.0,0.0,0.0,0.0,0.0,0.0,0.0,0.0,0.0,0.0,0.0,0.0,0.0,0.0,0.0,0.0,0.0,0.0,0.0,0.0,0.0,0.0,0.0,0.0,0.0,0.0,0.0,0.0,0.0,0.0,0.0,0.0,0.0,0.0,0.0,0.0,0.0,0.0,0.0,0.0,0.0,0.0,0.0,0.0,0.0,0.0,0.0,0.0,0.0,0.0,0.0,0.0,0.0,0.0,0.0,0.0,0.0,0.0,0.0,0.0,0.0,0.0,0.0,0.0,0.0,0.0,0.0,0.0,0.0,0.0,0.0,1.8877,1.9249,2.0538,2.0174,1.9778,1.9429,0.0,0.0,0.0,0.0,0.0,0.0,0.0,0.0,0.0,0.0,0.0,0.0,0.0,0.0,0.0,0.0,0.0,0.0,0.0,0.0,0.0,0.0,0.0,0.0,0.0,0.0,0.0,0.0,0.0,0.0,0.0,0.0,0.0,0.0,0.0,0.0,0.0,0.0,0.0,0.0,0.0,0.0,0.0,0.0,0.0,0.0,0.0,0.0,0.0,0.0,0.0,0.0,0.0,0.0,0.0,0.0,0.0,0.0,0.0,0.0,0.0,0.0,0.0,0.0,0.0,0.0,0.0,0.0,0.0,0.0,0.0,0.0,0.0,0.0,0.0,0.0,0.0,0.0,0.0,0.0,0.0,0.0,0.0,0.0,0.0,0.0,0.0,0.0,0.0,0.0,0.0,0.0,0.0,0.0,0.0,0.0,0.0,0.0,0.0,0.0,0.0,0.0,0.0,0.0,0.0,0.0,0.0,0.0,2.2733,1.9655,1.9237,2.1975,2.0646,2.0127,0.0,0.0,0.0,0.0,0.0,0.0,0.0,0.0,0.0,0.0,0.0,0.0,0.0,0.0,0.0,0.0,0.0,0.0,0.0,0.0,0.0,0.0,0.0,0.0,0.0,0.0,0.0,0.0,0.0,0.0,0.0,0.0,0.0,0.0,0.0,0.0,0.0,0.0,0.0,0.0,0.0,0.0,0.0,0.0,0.0,0.0,0.0,0.0,0.0,0.0,0.0,0.0,0.0,0.0,0.0,0.0,0.0,0.0,0.0,0.0,0.0,0.0,0.0,0.0,0.0,0.0,0.0,0.0,0.0,0.0,0.0,0.0,0.0,0.0,0.0,0.0,0.0,0.0,0.0,0.0,0.0,0.0,0.0,0.0,0.0,0.0,0.0,0.0,0.0,0.0,0.0,0.0,0.0,0.0,0.0,0.0,0.0,0.0,0.0,0.0,0.0,0.0,0.0,0.0,0.0,0.0,0.0,0.0,0.0,1.8973,1.8251,1.8763,2.0673,1.9282,1.8747,0.0,0.0,0.0,0.0,0.0,0.0,0.0,0.0,0.0,0.0,0.0,0.0,0.0,0.0,0.0,0.0,0.0,0.0,0.0,0.0,0.0,0.0,0.0,0.0,0.0,0.0,0.0,0.0,0.0,0.0,0.0,0.0,0.0,0.0,0.0,0.0,0.0,0.0,0.0,0.0,0.0,0.0,0.0,0.0,0.0,0.0,0.0,0.0,0.0,0.0,0.0,0.0,0.0,0.0,0.0,0.0,0.0,0.0,0.0,0.0,0.0,0.0,0.0,0.0,0.0,0.0,0.0,0.0,0.0,0.0,0.0,0.0,0.0,0.0,0.0,0.0,0.0,0.0,0.0,0.0,0.0,0.0,0.0,0.0,0.0,0.0,0.0,0.0,0.0,0.0,0.0,0.0,0.0,0.0,0.0,0.0,0.0,0.0,0.0,0.0,0.0,0.0,0.0,0.0,0.0,0.0,0.0,0.0,0.0,1.7444,0.0,1.9389,1.9579,1.8605,1.7809,0.0,0.0,0.0,0.0,0.0,0.0,0.0,0.0,0.0,0.0,0.0,0.0,0.0,0.0,0.0,0.0,0.0,0.0,0.0,0.0,0.0,0.0,0.0,0.0,0.0,0.0,0.0,0.0,0.0,0.0,0.0,0.0,0.0,0.0,0.0,0.0,0.0,0.0,0.0,0.0,0.0,0.0,0.0,0.0,0.0,0.0,0.0,0.0,0.0,0.0,0.0,0.0,0.0,0.0,0.0,0.0,0.0,0.0,0.0,0.0,0.0,0.0,0.0,0.0,0.0,0.0,0.0,0.0,0.0,0.0,0.0,0.0,0.0,0.0,0.0,0.0,0.0,0.0,0.0,0.0,0.0,0.0,0.0,0.0,0.0,0.0,0.0,0.0,0.0,0.0,0.0,0.0,0.0,0.0,0.0,0.0,0.0,0.0,0.0,0.0,0.0,0.0,0.0,0.0,0.0,0.0,0.0,0.0,1.7444,1.8826,2.0923,2.0944,1.9043,1.8694,1.7491,0.0,0.0,0.0,0.0,0.0,0.0,0.0,0.0,0.0,0.0,0.0,0.0,0.0,0.0,0.0,0.0,0.0,0.0,0.0,0.0,0.0,0.0,0.0,0.0,0.0,0.0,0.0,0.0,0.0,0.0,0.0,0.0,0.0,0.0,0.0,0.0,0.0,0.0,0.0,0.0,0.0,0.0,0.0,0.0,0.0,0.0,0.0,0.0,0.0,0.0,0.0,0.0,0.0,0.0,0.0,0.0,0.0,0.0,0.0,0.0,0.0,0.0,0.0,0.0,0.0,0.0,0.0,0.0,0.0,0.0,0.0,0.0,0.0,0.0,0.0,0.0,0.0,0.0,0.0,0.0,0.0,0.0,0.0,0.0,0.0,0.0,0.0,0.0,0.0,0.0,0.0,0.0,0.0,0.0,0.0,0.0,0.0,0.0,0.0,0.0,0.0,0.0,0.0,0.0,0.0,0.0,0.0,0.0,0.0,1.7416,1.8076,1.9056,2.0191,1.7617,1.668,0.0,0.0,0.0,0.0,0.0,0.0,0.0,0.0,0.0,0.0,0.0,0.0,0.0,0.0,0.0,0.0,0.0,0.0,0.0,0.0,0.0,0.0,0.0,0.0,0.0,0.0,0.0,0.0,0.0,0.0,0.0,0.0,0.0,0.0,0.0,0.0,0.0,0.0,0.0,0.0,0.0,0.0,0.0,0.0,0.0,0.0,0.0,0.0,0.0,0.0,0.0,0.0,0.0,0.0,0.0,0.0,0.0,0.0,0.0,0.0,0.0,0.0,0.0,0.0,0.0,0.0,0.0,0.0,0.0,0.0,0.0,0.0,0.0,0.0,0.0,0.0,0.0,0.0,0.0,0.0,0.0,0.0,0.0,0.0,0.0,0.0,0.0,0.0,0.0,0.0,0.0,0.0,0.0,0.0,0.0,0.0,0.0,0.0,0.0,0.0,0.0,0.0,0.0,0.0,0.0,0.0,0.0,0.0,0.0,1.8744,1.8993,1.9744,2.0958,1.8141,1.6946,1.7644,0.0,0.0,0.0,0.0,0.0,0.0,0.0,0.0,0.0,0.0,0.0,0.0,0.0,0.0,0.0,0.0,0.0,0.0,0.0,0.0,0.0,0.0,0.0,0.0,0.0,0.0,0.0,0.0,0.0,0.0,0.0,0.0,0.0,0.0,0.0,0.0,0.0,0.0,0.0,0.0,0.0,0.0,0.0,0.0,0.0,0.0,0.0,0.0,0.0,0.0,0.0,0.0,0.0,0.0,0.0,0.0,0.0,0.0,0.0,0.0,0.0,0.0,0.0,0.0,0.0,0.0,0.0,0.0,0.0,0.0,0.0,0.0,0.0,0.0,0.0,0.0,0.0,0.0,0.0,0.0,0.0,0.0,0.0,0.0,0.0,0.0,0.0,0.0,0.0,0.0,0.0,0.0,0.0,0.0,0.0,0.0,0.0,0.0,0.0,0.0,0.0,0.0,0.0,0.0,0.0,0.0,0.0,0.0,2.2109,2.296,2.2664,2.1251,1.9906,1.8162,0.0,0.0,0.0,0.0,0.0,0.0,0.0,0.0,0.0,0.0,0.0,0.0,0.0,0.0,0.0,0.0,0.0,0.0,0.0,0.0,0.0,0.0,0.0,0.0,0.0,0.0,0.0,0.0,0.0,0.0,0.0,0.0,0.0,0.0,0.0,0.0,0.0,0.0,0.0,0.0,0.0,0.0,0.0,0.0,0.0,0.0,0.0,0.0,0.0,0.0,0.0,0.0,0.0,0.0,0.0,0.0,0.0,0.0,0.0,0.0,0.0,0.0,0.0,0.0,0.0,0.0,0.0,0.0,0.0,0.0,0.0,0.0,0.0,0.0,0.0,0.0,0.0,0.0,0.0,0.0,0.0,0.0,0.0,0.0,0.0,0.0,0.0,0.0,0.0,0.0,0.0,0.0,0.0,0.0,0.0,0.0,0.0,0.0,0.0,0.0,0.0,0.0,0.0,0.0,0.0,0.0,0.0,0.0,0.0,2.3626,2.4311,2.4202,2.3232,2.0162,1.8451,0.0,0.0,0.0,0.0,0.0,0.0,0.0,0.0,0.0,0.0,0.0,0.0,0.0,0.0,0.0,0.0,0.0,0.0,0.0,0.0,0.0,0.0,0.0,0.0,0.0,0.0,0.0,0.0,0.0,0.0,0.0,0.0,0.0,0.0,0.0,0.0,0.0,0.0,0.0,0.0,0.0,0.0,0.0,0.0,0.0,0.0,0.0,0.0,0.0,0.0,0.0,0.0,0.0,0.0,0.0,0.0,0.0,0.0,0.0,0.0,0.0,0.0,0.0,0.0,0.0,0.0,0.0,0.0,0.0,0.0,0.0,0.0,0.0,0.0,0.0,0.0,0.0,0.0,0.0,0.0,0.0,0.0,0.0,0.0,0.0,0.0,0.0,0.0,0.0,0.0,0.0,0.0,0.0,0.0,0.0,0.0,0.0,0.0,0.0,0.0,0.0,0.0,0.0,0.0,0.0,0.0,0.0,0.0,2.2765,2.4061,2.4722,2.4853,2.4407,2.2047,2.0152,0.0,0.0,0.0,0.0,0.0,0.0,0.0,0.0,0.0,0.0,0.0,0.0,0.0,0.0,0.0,0.0,0.0,0.0,0.0,0.0,0.0,0.0,0.0,0.0,0.0,0.0,0.0,0.0,0.0,0.0,0.0,0.0,0.0,0.0,0.0,0.0,0.0,0.0,0.0,0.0,0.0,0.0,0.0,0.0,0.0,0.0,0.0,0.0,0.0,0.0,0.0,0.0,0.0,0.0,0.0,0.0,0.0,0.0,0.0,0.0,0.0,0.0,0.0,0.0,0.0,0.0,0.0,0.0,0.0,0.0,0.0,0.0,0.0,0.0,0.0,0.0,0.0,0.0,0.0,0.0,0.0,0.0,0.0,0.0,0.0,0.0,0.0,0.0,0.0,0.0,0.0,0.0,0.0,0.0,0.0,0.0,0.0,0.0,0.0,0.0,0.0,0.0,0.0,0.0,0.0,0.0,0.0,0.0,2.3269,2.3773,2.4645,2.497,2.4663,2.4139,2.2156,0.0,0.0,0.0,0.0,0.0,0.0,0.0,0.0,0.0,0.0,0.0,0.0,0.0,0.0,0.0,0.0,0.0,0.0,0.0,0.0,0.0,0.0,0.0,0.0,0.0,0.0,0.0,0.0,0.0,0.0,0.0,0.0,0.0,0.0,0.0,0.0,0.0,0.0,0.0,0.0,0.0,0.0,0.0,0.0,0.0,0.0,0.0,0.0,0.0,0.0,0.0,0.0,0.0,0.0,0.0,0.0,0.0,0.0,0.0,0.0,0.0,0.0,0.0,0.0,0.0,0.0,0.0,0.0,0.0,0.0,0.0,0.0,0.0,0.0,0.0,0.0,0.0,0.0,0.0,0.0,0.0,0.0,0.0,0.0,0.0,0.0,0.0,0.0,0.0,0.0,0.0,0.0,0.0,0.0,0.0,0.0,0.0,0.0,0.0,0.0,0.0,0.0,0.0,0.0,0.0,0.0,0.0,0.0,2.3471,2.3803,2.4995,2.51,2.4023,2.1838,2.0285,0.0,0.0,0.0,0.0,0.0,0.0,0.0,0.0,0.0,0.0,0.0,0.0,0.0,0.0,0.0,0.0,0.0,0.0,0.0,0.0,0.0,0.0,0.0,0.0,0.0,0.0,0.0,0.0,0.0,0.0,0.0,0.0,0.0,0.0,0.0,0.0,0.0,0.0,0.0,0.0,0.0,0.0,0.0,0.0,0.0,0.0,0.0,0.0,0.7951,0.0,0.0,0.0,0.0,0.0,0.0,0.0,0.0,0.0,0.0,0.0,0.0,0.0,0.0,0.0,0.0,0.0,0.0,0.0,0.0,0.0,0.0,0.0,0.0,0.0,0.0,0.0,0.0,0.0,0.0,0.0,0.0,0.0,0.0,0.0,0.0,0.0,0.0,0.0,0.0,0.0,0.0,0.0,0.0,0.0,0.0,0.0,0.0,0.0,0.0,0.0,0.0,0.0,0.0,0.0,0.0,0.0,0.0,0.0,2.3625,2.3824,2.516,2.5198,2.3717,2.1404,2.0019,0.0,0.0,0.0,0.0,0.0,0.0,0.0,0.0,0.0,0.0,0.0,0.0,0.0,0.0,0.0,0.0,0.0,0.0,0.0,0.0,0.0,0.0,0.0,0.0,0.0,0.0,0.0,0.0,0.0,0.0,0.0,0.0,0.0,0.0,0.0,0.0,0.0,0.0,0.0,0.0,0.0,0.0,0.0,0.0,0.0,0.0,0.0,0.0,0.0,0.0,0.0,0.0,0.0,0.0,0.0,0.0,0.0,0.0,0.0,0.0,0.0,0.0,0.0,0.0,0.0,0.0,0.0,0.0,0.0,0.0,0.0,0.0,0.0,0.0,0.0,0.0,0.0,0.0,0.0,0.0,0.0,0.0,0.0,0.0,0.0,0.0,0.0,0.0,0.0,0.0,0.0,0.0,0.0,0.0,0.0,0.0,0.0,0.0,0.0,0.0,0.0,0.0,0.0,0.0,0.0,0.0,0.0,2.2319,2.3758,2.4126,2.5114,2.5009,2.3631,2.1615,2.0255,1.965,0.0,0.0,0.0,0.0,0.0,0.0,0.0,0.0,0.0,0.0,0.0,0.0,0.0,0.0,0.0,0.0,0.0,0.0,0.0,0.0,0.0,0.0,0.0,0.0,0.0,0.0,0.0,0.0,0.0,0.0,0.0,0.0,0.0,0.0,0.0,0.0,0.0,0.0,0.9183,0.9173,0.0,0.0,0.0,0.0,0.0,0.0,0.0,0.0,0.802,0.0,0.0,0.0,0.0,0.0,0.0,0.0,0.0,0.0,0.0,0.0,0.0,0.0,0.0,0.0,0.0,0.0,0.0,0.0,0.0,0.0,0.0,0.0,0.0,0.0,0.0,0.0,0.0,0.0,0.0,0.0,0.0,0.0,0.0,0.0,0.0,0.0,0.0,0.0,0.0,0.0,0.0,0.0,0.0,0.0,0.0,0.0,0.0,0.0,0.0,0.0,0.0,0.0,0.0,0.0,0.0,2.2273,2.2843,2.3872,2.5425,2.4609,2.3986,2.3535,2.119,1.967,1.9225,0.0,0.0,0.0,0.0,0.0,0.0,0.0,0.0,0.0,0.0,0.0,0.0,0.0,0.0,0.0,0.0,0.0,0.0,0.0,0.0,0.0,0.0,0.0,0.0,0.0,0.0,0.0,0.0,0.0,0.0,0.0,0.0,0.0,0.0,0.0,0.0,0.0,0.0,0.0,0.8337,0.8401,0.0,0.0,0.0,0.0,0.0,0.0,0.0,0.0,0.7066,0.0,0.0,0.0,0.0,0.0,0.0,0.0,0.0,0.0,0.0,0.0,0.0,0.0,0.0,0.0,0.0,0.0,0.0,0.0,0.0,0.0,0.0,0.0,0.0,0.0,0.0,0.0,0.0,0.0,0.0,0.0,0.0,0.0,0.0,0.0,0.0,0.0,0.0,0.0,0.0,0.0,0.0,0.0,0.0,0.0,0.0,0.0,0.0,0.0,0.0,0.0,0.0,0.0,0.0,0.0,2.1808,2.2706,2.3508,2.4312,2.4403,2.3516,2.164,2.0348,1.9185,0.0,0.0,0.0,0.0,0.0,0.0,0.0,0.0,0.0,0.0,0.0,0.0,0.0,0.0,0.0,0.0,0.0,0.0,0.0,0.0,0.0,0.0,0.0,0.0,0.0,0.0,0.0,0.0,0.0,0.0,0.0,0.0,0.0,0.0,0.0,0.0,0.0,0.0,0.0,0.0,0.7506,0.7769,0.7423,0.0,0.0,0.0,0.0,0.0,0.0,0.7024,0.6813,0.0,0.0,0.0,0.0,0.0,0.0,0.0,0.0,0.0,0.0,0.0,0.0,0.0,0.0,0.0,0.0,0.0,0.0,0.0,0.0,0.0,0.0,0.0,0.0,0.0,0.0,0.0,0.0,0.0,0.0,0.0,0.0,0.0,0.0,0.0,0.0,0.0,0.0,0.0,0.0,0.0,0.0,0.0,0.0,0.0,0.0,0.0,0.0,0.0,0.0,0.0,0.0,0.0,0.0,0.0,2.133,2.2411,2.3097,2.337,2.4006,2.2903,1.9916,1.9406,1.8467,0.0,0.0,0.0,0.0,0.0,0.0,0.0,0.0,0.0,0.0,0.0,0.0,0.0,0.0,0.0,0.0,0.0,0.0,0.0,0.0,0.0,0.0,0.0,0.0,0.0,0.0,0.0,0.0,0.0,0.0,0.0,0.0,0.0,0.0,0.0,0.0,0.0,0.0,0.0,0.0,0.0,0.714,0.6687,0.7095,0.0,0.0,0.0,0.0,0.7373,0.6834,0.0,0.0,0.0,0.0,0.0,0.0,0.0,0.0,0.0,0.0,0.0,0.0,0.0,0.0,0.0,0.0,0.0,0.0,0.0,0.0,0.0,0.0,0.0,0.0,0.0,0.0,0.0,0.0,0.0,0.0,0.0,0.0,0.0,0.0,0.0,0.0,0.0,0.0,0.0,0.0,0.0,0.0,0.0,0.0,0.0,0.0,0.0,0.0,0.0,0.0,0.0,0.0,0.0,0.0,0.0,0.0,2.2546,2.2323,2.2909,2.4428,2.3004,2.151,2.0157,1.8413,1.7079,0.0,0.0,0.0,0.0,0.0,0.0,0.0,0.0,0.0,0.0,0.0,0.0,0.0,0.0,0.0,0.0,0.0,0.0,0.0,0.0,0.0,0.0,0.0,0.0,0.0,0.0,0.0,0.0,0.0,0.0,0.0,0.0,0.0,0.0,0.0,0.0,0.0,0.0,0.0,0.0,0.0,0.6622,0.6375,0.6468,0.6438,0.0,0.0,0.6406,0.6236,0.5925,0.0,0.0,0.0,0.0,0.0,0.0,0.0,0.0,0.0,0.0,0.0,0.0,0.0,0.0,0.0,0.0,0.0,0.0,0.0,0.0,0.0,0.0,0.0,0.0,0.0,0.0,0.0,0.0,0.0,0.0,0.0,0.0,0.0,0.0,0.0,0.0,0.0,0.0,0.0,0.0,0.0,0.0,0.0,0.0,0.0,0.0,0.0,0.0,0.0,0.0,0.0,0.0,0.0,0.0,0.0,1.9533,2.1672,2.1391,2.1521,2.2144,2.1495,2.0171,1.8215,1.7316,1.6593,0.0,0.0,0.0,0.0,0.0,0.0,0.0,0.0,0.0,0.0,0.0,0.0,0.0,0.0,0.0,0.0,0.0,0.0,0.0,0.0,0.0,0.0,0.0,0.0,0.0,0.0,0.0,0.0,0.0,0.0,0.0,0.0,0.0,0.0,0.0,0.0,0.0,0.0,0.0,0.0,0.0,0.0,0.5436,0.5551,0.0,0.0,0.0,0.5985,0.6048,0.0,0.0,0.0,0.0,0.0,0.0,0.0,0.0,0.0,0.0,0.0,0.0,0.0,0.0,0.0,0.0,0.0,0.0,0.0,0.0,0.0,0.0,0.0,0.0,0.0,0.0,0.0,0.0,0.0,0.0,0.0,0.0,0.0,0.0,0.0,0.0,0.0,0.0,0.0,0.0,0.0,0.0,0.0,0.0,0.0,0.0,0.0,0.0,0.0,0.0,0.0,0.0,0.0,0.0,0.0,0.0,0.0,2.0487,2.0359,2.0202,2.001,2.005,1.8871,1.6379,1.6267,0.0,0.0,0.0,0.0,0.0,0.0,0.0,0.0,0.0,0.0,0.0,0.0,0.0,0.0,0.0,0.0,0.0,0.0,0.0,0.0,0.0,0.0,0.0,0.0,0.0,0.0,0.0,1.0094,0.0,0.0,0.0,0.0,0.0,0.0,0.0,0.0,0.0,0.0,0.0,0.0,0.0,0.0,0.4917,0.4675,0.484,0.5017,0.0,0.0,0.5455,0.5684,0.5462,0.5222,0.0,0.0,0.0,0.0,0.0,0.0,0.0,0.0,0.0,0.0,0.0,0.0,0.0,0.0,0.0,0.0,0.0,0.0,0.0,0.0,0.0,0.0,0.0,0.0,0.0,0.0,0.0,0.0,0.0,0.0,0.0,0.0,0.0,0.0,0.0,0.0,0.0,0.0,0.0,0.0,0.0,0.0,0.0,0.0,0.0,0.0,0.0,0.0,0.0,0.0,0.0,0.0,0.0,0.0,1.919,1.9482,1.9478,1.9457,1.9456,1.8987,1.767,1.549,1.539,1.5146,0.0,0.0,0.0,0.0,0.0,0.0,0.0,0.0,0.0,0.0,0.0,0.0,0.0,0.0,0.0,0.0,0.0,0.0,0.0,0.0,0.0,0.0,0.0,0.0,0.0,0.0,0.0,0.0,0.0,0.0,0.0,0.0,0.0,0.0,0.0,0.0,0.0,0.0,0.0,0.0,0.0,0.4709,0.4464,0.4578,0.4531,0.0,0.4395,0.4733,0.473,0.4595,0.4595,0.4889,0.0,0.0,0.0,0.0,0.0,0.0,0.0,0.0,0.0,0.0,0.0,0.0,0.0,0.0,0.0,0.0,0.0,0.0,0.0,0.0,0.0,0.0,0.0,0.0,0.0,0.0,0.0,0.0,0.0,0.0,0.0,0.0,0.0,0.0,0.0,0.0,0.0,0.0,0.0,0.0,0.0,0.0,0.0,0.0,0.0,0.0,0.0,0.0,0.0,0.0,0.0,0.0,0.0,1.8475,1.8846,1.833,1.8146,1.8378,1.7631,1.6677,1.546,1.5061,1.4752,0.0,0.0,0.0,0.0,0.0,0.0,0.0,0.0,0.0,0.0,0.0,0.0,0.0,0.0,0.0,0.0,0.0,0.0,0.0,0.0,0.0,0.0,0.0,0.0,0.0,0.0,0.0,0.0,0.7622,0.7123,0.7042,0.0,0.0,0.0,0.0,0.0,0.0,0.0,0.0,0.0,0.0,0.3607,0.3532,0.3641,0.0,0.0,0.4046,0.4409,0.4134,0.4313,0.4315,0.3868,0.4009,0.0,0.0,0.0,0.0,0.0,0.0,0.0,0.0,0.0,0.0,0.0,0.0,0.0,0.0,0.0,0.0,0.0,0.0,0.0,0.0,0.0,0.0,0.0,0.0,0.0,0.0,0.0,0.0,0.0,0.0,0.0,0.0,0.0,0.0,0.0,0.0,0.0,0.0,0.0,0.0,0.0,0.0,0.0,0.0,0.0,0.0,0.0,0.0,0.0,0.0,0.0,0.0,1.7983,1.8363,1.7609,1.7423,1.7866,1.6745,1.5937,1.55,1.476,1.4389,0.0,0.0,0.0,0.0,0.0,0.0,0.0,0.0,0.0,0.0,0.0,0.0,0.0,0.0,0.0,0.0,0.0,0.0,0.0,0.0,0.0,0.0,0.0,0.0,0.0,0.0,0.0,0.0,0.7229,0.655,0.5961,0.0,0.0,0.0,0.0,0.0,0.0,0.0,0.0,0.0,0.0,0.2776,0.2595,0.273,0.2897,0.311,0.3482,0.373,0.3646,0.3782,0.369,0.3084,0.0,0.0,0.0,0.0,0.0,0.0,0.0,0.0,0.0,0.0,0.0,0.0,0.0,0.0,0.0,0.0,0.0,0.0,0.0,0.0,0.0,0.0,0.0,0.0,0.0,0.0,0.0,0.0,0.0,0.0,2.281,0.0,0.0,0.0,0.0,0.0,0.0,0.0,0.0,0.0,0.0,0.0,0.0,0.0,0.0,0.0,0.0,0.0,0.0,0.0,0.0,0.0,0.0,1.7879,1.8092,1.7507,1.7494,1.8018,1.6402,1.5526,1.5487,1.4419,1.399,1.4308,0.0,0.0,0.0,0.0,0.0,0.0,0.0,0.0,0.0,0.0,0.0,0.0,0.0,0.0,0.0,0.0,0.0,0.0,0.0,0.0,0.0,0.0,0.0,0.0,0.0,0.0,0.8478,0.7452,0.6248,0.0,0.0,0.0,0.0,0.0,0.0,0.0,0.0,0.0,0.0,0.2563,0.2443,0.1737,0.1971,0.2392,0.2904,0.2624,0.2559,0.3163,0.286,0.2585,0.0,0.0,0.0,0.0,0.0,0.0,0.0,0.0,0.0,0.0,0.0,0.0,0.0,0.0,0.0,0.0,0.0,0.0,0.0,0.0,0.0,0.0,0.0,0.0,0.0,0.0,0.0,2.4057,2.367,0.0,0.0,0.0,0.0,0.0,0.0,0.0,0.0,0.0,0.0,0.0,2.0231,2.0814,0.0,0.0,0.0,0.0,0.0,0.0,0.0,0.0,0.0,0.0,0.0,0.0,1.7436,1.7486,1.7303,1.729,1.746,1.6192,1.5683,1.6081,1.4956,1.439,1.4475,0.0,0.0,0.0,0.0,0.0,0.0,0.0,0.0,0.0,0.0,0.0,0.0,0.0,0.0,0.0,0.0,0.0,0.0,0.0,0.0,0.0,0.0,0.0,0.0,0.0,0.8079,0.0,0.0,0.0,0.0,0.0,0.0,0.0,0.0,0.0,0.0,0.0,0.1819,0.1636,0.1469,0.1292,0.1032,0.1134,0.1334,0.0,0.0,0.0,0.0,0.0,0.0,0.0,0.0,0.0,0.0,0.0,0.0,0.0,0.0,0.1375,0.1911,0.1733,0.137,0.098,0.0,0.0,0.0,0.0,0.0,0.0,0.0,0.0,0.0,0.0,0.0,0.0,0.0,0.0,2.4859,0.0,2.4616,0.0,0.0,0.0,0.0,0.0,0.0,0.0,0.0,2.2687,2.2295,2.0813,2.158,2.1164,0.0,1.9061,1.8707,0.0,0.0,0.0,0.0,0.0,0.0,0.0,0.0,1.7303,1.7486,1.7303,1.7303,1.746,1.6408,1.5996,1.6349,1.5059,1.4242,1.4072,1.3151,1.2729,0.0,0.0,0.0,0.0,0.0,0.0,0.0,0.0,0.0,0.0,0.0,0.0,0.0,0.0,0.0,0.0,0.0,0.0,0.0,0.0,0.0,0.0,0.0,0.7416,0.0,0.0,0.0,0.0,0.0,0.0,0.0,0.0,0.0,0.2503,0.1758,0.1154,0.1049,0.0883,0.0664,0.0389,0.0,0.0,0.0,0.0,0.0,0.0,0.0,0.0852,0.0267,0.0495,0.0605,0.0268,0.0233,0.0171,-0.0142,0.0,0.0,0.0371,0.0259,0.0,-0.0058,-0.029,-0.0522,-0.055,-0.0781,-0.0981,0.0,0.0,0.0,0.0,0.0,0.0,0.0,0.0,2.4844,2.5516,0.0,2.4721,0.0,0.0,0.0,0.0,0.0,2.2513,0.0,0.0,2.3512,2.3111,2.1902,2.1897,2.1345,2.0271,1.9584,1.9217,1.9115,1.769,0.0,0.0,0.0,0.0,0.0,0.0,1.7486,1.8009,1.7473,1.7486,1.7983,1.6963,1.6388,1.6342,1.4752,1.3616,1.3069,1.2539,1.2025,1.1673,1.2473,0.0,0.0,0.0,0.0,0.0,0.0,0.0,0.0,0.0,0.0,0.0,0.0,0.0,0.0,0.0,0.0,0.0,0.0,0.0,0.0,0.7152,0.0,0.0,0.0,0.0,0.0,0.0,0.0,0.0,0.0,0.0,0.2397,0.1825,0.1131,0.0529,0.0,0.0,0.0,0.0,0.0485,0.0863,0.0588,0.0487,0.0822,0.038,-0.0086,-0.0244,0.0,0.0,-0.0245,-0.015,-0.0235,-0.0587,-0.0949,-0.1049,-0.076,-0.069,-0.0642,-0.0429,-0.092,-0.1292,-0.1107,-0.1621,-0.2068,3.0223,0.0,0.0,0.0,0.0,2.7679,2.8158,2.8786,2.8353,2.7865,2.7308,2.5893,0.0,0.0,0.0,0.0,0.0,0.0,2.364,2.2932,2.3752,2.355,2.2452,2.2506,2.2084,2.1261,2.0688,1.9952,1.9057,1.8212,1.7672,1.732,0.0,0.0,0.0,0.0,1.729,1.7434,1.729,1.7277,1.7447,1.6754,1.6336,1.6256,1.5073,1.4196,1.365,1.2754,1.2226,1.211,1.255,0.0,0.0,0.0,0.0,0.0,0.0,0.0,0.0,0.0,0.0,0.0,0.0,0.0,0.0,0.0,0.0,0.0,0.0,0.0,0.7979,0.6022,0.467,0.0,0.0,0.0,0.0,0.0,0.0,0.0,0.0,0.0,0.0961,0.0515,-0.0025,0.0,0.0,-0.0318,-0.0676,-0.0609,-0.049,-0.0374,-0.0626,0.0,-0.0793,-0.0863,-0.1066,-0.1481,-0.1516,-0.1502,-0.1543,-0.1528,-0.1569,-0.1832,-0.206,-0.2194,-0.2279,-0.189,-0.1654,-0.1805,-0.2034,-0.2248,-0.24,-0.2615,-0.2734,3.2976,3.0851,3.0088,2.9594,2.9385,2.9612,2.9878,3.004,2.9671,2.9069,2.8269,2.6721,2.5544,2.4614,2.31,0.0,0.0,0.0,2.3607,2.3435,2.3767,2.3544,2.2899,2.2899,2.2578,2.1936,2.1405,2.0745,1.9987,1.8983,1.8378,1.8082,0.0,0.0,1.7282,1.7411,1.7496,1.7552,1.7552,1.7447,1.7199,1.6447,1.6072,1.6077,1.4752,1.3868,1.3561,1.2753,1.2203,1.1974,1.2322,1.2352,0.0,0.0,0.0,0.0,0.0,0.0,0.0,0.0,0.0,0.0,0.0,0.9826,0.9511,0.0,0.0,0.0,0.7412,0.7193,0.6429,0.4765,0.0,0.0,0.0,0.0,0.0,0.0,0.0,0.1175,0.0392,-0.0139,-0.0109,-0.0316,-0.0541,-0.0747,-0.0683,-0.0715,-0.0891,0.0,-0.0939,-0.1034,-0.1236,-0.145,-0.1594,-0.1715,-0.189,-0.2239,-0.2311,-0.2348,-0.234,-0.2309,-0.2371,-0.2617,-0.2711,-0.2811,-0.3011,-0.2655,-0.2402,-0.2536,-0.2682,-0.281,-0.287,-0.2997,-0.3062,3.5322,3.4558,3.2646,3.1468,3.0896,3.1453,3.097,2.9796,2.9664,2.9533,2.9296,2.7277,2.6593,2.6829,2.4409,0.0,2.2824,2.2787,2.3363,2.431,2.3804,2.3435,2.3246,2.3183,2.2869,2.2284,2.1794,2.1534,2.1317,1.9823,1.9033,1.897,1.7541,1.7133,1.7725,1.7845,1.7965,1.81,1.8004,1.7661,1.7073,1.6019,1.561,1.5908,1.4068,1.308,1.3038,1.2626,1.2108,1.1521,1.1857,1.1795,1.1216,0.0,0.0,0.0,0.0,0.0,0.0,0.0,0.0,0.0,0.0,0.0,0.0,0.0,0.0,0.0,0.5402,0.0,0.4089,0.3498,0.0,0.0,0.0,0.1959,0.1818,0.098,0.0364,0.0308,0.0,0.0,-0.0897,-0.0736,-0.0641,-0.072,-0.072,-0.0755,-0.0893,-0.0896,-0.1011,-0.1272,-0.1442,-0.1616,-0.1868,-0.2209,-0.2518,-0.2631,-0.2701,-0.2732,-0.2727,-0.2683,-0.2774,-0.2985,-0.3034,-0.301,-0.3064,-0.3071,-0.3053,-0.2797,-0.2984,-0.3086,-0.2843,-0.3009,-0.3174,3.7238,3.6462,3.5507,3.4475,3.3573,3.3618,3.3423,3.3039,3.1815,3.0774,2.9801,2.7787,2.5972,2.43,2.4183,2.4013,2.386,2.4726,2.5218,2.547,2.5214,2.484,2.4374,2.396,2.3276,2.2347,2.2171,2.1681,2.088,2.0024,1.9396,1.897,1.824,1.8017,1.8362,1.8061,1.7965,1.81,1.7298,1.6591,1.5983,1.5356,1.5174,1.5456,1.4258,1.3596,1.3521,1.3275,1.2759,1.1981,1.1903,1.1348,1.0211,1.0479,0.0,0.0,0.0,0.0,0.0,0.0,0.0,0.0,0.0,0.8533,0.7857,0.0,0.6994,0.0,0.4517,0.4018,0.4282,0.3456,0.0,0.0,0.18,0.1567,0.0448,0.0364,0.0196,-0.0364,-0.0673,-0.0869,-0.0897,-0.0864,-0.0851,-0.0856,-0.0853,-0.0863,-0.0892,-0.1094,-0.1246,-0.1416,-0.1779,-0.2078,-0.2293,-0.2604,-0.2983,-0.3109,-0.3077,-0.2992,-0.2992,-0.3009,-0.2953,-0.2897,-0.293,-0.2989,-0.3047,-0.3074,-0.312,-0.3101,-0.3159,-0.3192,-0.3092,-0.3159,-0.3194,3.7879,3.7164,3.671,3.582,3.4758,3.4376,3.3973,3.3494,3.2351,3.1105,2.975,2.8333,2.6876,2.5524,2.5387,2.5418,2.5593,2.5693,2.5916,2.6131,2.5539,2.4971,2.4443,2.3847,2.3163,2.2322,2.2058,2.1631,2.1043,2.02,1.952,1.8991,1.8696,1.8511,1.8474,1.8307,1.8266,1.8346,1.7117,1.6197,1.5533,1.5063,1.4842,1.4892,1.4135,1.3568,1.3307,1.3362,1.3023,1.2285,1.1846,1.1195,1.0205,0.9761,0.9084,0.0,0.0,0.0,0.0,0.0,0.0,0.0,0.0,0.0,0.0,0.0,0.5958,0.496,0.3795,0.3277,0.3684,0.2719,0.1794,0.1169,0.1064,0.07,-0.0112,-0.014,-0.0252,-0.0645,-0.1036,-0.1289,-0.1316,-0.154,-0.1696,-0.1691,-0.1767,-0.1688,-0.1479,-0.1719,-0.2085,-0.2348,-0.2664,-0.302,-0.3357,-0.358,-0.3769,-0.3874,-0.3747,-0.3624,-0.3624,-0.3622,-0.3582,-0.3477,-0.3527,-0.3562,-0.3567,-0.3611,-0.3646,-0.369,-0.3682,-0.3589,-0.3276,-0.3393,-0.356,3.7742,3.6991,3.6701,3.5934,3.4817,3.4034,3.3353,3.267,3.1917,3.0806,2.9399,2.873,2.8331,2.8047,2.714,2.6927,2.7205,2.6264,2.6084,2.6424,2.5473,2.4732,2.4192,2.3584,2.2995,2.238,2.1759,2.1444,2.1331,2.0227,1.9429,1.8976,1.8917,1.8682,1.829,1.8402,1.8384,1.8265,1.7063,1.6079,1.5302,1.4811,1.449,1.4292,1.3708,1.3186,1.2731,1.3007,1.2872,1.22,1.1552,1.0933,1.0346,0.8977,0.8183,0.0,0.7472,0.0,0.0,0.0,0.0,0.0,0.0,0.0,0.0,0.4832,0.4569,0.4336,0.3189,0.2492,0.2663,0.1697,0.1032,0.0917,0.0223,-0.0224,-0.0252,-0.0589,-0.0813,-0.0841,-0.1455,-0.1902,-0.193,-0.2402,-0.2679,-0.2629,-0.2802,-0.2781,-0.2416,-0.2682,-0.3072,-0.3569,-0.3716,-0.3941,-0.4476,-0.4633,-0.4607,-0.465,-0.4448,-0.433,-0.4239,-0.4242,-0.4261,-0.424,-0.4192,-0.4207,-0.4294,-0.4267,-0.4284,-0.4279,-0.4294,-0.4099,-0.3596,-0.3701,-0.4018,3.7343,3.5943,3.5217,3.4445,3.3528,3.228,3.2129,3.268,3.112,2.9897,2.9001,2.8862,2.8536,2.8097,2.7896,2.7607,2.7268,2.7102,2.6813,2.6487,2.6285,2.5871,2.5285,2.4745,2.3935,2.2927,2.1869,2.1117,2.0677,1.9549,1.8937,1.8841,1.8475,1.8228,1.8108,0.0,0.0,0.0,1.6115,1.567,1.4706,1.4214,1.3905,1.3742,1.2851,0.0,1.2168,1.2,1.1649,1.0977,1.0409,0.0,0.0,0.0,0.0,0.0,0.0,0.0,0.0,0.0,0.0,0.0,0.4646,0.4736,0.4904,0.4011,0.3395,0.3341,0.2588,0.1916,0.1462,0.1042,0.0582,0.0108,-0.0193,-0.0421,-0.0589,-0.1091,-0.1483,-0.1595,-0.2151,-0.2541,-0.2541,-0.2653,-0.2707,-0.2759,-0.3209,-0.3602,-0.3602,-0.3528,-0.3514,-0.3599,-0.4101,-0.4511,-0.4947,-0.4936,-0.4924,-0.4793,-0.4656,-0.4484,-0.4312,-0.4259,-0.4187,-0.4134,-0.4069,-0.4108,-0.4203,-0.4227,-0.4323,-0.4506,-0.4542,-0.4442,-0.4165,-0.4185,-0.4247,3.6267,0.0,3.4483,3.3573,0.0,3.1827,3.1487,3.139,3.0496,2.9808,2.9352,2.9352,2.9202,2.8925,2.8637,2.821,2.7682,2.7406,2.7027,2.6499,2.6487,2.6185,2.5586,2.4971,2.4103,2.3003,2.1766,2.089,2.0398,1.9552,1.8873,1.8355,1.8109,1.7762,1.7284,1.705,1.6439,1.5418,1.5636,1.5229,1.4199,1.3936,1.3739,1.36,1.2857,0.0,0.0,0.0,0.0,0.0,0.0,0.0,0.0,0.7923,0.0,0.6701,0.6285,0.5795,0.5164,0.4894,0.4563,0.4143,0.3805,0.364,0.3702,0.2869,0.2328,0.2252,0.171,0.1191,0.0855,0.0482,0.0082,-0.0273,-0.0721,-0.1036,-0.1203,-0.1733,-0.2179,-0.2291,-0.2792,-0.3125,-0.3153,-0.3489,-0.366,-0.3658,-0.4078,-0.4464,-0.451,-0.4409,-0.4401,-0.4653,-0.5199,-0.5664,-0.5823,-0.585,-0.5686,-0.5529,-0.5329,-0.5076,-0.4801,-0.4724,-0.4724,-0.465,-0.466,-0.4661,-0.4717,-0.4745,-0.4773,-0.4909,-0.4954,-0.4933,-0.4802,-0.483,-0.4804,3.5224,3.4966,3.3859,3.2877,3.2032,3.1614,3.0925,3.0049,0.0,0.0,0.0,2.9779,2.9779,2.9767,2.9289,2.8712,2.8002,2.7553,2.6934,2.6208,2.6208,2.5899,2.5287,2.4611,2.38,2.2902,2.1578,2.0724,2.0257,1.9606,1.8858,1.8029,1.7827,1.7326,1.6537,1.6444,1.614,1.5622,1.5569,1.5062,1.4056,1.4014,1.3882,1.3621,1.2968,1.247,1.2151,1.1264,1.0617,1.0318,0.9357,0.8714,0.8516,0.7437,0.6668,0.6379,0.5744,0.5145,0.467,0.4472,0.4192,0.3741,0.2973,0.2455,0.2323,0.1811,0.1435,0.1337,0.0863,0.0496,0.0381,-0.0131,-0.0487,-0.061,-0.131,-0.1789,-0.1845,-0.2456,-0.2903,-0.2959,-0.343,-0.3818,-0.3849,-0.4322,-0.4743,-0.477,-0.4846,-0.5101,-0.5128,-0.5152,-0.5317,-0.5732,-0.6159,-0.6652,-0.6756,-0.6729,-0.6647,-0.6309,-0.6041,-0.5763,-0.5489,-0.5329,-0.5301,-0.525,-0.5325,-0.5356,-0.5384,-0.5364,-0.5392,-0.542,-0.5401,-0.5345,-0.5354,-0.5388,-0.5348,3.4883,3.4152,3.2688,3.1958,3.1754,3.0565,3.0007,2.983,2.983,2.983,2.9779,2.9779,2.9779,2.9779,2.9704,2.8944,2.769,2.7605,2.6661,2.5082,2.5034,2.4792,2.4292,2.3734,2.3167,2.2591,2.142,2.0566,2.0051,1.9073,1.8459,1.8249,1.754,1.7075,1.6893,1.657,1.634,1.6272,1.6262,1.5787,1.4857,1.4837,1.4417,1.3617,1.2539,1.1701,1.1205,1.0308,0.9608,0.925,0.8958,0.8404,0.7574,0.7304,0.6592,0.5289,0.5151,0.4781,0.4019,0.3978,0.3727,0.3024,0.1737,0.1141,0.1648,0.1289,0.1,0.0942,0.0333,-0.0081,-0.016,-0.0898,-0.1399,-0.1483,-0.2088,-0.2539,-0.2569,-0.3211,-0.3655,-0.3655,-0.4263,-0.4677,-0.4649,-0.4791,-0.4873,-0.4901,-0.5014,-0.5156,-0.5297,-0.5517,-0.5814,-0.6105,-0.6458,-0.6783,-0.6977,-0.7058,-0.6896,-0.6647,-0.6349,-0.6028,-0.574,-0.5466,-0.5329,-0.5301,-0.5517,-0.5681,-0.5709,-0.574,-0.5793,-0.5865,-0.5758,-0.5596,-0.5559,-0.5554,-0.5504,3.4163,3.3632,3.2866,3.2158,3.1473,3.0322,2.9779,2.9779,2.9779,2.9779,2.9779,2.9779,2.9546,2.9118,2.9091,2.8304,2.6894,2.6894,2.6263,2.5211,2.5188,2.4952,2.4422,2.3815,2.3139,2.2425,2.1466,2.0702,2.0236,1.9513,1.9036,1.8713,1.7854,1.7389,1.7378,1.7182,1.6984,1.6736,1.626,1.568,1.5044,1.5023,1.4635,1.3831,1.2769,1.1951,1.1455,1.0183,0.9416,0.92,0.8418,0.7653,0.6964,0.6326,0.5605,0.476,0.4539,0.4134,0.3428,0.3086,0.2575,0.1839,0.113,0.0611,0.0476,0.0272,0.0147,0.0117,-0.0478,-0.0872,-0.0956,-0.1634,-0.2148,-0.2293,-0.2906,-0.332,-0.3456,-0.3984,-0.4374,-0.4429,-0.4677,-0.4901,-0.4901,-0.4956,-0.5014,-0.5014,-0.5128,-0.5293,-0.5548,-0.5841,-0.6055,-0.6209,-0.6588,-0.6918,-0.7079,-0.7106,-0.6999,-0.6761,-0.6431,-0.6105,-0.5845,-0.5521,-0.5411,-0.5521,-0.5713,-0.5845,-0.5978,-0.6,-0.6073,-0.6087,-0.6049,-0.5909,-0.5746,-0.5558,-0.5469,3.3671,3.3386,3.3016,3.2303,3.1323,3.0382,2.998,2.9967,2.9854,2.9779,2.9779,2.9779,2.9326,2.8554,2.8502,2.7679,2.6319,2.6205,2.5825,2.5189,2.5167,2.4898,2.4401,2.3744,2.2988,2.217,2.1424,2.0839,2.042,2.0079,1.9658,1.9088,1.8371,1.7957,1.7843,1.775,1.7462,1.692,1.6194,1.5574,1.5157,1.4877,1.4496,1.3992,1.2894,1.2174,1.169,1.0185,0.9267,0.9126,0.7938,0.6975,0.6355,0.5538,0.4845,0.4457,0.4004,0.3462,0.2791,0.2158,0.151,0.0806,0.037,-0.0101,-0.0737,-0.1014,-0.0969,-0.0868,-0.1345,-0.1781,-0.1911,-0.2461,-0.2925,-0.3123,-0.3655,-0.407,-0.4229,-0.4649,-0.4928,-0.4928,-0.4987,-0.4987,-0.5038,-0.5203,-0.5449,-0.5591,-0.565,-0.5814,-0.6114,-0.6381,-0.6534,-0.6642,-0.6891,-0.7085,-0.7106,-0.7106,-0.7025,-0.681,-0.6539,-0.6295,-0.6059,-0.5763,-0.5622,-0.5841,-0.5982,-0.6114,-0.629,-0.6317,-0.6327,-0.6337,-0.6232,-0.6119,-0.5936,-0.5831,-0.5576,3.3855,3.3305,3.2626,3.1951,3.1361,3.0783,3.0505,3.043,3.0018,2.9779,2.9739,2.9779,2.9248,2.8593,2.8462,2.747,2.5898,2.5837,2.5224,2.4209,2.4054,2.3803,2.3423,2.2906,2.2338,2.1869,2.141,2.101,2.0529,2.042,1.9934,1.9202,1.9015,1.8744,1.835,1.7926,1.7409,1.6807,1.6314,1.5937,1.5598,1.4512,1.3932,1.3978,1.2615,1.1781,1.1559,1.0016,0.8943,0.8463,0.7637,0.6668,0.5761,0.5486,0.507,0.4279,0.3659,0.2968,0.2054,0.1338,0.0773,0.047,-0.0838,-0.1643,-0.1811,-0.2495,-0.2522,-0.1947,-0.2321,-0.2697,-0.2667,-0.3341,-0.3843,-0.3831,-0.4394,-0.4814,-0.4877,-0.4959,-0.5073,-0.5073,-0.5293,-0.527,-0.543,-0.5778,-0.6295,-0.6647,-0.6707,-0.6815,-0.7025,-0.7262,-0.7503,-0.7557,-0.7429,-0.7166,-0.7139,-0.7106,-0.7112,-0.7025,-0.681,-0.6625,-0.6463,-0.6295,-0.6154,-0.6159,-0.6376,-0.6539,-0.662,-0.668,-0.6642,-0.6588,-0.6453,-0.6209,-0.6182,-0.6268,-0.6186,3.3819,3.3227,3.286,3.2403,3.1838,3.1298,3.0735,3.0196,2.9698,2.9185,2.86,2.8326,2.8011,2.7637,2.7139,2.6193,2.5062,2.502,2.4777,2.4271,2.4271,2.4033,2.3608,2.3422,2.307,2.2646,2.2418,2.2097,2.1621,2.1104,2.0493,1.9934,1.9872,1.9779,1.9538,1.8735,1.8025,1.7484,1.6235,1.5409,1.5062,1.442,1.3898,1.3524,1.2608,1.1702,1.0928,0.9873,0.9011,0.8322,0.7433,0.6572,0.5655,0.4893,0.4206,0.3488,0.2436,0.1658,0.1241,0.0067,-0.0704,-0.0905,-0.1876,-0.2546,-0.2681,-0.3516,-0.3832,-0.3525,-0.3594,-0.3698,-0.3743,-0.4384,-0.4848,-0.4987,-0.542,-0.5776,-0.586,-0.6092,-0.6295,-0.629,-0.6327,-0.6354,-0.6381,-0.6566,-0.6837,-0.7085,-0.7166,-0.7348,-0.7503,-0.7691,-0.7931,-0.8096,-0.799,-0.775,-0.7536,-0.7461,-0.7375,-0.7133,-0.6869,-0.6707,-0.6701,-0.6426,-0.6236,-0.6453,-0.6647,-0.681,-0.6891,-0.6918,-0.6918,-0.6864,-0.6729,-0.6512,-0.6512,-0.6453,-0.6209,3.3745,3.3162,3.3124,3.2842,3.2403,3.1851,3.1104,3.0194,2.9701,2.884,2.7801,2.7186,2.6866,2.6659,2.6069,2.5306,2.4583,2.4507,2.4507,2.4507,2.4507,2.4321,2.4064,2.3919,2.3701,2.3401,2.3225,2.3038,2.2625,2.1901,2.1259,2.0819,2.0416,2.0175,1.9961,1.8935,1.8015,1.731,1.5839,1.4863,1.4319,1.3735,1.3244,1.2901,1.2266,1.1336,1.0173,0.9475,0.87,0.7872,0.7018,0.6111,0.5225,0.4238,0.3323,0.2419,0.136,0.0504,0.0101,-0.1039,-0.1843,-0.228,-0.2947,-0.3449,-0.3685,-0.4422,-0.5024,-0.5206,-0.5149,-0.5105,-0.5016,-0.5468,-0.5906,-0.6203,-0.6569,-0.6793,-0.6777,-0.7116,-0.7235,-0.7144,-0.7046,-0.7258,-0.7349,-0.7458,-0.7579,-0.7741,-0.7824,-0.7898,-0.809,-0.8296,-0.8428,-0.8679,-0.8732,-0.8468,-0.8017,-0.791,-0.7723,-0.7563,-0.7354,-0.7268,-0.716,-0.6939,-0.6696,-0.7155,-0.7025,-0.6945,-0.6999,-0.7079,-0.7106,-0.7058,-0.695,-0.6815,-0.681,-0.6588,-0.6507,3.3614,3.3149,3.3124,3.3043,3.298,3.2373,3.1575,3.0501,3.0115,2.9098,2.7716,2.686,2.6298,2.5895,2.5812,2.5306,2.4583,2.4507,2.4507,2.4507,2.4507,2.4487,2.4478,2.4084,2.3877,2.3815,2.3443,2.3246,2.3132,2.2617,2.2211,2.168,2.0534,1.9707,1.9246,1.817,1.6973,1.6166,1.5272,1.4401,1.3359,1.2135,1.1696,1.1825,1.127,1.0355,0.9328,0.8495,0.772,0.6985,0.6104,0.5113,0.401,0.3582,0.2646,0.1105,0.0604,-0.0201,-0.1476,-0.1911,-0.2313,-0.3084,-0.3984,-0.4525,-0.4652,-0.5352,-0.6079,-0.6728,-0.6865,-0.6851,-0.6678,-0.6737,-0.705,-0.7455,-0.776,-0.7764,-0.7506,-0.7826,-0.7664,-0.7395,-0.7527,-0.7839,-0.8078,-0.8366,-0.8671,-0.8918,-0.9081,-0.9101,-0.9134,-0.9251,-0.9309,-0.9413,-0.9406,-0.9249,-0.8553,-0.8342,-0.8342,-0.8156,-0.7996,-0.8182,-0.8289,-0.8289,-0.8017,-0.7777,-0.767,-0.7482,-0.7241,-0.7112,-0.7139,-0.7112,-0.7112,-0.7025,-0.6977,-0.7052,-0.7052,3.3583,3.3124,3.3124,3.2754,3.2152,3.1901,3.0929,2.9444,2.8924,2.8099,2.7002,2.608,2.5748,2.5832,2.5547,2.5101,2.4518,2.4507,2.4507,2.4507,2.4507,2.4411,2.4315,2.4161,2.4089,2.4069,2.3925,2.3773,2.3505,2.2554,2.1919,2.156,2.0432,1.9752,1.9372,1.8177,1.718,1.6564,1.5054,1.3702,1.282,1.1434,1.0388,0.9807,0.9803,0.9334,0.828,0.7832,0.6985,0.5639,0.5047,0.4253,0.3186,0.2248,0.1039,-0.0503,-0.0939,-0.1475,-0.2444,-0.3215,-0.3754,-0.4087,-0.4921,-0.5617,-0.6042,-0.6498,-0.7022,-0.7577,-0.7902,-0.8104,-0.835,-0.8164,-0.7979,-0.8205,-0.8496,-0.8674,-0.861,-0.8847,-0.9009,-0.8852,-0.8918,-0.9105,-0.9175,-0.9467,-0.9664,-0.9785,-0.9713,-0.9688,-0.9678,-0.9609,-0.9558,-0.9595,-0.9614,-0.951,-0.9276,-0.8923,-0.8712,-0.8474,-0.8342,-0.8368,-0.8448,-0.8501,-0.8282,-0.8203,-0.815,-0.807,-0.7803,-0.7563,-0.7515,-0.7241,-0.7214,-0.7295,-0.7106,-0.7328,-0.7509,3.2959,3.2605,3.2295,3.1801,3.1169,3.1169,3.0215,2.8727,2.8364,2.7607,2.6593,2.5916,2.5761,2.5823,2.5575,2.5285,2.4941,2.4844,2.48,2.48,2.4712,2.4553,2.4344,2.429,2.4209,2.4034,2.3841,2.3713,2.3495,2.2185,2.1459,2.1244,2.0089,1.9321,1.8962,1.7719,1.6779,1.6,1.4406,1.3109,1.2162,1.0743,0.9508,0.8591,0.8248,0.7859,0.7297,0.6924,0.61,0.4782,0.4151,0.3215,0.181,0.0671,-0.057,-0.1842,-0.228,-0.2714,-0.3416,-0.422,-0.4855,-0.5315,-0.5947,-0.6601,-0.7246,-0.7502,-0.7934,-0.8458,-0.8742,-0.9102,-0.9588,-0.9454,-0.9198,-0.918,-0.9424,-0.9531,-0.9481,-0.9816,-0.9963,-0.9892,-0.9924,-0.9984,-1.0032,-1.0197,-1.0299,-1.0336,-1.0186,-1.0141,-1.0111,-0.9906,-0.9741,-0.976,-0.968,-0.9636,-0.9491,-0.929,-0.9192,-0.8975,-0.8837,-0.8758,-0.8705,-0.8732,-0.8679,-0.8633,-0.858,-0.8527,-0.8368,-0.8129,-0.7842,-0.7547,-0.7616,-0.7777,-0.7684,-0.7682,-0.7895,3.1685,3.154,3.0633,3.0398,3.025,3.025,2.9612,2.8678,2.8563,2.7804,2.6755,2.6563,2.6314,2.6055,2.5937,2.5875,2.5805,2.5589,2.5482,2.5411,2.5149,2.4836,2.4474,2.4301,2.3929,2.3493,2.3038,2.2877,2.2877,2.1612,2.0811,2.0418,1.9342,1.8437,1.7828,1.6698,1.5472,1.447,1.3462,1.2465,1.1387,0.9951,0.8891,0.8111,0.6686,0.5966,0.6271,0.5646,0.4908,0.4181,0.3349,0.1873,0.0067,-0.1039,-0.1977,-0.2813,-0.3284,-0.382,-0.4564,-0.4903,-0.5675,-0.6659,-0.7119,-0.7597,-0.817,-0.8479,-0.8836,-0.9364,-0.9542,-0.9804,-1.0371,-1.0428,-1.0396,-1.0561,-1.0413,-1.0307,-1.023,-1.0498,-1.0691,-1.0461,-1.0423,-1.0322,-1.0281,-1.057,-1.0767,-1.0697,-1.0609,-1.0587,-1.0529,-1.0309,-1.0133,-1.0053,-0.9958,-0.9877,-0.9746,-0.9603,-0.961,-0.9584,-0.9465,-0.938,-0.9309,-0.9276,-0.9152,-0.9073,-0.9021,-0.8949,-0.8665,-0.8459,-0.8443,-0.8255,-0.8298,-0.8251,-0.8232,-0.8209,-0.8352,3.2011,3.11,3.1112,3.0529,2.9709,2.9628,2.8958,2.7773,2.7715,2.7453,2.7097,2.675,2.6698,2.677,2.6563,2.6434,2.6546,2.631,2.5949,2.5498,2.5178,2.4756,2.4172,2.3535,2.2666,2.1776,2.1534,2.1515,2.1364,2.0516,1.9943,1.9634,1.8584,1.777,1.7235,1.6084,1.5,1.4055,1.2332,1.1128,1.0423,0.89,0.7655,0.6754,0.5792,0.4989,0.4301,0.3989,0.3449,0.2679,0.2009,0.0736,-0.1072,-0.2076,-0.2982,-0.3918,-0.4156,-0.4998,-0.6296,-0.665,-0.7136,-0.8171,-0.8583,-0.8911,-0.9374,-0.964,-0.9913,-1.0251,-1.0425,-1.0594,-1.0576,-1.0586,-1.0676,-1.0593,-1.0586,-1.0654,-1.0677,-1.0833,-1.0878,-1.076,-1.0881,-1.0956,-1.0984,-1.1247,-1.138,-1.1314,-1.1137,-1.0975,-1.0931,-1.0667,-1.0448,-1.0411,-1.0294,-1.0199,-1.0126,-1.0016,-0.995,-0.9841,-0.9738,-0.9629,-0.9614,-0.9588,-0.9491,-0.9439,-0.9387,-0.9292,-0.901,-0.8918,-0.8944,-0.8826,-0.8736,-0.8715,-0.8694,-0.8805,-0.9011,3.1271,3.0519,3.0249,2.967,2.8892,2.8823,2.828,2.7398,2.732,2.732,2.7237,2.7009,2.6935,2.7063,2.682,2.672,2.6736,2.6448,2.5851,2.5083,2.4826,2.4338,2.3549,2.2353,2.1446,2.0682,2.0367,2.0322,2.0305,1.9352,1.8814,1.8624,1.747,1.6557,1.6117,1.4959,1.3831,1.2696,1.126,0.9923,0.8848,0.7665,0.6422,0.5272,0.4501,0.3648,0.2688,0.2016,0.1472,0.1037,0.0268,-0.1037,-0.2449,-0.3175,-0.4011,-0.4895,-0.5544,-0.6278,-0.7448,-0.7716,-0.8427,-0.934,-0.9514,-0.9785,-1.0312,-1.0625,-1.071,-1.0982,-1.1141,-1.1341,-1.1534,-1.1582,-1.1679,-1.1961,-1.1425,-1.1185,-1.1296,-1.1334,-1.1389,-1.1399,-1.1555,-1.1756,-1.1973,-1.2166,-1.229,-1.2251,-1.192,-1.1631,-1.1511,-1.1115,-1.096,-1.0777,-1.0601,-1.0557,-1.0564,-1.0433,-1.0302,-1.0097,-0.9865,-0.9731,-0.9614,-0.9614,-0.9569,-0.9543,-0.9517,-0.9628,-0.9413,-0.9566,-0.9617,-0.9404,-0.9297,-0.9356,-0.9439,-0.9576,-0.9741,2.9742,2.9851,2.8617,2.8198,2.8046,2.8056,2.7766,2.7351,2.7272,2.7272,2.7251,2.7115,2.7051,2.689,2.6638,2.6408,2.6342,2.5742,2.4963,2.4095,2.3695,2.3178,2.2297,2.0917,2.0124,1.9931,1.9301,1.9126,1.9101,1.8002,1.7484,1.7279,1.6036,1.5064,1.4487,1.3326,1.203,1.0711,0.9958,0.8621,0.6842,0.6254,0.5292,0.3738,0.2834,0.2072,0.1266,-0.0278,-0.0944,-0.0536,-0.182,-0.295,-0.3693,-0.4375,-0.5268,-0.6073,-0.6997,-0.7649,-0.8091,-0.8609,-0.9293,-1.038,-1.0239,-1.0111,-1.1166,-1.1315,-1.1431,-1.1763,-1.188,-1.2241,-1.294,-1.3134,-1.3432,-1.3974,-1.2949,-1.2297,-1.2352,-1.2204,-1.2336,-1.2445,-1.246,-1.2653,-1.3196,-1.342,-1.3464,-1.3336,-1.2928,-1.2658,-1.2409,-1.1978,-1.1436,-1.1316,-1.1408,-1.1451,-1.1657,-1.1117,-1.0988,-1.081,-1.0401,-0.9972,-0.9731,-0.9687,-0.9621,-0.9614,-0.9687,-0.98,-0.9926,-1.0002,-1.0219,-1.0272,-1.0201,-1.0166,-1.0189,-1.0279,-1.0315,3.0457,2.949,2.9465,2.9063,2.8483,2.8431,2.7976,2.7314,2.7081,2.6986,2.6938,2.6784,2.6592,2.6496,2.5742,2.5294,2.4845,2.3989,2.3244,2.2534,2.1499,2.0748,2.0144,1.9368,1.8496,1.7807,1.7598,1.7333,1.7271,1.6294,1.5705,1.5531,1.4487,1.3649,1.3004,1.1934,1.0647,0.9067,0.7724,0.6534,0.5259,0.4547,0.381,0.2653,0.1437,0.0447,-0.0559,-0.264,-0.3443,-0.2728,-0.362,-0.4436,-0.5032,-0.6057,-0.6863,-0.739,-0.817,-0.9095,-0.983,-1.0084,-1.0673,-1.1644,-1.1642,-1.1812,-1.1852,-1.224,-1.2487,-1.277,-1.296,-1.3343,-1.3865,-1.4073,-1.4378,-1.4729,-1.4306,-1.38,-1.3752,-1.3906,-1.4003,-1.3962,-1.4025,-1.416,-1.4311,-1.4438,-1.4383,-1.4081,-1.3791,-1.3512,-1.3233,-1.2951,-1.2464,-1.2731,-1.2862,-1.2837,-1.2644,-1.2049,-1.1672,-1.1552,-1.1068,-1.0316,-1.0046,-0.9807,-0.9716,-0.9614,-0.9782,-0.9909,-1.0119,-1.0259,-1.0565,-1.0916,-1.085,-1.0667,-1.0792,-1.0872,-1.0813,3.0199,2.9591,2.9673,2.928,2.8649,2.8618,2.8051,2.7242,2.6996,2.6544,2.6139,2.5897,2.5489,2.4943,2.4187,2.3741,2.3384,2.2576,2.171,2.0641,1.9302,1.8593,1.8341,1.7927,1.7257,1.6555,1.6386,1.6143,1.5582,1.4728,1.4245,1.3702,1.2568,1.181,1.1483,0.9845,0.8601,0.7375,0.5893,0.4522,0.3481,0.264,0.1654,0.0663,-0.0457,-0.1499,-0.2782,-0.4237,-0.467,-0.4321,-0.4911,-0.5846,-0.6645,-0.7358,-0.8059,-0.8485,-0.9305,-1.0129,-1.0761,-1.1011,-1.1449,-1.2174,-1.2552,-1.2735,-1.287,-1.3307,-1.3739,-1.4143,-1.4316,-1.4726,-1.529,-1.5657,-1.5999,-1.6344,-1.6142,-1.5623,-1.4937,-1.4924,-1.5071,-1.508,-1.5145,-1.5348,-1.5519,-1.5592,-1.5383,-1.5019,-1.471,-1.4351,-1.399,-1.3774,-1.3614,-1.3757,-1.374,-1.3541,-1.327,-1.2726,-1.2305,-1.219,-1.1551,-1.0847,-1.0503,-1.0188,-1.0053,-0.9994,-1.0002,-1.0097,-1.0368,-1.0624,-1.0924,-1.1136,-1.1151,-1.1129,-1.1136,-1.118,-1.1166,2.9622,2.9953,2.9559,2.9083,2.8659,2.8547,2.7904,2.7051,2.6805,2.6091,2.5138,2.4835,2.4187,2.2835,2.2389,2.203,2.1819,2.1071,2.0028,1.8742,1.7481,1.6775,1.668,1.68,1.6306,1.5775,1.5858,1.5057,1.3939,1.3159,1.2647,1.1804,1.0255,0.9553,0.9088,0.7396,0.6127,0.5357,0.3864,0.2517,0.1423,0.0328,-0.0763,-0.1613,-0.2498,-0.3718,-0.4799,-0.559,-0.5597,-0.5226,-0.6106,-0.7118,-0.8189,-0.836,-0.8888,-0.9614,-1.0394,-1.1046,-1.1328,-1.1644,-1.1975,-1.2609,-1.307,-1.342,-1.4026,-1.4511,-1.4935,-1.5478,-1.5623,-1.6018,-1.6736,-1.7522,-1.7619,-1.7605,-1.775,-1.7188,-1.6192,-1.5743,-1.5808,-1.5984,-1.6044,-1.6302,-1.6632,-1.6794,-1.6685,-1.6135,-1.5798,-1.5495,-1.5139,-1.4845,-1.4606,-1.443,-1.4306,-1.4048,-1.3752,-1.338,-1.3053,-1.2728,-1.1986,-1.1375,-1.112,-1.0824,-1.0607,-1.0485,-1.0331,-1.047,-1.0843,-1.1092,-1.1239,-1.1342,-1.1349,-1.1261,-1.1195,-1.1269,-1.1298,2.9901,2.9984,2.988,2.9373,2.863,2.8387,2.7756,2.6835,2.641,2.5548,2.4639,2.4137,2.3226,2.2106,2.0657,1.9984,1.9854,1.8737,1.7273,1.6432,1.5977,1.4913,1.4634,1.5291,1.5357,1.4414,1.4062,1.3214,1.1886,1.0625,0.9813,0.9554,0.7858,0.654,0.6439,0.5282,0.3845,0.2853,0.1354,0.0,-0.1067,-0.2259,-0.3154,-0.3692,-0.4394,-0.5679,-0.706,-0.761,-0.8001,-0.8322,-0.8215,-0.8342,-0.8871,-0.9798,-1.0399,-1.0806,-1.1592,-1.2195,-1.2368,-1.2891,-1.3509,-1.3772,-1.4462,-1.5208,-1.5773,-1.5649,-1.5948,-1.6411,-1.662,-1.7014,-1.7592,-1.7881,-1.794,-1.7862,-1.793,-1.7794,-1.7384,-1.7283,-1.7346,-1.7389,-1.7413,-1.7547,-1.7672,-1.7646,-1.7461,-1.7178,-1.6908,-1.6664,-1.6296,-1.5904,-1.5685,-1.5427,-1.5467,-1.5331,-1.5029,-1.4543,-1.3831,-1.3363,-1.2605,-1.2139,-1.1905,-1.1359,-1.1084,-1.0827,-1.0558,-1.0836,-1.118,-1.118,-1.1261,-1.1401,-1.1556,-1.1452,-1.1401,-1.143,-1.1423,2.9994,2.9994,2.9994,2.927,2.8228,2.8127,2.7142,2.5671,2.542,2.4295,2.2835,2.2291,2.1383,1.9948,1.8833,1.83,1.795,1.6899,1.5549,1.4652,1.4206,1.3293,1.2197,1.2785,1.2956,1.1973,1.1889,1.0929,0.9414,0.8322,0.7586,0.6914,0.5386,0.4793,0.4286,0.3112,0.1908,0.0758,-0.0743,-0.2117,-0.3272,-0.4353,-0.5573,-0.6153,-0.6838,-0.7826,-0.9095,-0.9334,-0.964,-0.9915,-0.9997,-0.99,-0.9906,-1.07,-1.1341,-1.1892,-1.2342,-1.2966,-1.3324,-1.3724,-1.424,-1.494,-1.5787,-1.649,-1.7117,-1.7216,-1.7583,-1.7903,-1.8045,-1.8149,-1.8251,-1.8066,-1.7959,-1.7896,-1.793,-1.794,-1.7896,-1.793,-1.8008,-1.8008,-1.7915,-1.7993,-1.8066,-1.811,-1.7994,-1.7585,-1.7519,-1.7293,-1.701,-1.6668,-1.6738,-1.6646,-1.6778,-1.6709,-1.6419,-1.5737,-1.469,-1.4065,-1.3352,-1.3091,-1.2947,-1.2216,-1.148,-1.1263,-1.1064,-1.1114,-1.1379,-1.1342,-1.1327,-1.1467,-1.1569,-1.1584,-1.1577,-1.1525,-1.1518,2.9994,2.9994,2.9994,2.9049,2.7626,2.7722,2.6287,2.3991,2.3995,2.2835,2.0834,2.0372,1.9559,1.7918,1.7168,1.6736,1.6127,1.5288,1.4008,1.3097,1.2285,1.1254,1.0313,1.0049,0.969,0.9293,0.9478,0.8524,0.6939,0.6103,0.5053,0.4008,0.3171,0.2392,0.1955,0.0924,-0.046,-0.1627,-0.2948,-0.4026,-0.5102,-0.6218,-0.7609,-0.8732,-0.9185,-0.9802,-1.0612,-1.0897,-1.1035,-1.1095,-1.1721,-1.1853,-1.1821,-1.1671,-1.2107,-1.2915,-1.3269,-1.3697,-1.4317,-1.4628,-1.5202,-1.6085,-1.699,-1.7633,-1.8165,-1.8605,-1.8887,-1.9061,-1.9058,-1.8886,-1.8637,-1.8334,-1.8125,-1.8071,-1.8042,-1.8042,-1.8076,-1.8076,-1.811,-1.8008,-1.8076,-1.8134,-1.8236,-1.8259,-1.8178,-1.8077,-1.8029,-1.793,-1.7639,-1.7466,-1.7523,-1.756,-1.7618,-1.7532,-1.7248,-1.6805,-1.5777,-1.5231,-1.4417,-1.4205,-1.4053,-1.347,-1.2763,-1.1889,-1.1659,-1.1671,-1.1564,-1.1489,-1.1511,-1.1584,-1.1591,-1.1591,-1.1591,-1.1591,-1.1599,2.9994,2.9994,2.9994,2.8753,2.6894,2.6605,2.5173,2.3193,2.2644,2.1735,2.0475,1.9723,1.8672,1.7422,1.5977,1.5076,1.422,1.3148,1.229,1.1416,1.0337,0.9026,0.799,0.7516,0.657,0.5737,0.624,0.5821,0.4036,0.2759,0.2285,0.1224,0.0098,-0.0675,-0.1278,-0.2497,-0.3293,-0.4187,-0.5414,-0.6377,-0.7168,-0.8399,-0.9665,-1.0809,-1.1007,-1.1526,-1.212,-1.2382,-1.2654,-1.3263,-1.3457,-1.3874,-1.411,-1.3639,-1.3791,-1.4388,-1.4568,-1.4883,-1.5654,-1.6434,-1.6866,-1.7433,-1.8207,-1.8853,-1.9087,-1.919,-1.9443,-1.9385,-1.9336,-1.9141,-1.8646,-1.8594,-1.8438,-1.8335,-1.8368,-1.8368,-1.846,-1.849,-1.8418,-1.8331,-1.8286,-1.8269,-1.8371,-1.8472,-1.8452,-1.8418,-1.842,-1.84,-1.8258,-1.8195,-1.824,-1.8288,-1.8312,-1.8183,-1.7997,-1.7518,-1.6896,-1.662,-1.6011,-1.5545,-1.53,-1.4868,-1.4164,-1.3289,-1.2414,-1.2062,-1.1907,-1.1851,-1.1696,-1.1786,-1.1703,-1.1621,-1.1613,-1.1628,-1.1621,2.9049,2.8986,2.8104,2.6754,2.5292,2.4936,2.3487,2.1466,2.1221,2.0416,1.9124,1.823,1.7298,1.6246,1.5193,1.3803,1.2206,1.0941,0.9942,0.8953,0.8105,0.6866,0.5676,0.5316,0.4071,0.306,0.3133,0.3148,0.1765,0.0855,-0.005,-0.0837,-0.1923,-0.2686,-0.3349,-0.4214,-0.5353,-0.6372,-0.752,-0.8548,-0.9229,-1.0574,-1.1603,-1.2228,-1.2551,-1.2924,-1.3628,-1.4236,-1.4511,-1.4924,-1.5289,-1.5785,-1.601,-1.5939,-1.5619,-1.5948,-1.5983,-1.6287,-1.7009,-1.7697,-1.8036,-1.872,-1.9317,-1.9727,-1.992,-1.998,-1.9902,-1.992,-1.9668,-1.9568,-1.9482,-1.9236,-1.9116,-1.9143,-1.9113,-1.9138,-1.9228,-1.9228,-1.9153,-1.8958,-1.8728,-1.867,-1.8573,-1.864,-1.8707,-1.8774,-1.8808,-1.8774,-1.8785,-1.8741,-1.8707,-1.8731,-1.871,-1.855,-1.8393,-1.8095,-1.7757,-1.7549,-1.7309,-1.6855,-1.6434,-1.5928,-1.5368,-1.4672,-1.3817,-1.3228,-1.277,-1.2896,-1.2444,-1.1995,-1.1973,-1.1948,-1.1736,-1.1665,-1.1665,2.7723,2.7525,2.609,2.4694,2.3527,2.3244,2.1763,1.9812,1.9777,1.8975,1.7417,1.6717,1.5812,1.4545,1.3345,1.1949,1.0077,0.8849,0.7618,0.6822,0.5989,0.4896,0.3895,0.3169,0.2405,0.0833,0.0154,-0.0051,-0.0202,-0.0855,-0.1796,-0.2877,-0.3595,-0.4457,-0.5383,-0.6386,-0.7161,-0.8259,-0.9243,-1.045,-1.162,-1.2524,-1.3279,-1.3949,-1.413,-1.4648,-1.5215,-1.5986,-1.6292,-1.6492,-1.6801,-1.7368,-1.7765,-1.7857,-1.7747,-1.7515,-1.7401,-1.7789,-1.8322,-1.8555,-1.8966,-1.9597,-1.9923,-2.0225,-2.0429,-2.0468,-2.0537,-2.0537,-2.037,-2.0074,-1.9999,-1.9932,-1.9938,-2.0134,-2.0185,-2.0272,-2.0498,-2.0597,-2.0495,-2.0101,-1.9452,-1.9175,-1.9158,-1.8841,-1.8908,-1.8908,-1.8975,-1.8975,-1.8975,-1.8975,-1.8965,-1.8998,-1.899,-1.8833,-1.8721,-1.8649,-1.839,-1.8222,-1.7999,-1.7708,-1.7317,-1.6938,-1.6442,-1.6039,-1.5876,-1.5277,-1.4655,-1.3634,-1.2976,-1.2522,-1.2417,-1.2215,-1.1901,-1.175,-1.1738,2.6083,2.5771,2.5265,2.3974,2.2322,2.182,2.0413,1.8401,1.8076,1.7417,1.6293,1.5713,1.4378,1.2543,1.0423,0.9129,0.8045,0.6669,0.5846,0.5388,0.4121,0.293,0.2062,0.1498,0.0529,-0.0932,-0.1938,-0.2325,-0.2571,-0.2874,-0.3822,-0.5112,-0.6001,-0.6994,-0.8017,-0.8762,-1.0236,-1.1371,-1.1791,-1.2649,-1.388,-1.4433,-1.4947,-1.5692,-1.6409,-1.6935,-1.693,-1.7664,-1.8041,-1.7785,-1.7854,-1.8325,-1.8912,-1.907,-1.9524,-1.956,-1.9286,-1.8766,-1.9468,-1.9581,-1.9638,-2.0011,-2.0244,-2.0507,-2.0586,-2.0605,-2.0605,-2.0595,-2.0633,-2.059,-2.0436,-2.0474,-2.0679,-2.1043,-2.13,-2.1704,-2.2077,-2.2004,-2.1901,-2.1653,-2.1142,-2.032,-1.9931,-1.9461,-1.9075,-1.9098,-1.9108,-1.9129,-1.9098,-1.9098,-1.9098,-1.9098,-1.9098,-1.8984,-1.8942,-1.887,-1.8828,-1.8713,-1.8539,-1.8375,-1.8064,-1.7774,-1.7886,-1.7566,-1.736,-1.6523,-1.5204,-1.4153,-1.3423,-1.2946,-1.2674,-1.2346,-1.2018,-1.1926,-1.1958,2.3515,2.389,2.2617,2.1571,2.0689,1.9888,1.8692,1.7444,1.6942,1.6021,1.4615,1.3588,1.2,0.9866,0.7784,0.6795,0.619,0.4695,0.3579,0.334,0.2164,0.11,0.0163,-0.0372,-0.12,-0.2707,-0.3834,-0.4867,-0.5115,-0.5299,-0.5879,-0.6678,-0.7918,-0.8806,-0.9899,-1.0779,-1.1507,-1.2415,-1.3369,-1.4637,-1.5576,-1.6039,-1.6366,-1.6999,-1.7589,-1.8005,-1.854,-1.9207,-1.9481,-1.9268,-1.947,-1.9832,-1.9998,-2.005,-2.0284,-2.0557,-2.0256,-2.0072,-2.0255,-2.0312,-2.0302,-2.0331,-2.0488,-2.0586,-2.0605,-2.0605,-2.0683,-2.078,-2.0819,-2.0883,-2.1113,-2.1497,-2.1877,-2.2208,-2.2528,-2.2987,-2.3386,-2.3419,-2.3333,-2.3068,-2.2733,-2.1881,-2.0998,-2.0408,-1.9896,-1.9489,-1.9461,-1.9399,-1.9264,-1.9098,-1.9098,-1.9098,-1.9098,-1.9077,-1.9056,-1.9025,-1.9015,-1.893,-1.8787,-1.8632,-1.8616,-1.8523,-1.8438,-1.8279,-1.7857,-1.685,-1.558,-1.4959,-1.4473,-1.3688,-1.284,-1.2618,-1.2398,-1.2492,-1.2533,2.1283,2.1912,2.0363,1.9575,1.9352,1.8199,1.6935,1.5796,1.5417,1.4121,1.2217,1.0635,0.8882,0.7238,0.5635,0.4751,0.4583,0.2912,0.1792,0.1002,0.0276,-0.0603,-0.1517,-0.2173,-0.2983,-0.4744,-0.5447,-0.6511,-0.739,-0.7829,-0.7912,-0.7965,-0.93,-1.0337,-1.1068,-1.1994,-1.292,-1.3686,-1.5073,-1.6294,-1.7156,-1.7348,-1.7785,-1.8282,-1.8688,-1.909,-1.9754,-2.0692,-2.0917,-2.0501,-2.1005,-2.1241,-2.0997,-2.1105,-2.1115,-2.1272,-2.1036,-2.0937,-2.0848,-2.075,-2.076,-2.076,-2.0731,-2.077,-2.0693,-2.0731,-2.0982,-2.13,-2.1454,-2.1672,-2.208,-2.2713,-2.3154,-2.357,-2.4005,-2.4338,-2.4636,-2.4637,-2.4531,-2.419,-2.3814,-2.3281,-2.2427,-2.1617,-2.0887,-2.0139,-1.9865,-1.972,-1.9502,-1.9274,-1.9264,-1.9316,-1.9378,-1.9378,-1.9357,-1.9305,-1.9253,-1.9137,-1.8993,-1.8875,-1.8841,-1.8707,-1.8539,-1.8337,-1.8178,-1.7449,-1.6349,-1.5956,-1.5486,-1.4359,-1.3377,-1.3041,-1.2885,-1.2971,-1.2994,2.008,1.9903,1.9472,1.9002,1.8427,1.7277,1.547,1.3508,1.2911,1.1331,0.9102,0.7069,0.591,0.4858,0.3804,0.2914,0.2803,0.1344,0.0504,-0.0168,-0.0949,-0.2374,-0.3427,-0.4168,-0.4823,-0.6749,-0.7453,-0.8127,-0.9072,-1.0134,-1.0043,-1.0047,-1.0828,-1.1707,-1.2581,-1.3499,-1.4561,-1.5419,-1.6655,-1.7537,-1.8257,-1.8654,-1.9071,-1.9977,-2.0811,-2.1315,-2.1046,-2.2026,-2.2242,-2.1496,-2.1997,-2.216,-2.185,-2.197,-2.199,-2.1859,-2.1839,-2.1698,-2.1468,-2.1208,-2.1128,-2.1138,-2.1089,-2.1012,-2.0896,-2.1089,-2.1492,-2.2107,-2.2258,-2.2771,-2.3316,-2.3902,-2.424,-2.4576,-2.4945,-2.5335,-2.5616,-2.5849,-2.5695,-2.5346,-2.4886,-2.4365,-2.3841,-2.3028,-2.1594,-2.0764,-2.0182,-2.0027,-1.9789,-1.9592,-1.9606,-1.9637,-1.9741,-1.9772,-1.9761,-1.971,-1.9637,-1.944,-1.9248,-1.9135,-1.9042,-1.8841,-1.8607,-1.8482,-1.8245,-1.7706,-1.7251,-1.6844,-1.613,-1.4775,-1.3965,-1.3789,-1.3364,-1.3186,-1.3145,2.0094,1.962,1.8447,1.7615,1.7024,1.5494,1.3611,1.1615,1.0401,0.8649,0.6402,0.4972,0.403,0.3248,0.207,0.1345,0.112,-0.0224,-0.1231,-0.2116,-0.3047,-0.4414,-0.5498,-0.6417,-0.7223,-0.8695,-0.9361,-0.9867,-1.0612,-1.1815,-1.2446,-1.2538,-1.2581,-1.3307,-1.4232,-1.4943,-1.59,-1.6796,-1.7731,-1.8511,-1.875,-1.9467,-2.0187,-2.1275,-2.1543,-2.2259,-2.2674,-2.3159,-2.3006,-2.277,-2.2865,-2.2685,-2.2473,-2.2615,-2.2615,-2.2534,-2.2544,-2.2442,-2.2167,-2.1703,-2.1225,-2.1215,-2.1177,-2.1205,-2.1233,-2.1606,-2.2031,-2.2574,-2.3121,-2.3683,-2.3938,-2.4492,-2.4969,-2.5335,-2.5699,-2.6094,-2.6314,-2.6452,-2.6418,-2.5873,-2.5769,-2.5568,-2.504,-2.4457,-2.2836,-2.1349,-2.0828,-2.0369,-2.0151,-1.9986,-1.9975,-2.0027,-2.0141,-2.0172,-2.0172,-2.0079,-1.9986,-1.9761,-1.9502,-1.9367,-1.922,-1.8908,-1.8707,-1.8549,-1.8401,-1.7993,-1.7745,-1.7623,-1.6803,-1.5472,-1.4927,-1.4773,-1.4257,-1.3603,-1.3441,1.9835,1.9146,1.7542,1.658,1.5878,1.3874,1.1711,0.9706,0.8164,0.6234,0.408,0.3417,0.269,0.1794,0.0953,0.0,-0.0559,-0.1791,-0.2965,-0.3956,-0.4932,-0.6229,-0.7513,-0.8391,-0.8898,-1.0227,-1.0845,-1.1304,-1.2221,-1.3337,-1.3962,-1.4328,-1.4621,-1.5003,-1.5378,-1.6332,-1.7131,-1.7917,-1.8603,-1.9513,-1.9877,-2.0548,-2.1355,-2.235,-2.2624,-2.2887,-2.3434,-2.3707,-2.3612,-2.3444,-2.3385,-2.3336,-2.3195,-2.3073,-2.3176,-2.3207,-2.3227,-2.3227,-2.2898,-2.2316,-2.1521,-2.1361,-2.1769,-2.1721,-2.1852,-2.2408,-2.3095,-2.3573,-2.4047,-2.4373,-2.466,-2.5406,-2.5664,-2.5955,-2.6094,-2.6383,-2.6418,-2.6487,-2.6487,-2.6302,-2.628,-2.6084,-2.5347,-2.4707,-2.3632,-2.2091,-2.1209,-2.0798,-2.0627,-2.0483,-2.04,-2.0493,-2.0627,-2.0591,-2.0591,-2.0576,-2.0472,-2.0058,-1.981,-1.9606,-1.9427,-1.9134,-1.8812,-1.8569,-1.8421,-1.8291,-1.81,-1.7857,-1.7108,-1.6154,-1.5705,-1.5262,-1.5018,-1.4395,-1.4014,1.9011,1.8283,1.6882,1.608,1.5274,1.2434,0.987,0.7729,0.6075,0.436,0.2577,0.2243,0.1458,0.0392,-0.0112,-0.1063,-0.2125,-0.33,-0.4362,-0.5186,-0.6481,-0.7713,-0.8578,-0.9376,-1.0271,-1.1075,-1.1693,-1.2457,-1.3653,-1.425,-1.4949,-1.5805,-1.6143,-1.6237,-1.6332,-1.7419,-1.8342,-1.9055,-1.9613,-2.0737,-2.1587,-2.2041,-2.2755,-2.329,-2.3517,-2.3701,-2.3884,-2.4067,-2.3959,-2.3768,-2.4058,-2.4019,-2.3814,-2.4051,-2.4072,-2.3856,-2.3825,-2.365,-2.3276,-2.2799,-2.2377,-2.2032,-2.2514,-2.288,-2.2916,-2.3463,-2.4192,-2.4564,-2.5087,-2.5546,-2.6025,-2.6411,-2.6414,-2.6499,-2.664,-2.6813,-2.6864,-2.6876,-2.6952,-2.7014,-2.6669,-2.6248,-2.5477,-2.4718,-2.3995,-2.293,-2.1839,-2.1292,-2.1199,-2.0963,-2.0891,-2.0969,-2.1104,-2.1104,-2.1067,-2.1056,-2.0928,-2.0493,-2.0193,-2.0027,-1.9792,-1.9551,-1.9184,-1.8717,-1.869,-1.8765,-1.8424,-1.8013,-1.747,-1.6906,-1.5996,-1.5549,-1.539,-1.5232,-1.4828,1.8978,1.7851,1.6302,1.4943,1.3573,1.1042,0.8549,0.6301,0.4249,0.2745,0.1906,0.1177,0.0561,-0.028,-0.1679,-0.2685,-0.3523,-0.4698,-0.5592,-0.7127,-0.8005,-0.9417,-1.0321,-1.0802,-1.1527,-1.2501,-1.2936,-1.3258,-1.4328,-1.5159,-1.6183,-1.7077,-1.7618,-1.7707,-1.7738,-1.8342,-1.9055,-1.9786,-2.0782,-2.1854,-2.2438,-2.3018,-2.3517,-2.4024,-2.4067,-2.411,-2.4196,-2.4325,-2.4255,-2.4111,-2.4466,-2.4383,-2.4291,-2.4487,-2.4414,-2.4312,-2.4291,-2.442,-2.4433,-2.429,-2.3874,-2.3623,-2.374,-2.4092,-2.3847,-2.4432,-2.4969,-2.5431,-2.5928,-2.6288,-2.6418,-2.6866,-2.6995,-2.712,-2.7304,-2.7557,-2.767,-2.7657,-2.7682,-2.7708,-2.7521,-2.7183,-2.6559,-2.5889,-2.5104,-2.4079,-2.3014,-2.2365,-2.211,-2.1705,-2.147,-2.1507,-2.1569,-2.1569,-2.1559,-2.1455,-2.1321,-2.0959,-2.0705,-2.0555,-2.0319,-1.9997,-1.9652,-1.9213,-1.9247,-1.9249,-1.8876,-1.849,-1.8294,-1.7758,-1.6904,-1.6504,-1.6598,-1.6217,-1.5625,1.8272,1.6931,1.5386,1.3522,1.1586,0.9631,0.7221,0.4589,0.2633,0.1514,0.0784,0.0,-0.0896,-0.1847,-0.3076,-0.4474,-0.4979,-0.6202,-0.7096,-0.8673,-0.9356,-1.049,-1.1524,-1.2167,-1.2601,-1.3491,-1.3909,-1.4286,-1.5473,-1.6578,-1.7574,-1.8415,-1.9042,-1.9259,-1.9295,-1.9645,-2.0104,-2.1006,-2.212,-2.2843,-2.329,-2.3701,-2.41,-2.4239,-2.4325,-2.4378,-2.4464,-2.4507,-2.4507,-2.4507,-2.4507,-2.4507,-2.4507,-2.4507,-2.4507,-2.4497,-2.4861,-2.5208,-2.5683,-2.6336,-2.591,-2.5324,-2.5556,-2.544,-2.5295,-2.5961,-2.6238,-2.6561,-2.6768,-2.6922,-2.7102,-2.7494,-2.757,-2.7682,-2.7821,-2.8109,-2.8134,-2.8097,-2.8109,-2.816,-2.816,-2.7883,-2.7634,-2.7137,-2.6444,-2.5364,-2.4263,-2.3594,-2.2837,-2.2288,-2.188,-2.1859,-2.1818,-2.1756,-2.1735,-2.1714,-2.1569,-2.1383,-2.117,-2.0958,-2.0651,-2.0281,-1.9992,-1.977,-1.9653,-1.9524,-1.9275,-1.9017,-1.8776,-1.8437,-1.7932,-1.7725,-1.7861,-1.7251,-1.6501,1.6878,1.5675,1.4288,1.2118,0.958,0.8093,0.5426,0.2244,0.1514,0.0392,-0.0951,-0.1063,-0.2181,-0.4024,-0.4528,-0.5365,-0.6538,-0.7753,-0.8617,-0.9501,-1.0695,-1.1599,-1.2193,-1.2713,-1.3292,-1.3745,-1.4346,-1.5425,-1.6777,-1.7804,-1.8787,-1.9766,-2.0426,-2.0857,-2.1116,-2.1397,-2.168,-2.2426,-2.3028,-2.3657,-2.4057,-2.4325,-2.4411,-2.4454,-2.4464,-2.4464,-2.4507,-2.4507,-2.4507,-2.4507,-2.4507,-2.4507,-2.4507,-2.4507,-2.4507,-2.4786,-2.5421,-2.6202,-2.6977,-2.7733,-2.7965,-2.7317,-2.7212,-2.7084,-2.6979,-2.7213,-2.7358,-2.7504,-2.7673,-2.7835,-2.8034,-2.8072,-2.8122,-2.8197,-2.826,-2.8348,-2.836,-2.836,-2.836,-2.8398,-2.8423,-2.8285,-2.8111,-2.7754,-2.7027,-2.5871,-2.4703,-2.3684,-2.2958,-2.238,-2.2025,-2.1994,-2.1942,-2.1869,-2.1849,-2.1828,-2.1766,-2.1569,-2.1377,-2.1174,-2.0859,-2.0616,-2.0369,-2.0143,-1.9966,-1.9842,-1.9717,-1.9492,-1.9199,-1.8867,-1.8595,-1.8508,-1.8474,-1.8007,-1.7449,1.6477,1.5082,1.4028,1.2084,0.9283,0.534,0.2577,0.1007,0.0336,-0.0784,-0.2236,-0.313,-0.3857,-0.4526,-0.5369,-0.6649,-0.759,-0.8566,-0.9751,-1.0787,-1.1629,-1.2252,-1.2883,-1.338,-1.3826,-1.4503,-1.5338,-1.6325,-1.7658,-1.8832,-2.0431,-2.1656,-2.1902,-2.26,-2.3186,-2.3606,-2.3473,-2.3462,-2.3951,-2.4227,-2.4421,-2.4507,-2.4507,-2.4507,-2.4507,-2.4507,-2.4507,-2.4507,-2.4507,-2.4507,-2.4507,-2.4507,-2.4507,-2.454,-2.4658,-2.5463,-2.6246,-2.7098,-2.7931,-2.8343,-2.8615,-2.8963,-2.8844,-2.8424,-2.8151,-2.8014,-2.8247,-2.8335,-2.836,-2.8411,-2.8499,-2.8561,-2.8649,-2.8737,-2.8837,-2.8976,-2.8988,-2.8988,-2.8988,-2.8988,-2.9001,-2.8875,-2.8687,-2.8049,-2.727,-2.6173,-2.5086,-2.407,-2.3221,-2.2647,-2.2211,-2.218,-2.2128,-2.2066,-2.1901,-2.1838,-2.1818,-2.1718,-2.1614,-2.1487,-2.1184,-2.0974,-2.0733,-2.0521,-2.0281,-2.0282,-2.0321,-2.0038,-1.9639,-1.9512,-1.9282,-1.9182,-1.901,-1.8596,-1.8508,1.606,1.4702,1.3684,1.112,0.7207,0.3104,0.0387,-0.1051,-0.1393,-0.2348,-0.3745,-0.4474,-0.5142,-0.581,-0.6818,-0.7814,-0.8634,-0.981,-1.0874,-1.1464,-1.2235,-1.2939,-1.3563,-1.3952,-1.4419,-1.5178,-1.6068,-1.6943,-1.8427,-2.0364,-2.2082,-2.2715,-2.3257,-2.4144,-2.4719,-2.4864,-2.4847,-2.4672,-2.4628,-2.465,-2.458,-2.4518,-2.4507,-2.4507,-2.4507,-2.4507,-2.4507,-2.4507,-2.4507,-2.4507,-2.4507,-2.47,-2.4988,-2.5316,-2.5966,-2.6812,-2.7342,-2.8131,-2.8831,-2.9,-2.9339,-2.9624,-2.9779,-2.9402,-2.9101,-2.89,-2.8925,-2.8938,-2.8863,-2.885,-2.8938,-2.9038,-2.9164,-2.9277,-2.9503,-2.9729,-2.9741,-2.9741,-2.9729,-2.9716,-2.9641,-2.9503,-2.9083,-2.8368,-2.7573,-2.6602,-2.5649,-2.4667,-2.3847,-2.3222,-2.2687,-2.2408,-2.2356,-2.2294,-2.2118,-2.1994,-2.2056,-2.2108,-2.2118,-2.1922,-2.1592,-2.1227,-2.0903,-2.071,-2.0556,-2.0556,-2.0507,-2.041,-2.0117,-1.9961,-1.9795,-1.9668,-1.9531,-1.938,-1.9471,1.5543,1.4421,1.2935,0.9143,0.4183,0.125,-0.1413,-0.3811,-0.354,-0.4188,-0.5367,-0.5539,-0.6204,-0.7204,-0.8149,-0.8896,-0.9828,-1.0977,-1.1654,-1.2216,-1.2939,-1.3596,-1.3857,-1.4279,-1.5013,-1.5825,-1.673,-1.7734,-1.9386,-2.1096,-2.2494,-2.3347,-2.4622,-2.534,-2.5418,-2.5732,-2.5704,-2.5513,-2.5269,-2.5075,-2.4693,-2.4559,-2.4507,-2.4507,-2.4507,-2.4507,-2.4507,-2.4497,-2.454,-2.4583,-2.4743,-2.5094,-2.5841,-2.6659,-2.7557,-2.8091,-2.8371,-2.887,-2.9378,-2.9546,-2.9624,-2.974,-2.9779,-2.9691,-2.9515,-2.944,-2.9402,-2.939,-2.9327,-2.9327,-2.9402,-2.9428,-2.9515,-2.9553,-2.9679,-2.9779,-2.9779,-2.9779,-2.9779,-2.9779,-2.9767,-2.9628,-2.9409,-2.8665,-2.758,-2.6846,-2.5812,-2.4858,-2.4419,-2.3763,-2.3298,-2.2832,-2.2842,-2.278,-2.2418,-2.2335,-2.2387,-2.2439,-2.2408,-2.2107,-2.1621,-2.1306,-2.1061,-2.0809,-2.0615,-2.0615,-2.0566,-2.0488,-2.0361,-2.0205,-2.0078,-2.0049,-1.998,-1.9932,-2.0049,1.4905,1.3883,0.9812,0.6361,0.3409,-0.0586,-0.2992,-0.439,-0.561,-0.6241,-0.6695,-0.6869,-0.7313,-0.8352,-0.8899,-0.973,-1.1215,-1.1693,-1.2328,-1.2935,-1.3612,-1.3958,-1.4328,-1.506,-1.5758,-1.6379,-1.7283,-1.8652,-2.0436,-2.181,-2.3098,-2.4697,-2.5662,-2.5889,-2.5921,-2.6227,-2.6273,-2.6096,-2.5668,-2.5451,-2.5192,-2.4704,-2.4507,-2.4518,-2.4571,-2.4614,-2.4646,-2.4625,-2.4988,-2.5306,-2.5463,-2.5955,-2.673,-2.7678,-2.8211,-2.8542,-2.9079,-2.9456,-2.9663,-2.9779,-2.9779,-2.9779,-2.9779,-2.9779,-2.9767,-2.9779,-2.9779,-2.9779,-2.9779,-2.9779,-2.9779,-2.9779,-2.9779,-2.9779,-2.9779,-2.9779,-2.9779,-2.9779,-2.9779,-2.9779,-2.9779,-2.9663,-2.9468,-2.8764,-2.7689,-2.6554,-2.5378,-2.4586,-2.4639,-2.423,-2.3971,-2.3608,-2.3557,-2.3401,-2.2936,-2.2697,-2.276,-2.2542,-2.2408,-2.2076,-2.1659,-2.1448,-2.1233,-2.0849,-2.0615,-2.0742,-2.0781,-2.0615,-2.0478,-2.0371,-2.04,-2.0391,-2.0459,-2.0439,-2.0518,1.4325,1.2956,0.848,0.5083,0.2478,-0.1418,-0.3831,-0.512,-0.6422,-0.7311,-0.7711,-0.7862,-0.8221,-0.9145,-0.9798,-1.0568,-1.1987,-1.2388,-1.3,-1.3651,-1.4105,-1.4516,-1.5089,-1.5812,-1.6285,-1.6904,-1.8125,-1.9592,-2.1176,-2.2565,-2.3809,-2.5102,-2.5799,-2.6364,-2.6407,-2.6604,-2.6584,-2.6542,-2.5947,-2.5709,-2.5637,-2.5357,-2.4962,-2.4954,-2.5111,-2.5156,-2.5295,-2.5348,-2.5924,-2.6453,-2.6771,-2.7139,-2.7839,-2.8593,-2.9013,-2.9209,-2.9495,-2.9779,-2.9779,-2.9779,-2.9779,-2.9779,-2.9779,-2.9779,-2.9779,-2.9779,-2.9779,-2.9779,-2.9779,-2.9779,-2.9779,-2.9779,-2.9779,-2.9779,-2.9779,-2.9779,-2.9779,-2.9779,-2.9779,-2.9779,-2.9779,-2.974,-2.9495,-2.8961,-2.8011,-2.7557,-2.6205,-2.5052,-2.4935,-2.4625,-2.4364,-2.4177,-2.4064,-2.3722,-2.3163,-2.306,-2.3163,-2.2863,-2.2522,-2.2109,-2.1793,-2.165,-2.1451,-2.1125,-2.0997,-2.1084,-2.1055,-2.0908,-2.0703,-2.0566,-2.0625,-2.0732,-2.0801,-2.0791,-2.0752,1.345,1.1676,0.7757,0.4403,0.147,-0.1766,-0.4138,-0.5723,-0.6783,-0.763,-0.8411,-0.886,-0.9005,-0.9781,-1.0947,-1.1608,-1.2355,-1.3287,-1.3928,-1.427,-1.4636,-1.5423,-1.6069,-1.652,-1.7037,-1.7777,-1.8858,-1.9833,-2.0989,-2.2592,-2.4042,-2.4965,-2.5834,-2.6708,-2.6812,-2.6781,-2.6521,-2.6455,-2.6196,-2.602,-2.603,-2.6065,-2.5571,-2.5607,-2.5915,-2.6192,-2.6285,-2.6524,-2.7028,-2.7597,-2.8051,-2.8422,-2.8712,-2.9248,-2.9456,-2.9663,-2.9663,-2.9779,-2.9779,-2.9779,-2.9779,-2.9779,-2.9779,-2.9779,-2.9779,-2.9779,-2.9779,-2.9779,-2.9779,-2.9779,-2.9779,-2.9779,-2.9779,-2.9779,-2.9779,-2.9779,-2.9779,-2.9779,-2.9779,-2.9779,-2.9779,-2.9779,-2.9456,-2.8961,-2.8422,-2.8051,-2.7313,-2.6359,-2.5495,-2.4903,-2.4467,-2.4321,-2.426,-2.3857,-2.3494,-2.3412,-2.3515,-2.3359,-2.2987,-2.2377,-2.1946,-2.199,-2.1859,-2.1557,-2.1466,-2.1494,-2.1455,-2.1338,-2.1074,-2.083,-2.1065,-2.1143,-2.0732,-2.0732,-2.0762,1.1572,0.906,0.6154,0.3296,0.0311,-0.2688,-0.4705,-0.5901,-0.7331,-0.8173,-0.8838,-1.0266,-1.1019,-1.1132,-1.1643,-1.2306,-1.3084,-1.41,-1.4607,-1.4923,-1.5933,-1.685,-1.7404,-1.7591,-1.8017,-1.875,-1.9654,-2.0785,-2.1799,-2.329,-2.4404,-2.518,-2.6074,-2.6165,-2.5285,-2.5544,-2.6206,-2.6283,-2.6499,-2.6399,-2.6114,-2.6009,-2.5654,-2.5712,-2.5999,-2.6401,-2.67,-2.6987,-2.7557,-2.8251,-2.8922,-2.9339,-2.9507,-2.9624,-2.974,-2.9779,-2.9779,-2.9779,-2.9779,-2.9779,-2.9779,-2.9779,-2.9779,-2.9779,-2.9779,-2.9779,-2.9779,-2.9779,-2.9779,-2.9779,-2.9779,-2.9779,-2.9779,-2.9779,-2.9779,-2.9779,-2.9779,-2.9779,-2.9779,-2.9779,-2.9779,-2.9779,-2.9702,-2.904,-2.8211,-2.7678,-2.6771,-2.5861,-2.5253,-2.4861,-2.4507,-2.4435,-2.4363,-2.4404,-2.4249,-2.3857,-2.3805,-2.3691,-2.3402,-2.2737,-2.2413,-2.2443,-2.2259,-2.1961,-2.1858,-2.1865,-2.1807,-2.1758,-2.1514,-2.1318,-2.1603,-2.1613,-2.1064,-2.085,-2.1035]},{"header":{"parameterUnit":"m.s-1","parameterCategory":1,"la1":31.0,"la2":29.5877,"lo1":-88.7671,"lo2":-86.6584,"dy":0.0162,"dx":0.0185,"nx":115,"ny":88,"refTime":"2023-11-09T06:00:00:Z","depth":0,"parameterNumber":3,"parameterNumberName":"V-component_of_WINDS"},"data":[0.0,0.0,0.0,0.0,0.0,0.0,0.0,0.0,0.0,0.0,0.0,0.0,0.0,0.0,0.0,0.0,0.0,0.0,0.0,0.0,0.0,0.0,0.0,0.0,0.0,0.0,0.0,0.0,0.0,0.0,0.0,0.0,0.0,0.0,0.0,0.0,0.0,0.0,0.0,0.0,0.0,0.0,0.0,0.0,0.0,0.0,0.0,0.0,0.0,0.0,0.0,0.0,0.0,0.0,0.0,0.0,0.0,0.0,0.0,0.0,0.0,0.0,0.0,0.0,0.0,0.0,0.0,0.0,0.0,0.0,0.0,0.0,0.0,0.0,0.0,0.0,0.0,0.0,0.0,0.0,0.0,0.0,0.0,0.0,0.0,0.0,0.0,0.0,0.0,0.0,0.0,0.0,0.0,0.0,0.0,0.0,0.0,0.0,0.0,0.0,0.0,0.0,0.0,0.0,0.0,0.0,0.0,0.0,0.0,0.0,0.0,0.0,0.0,0.0,0.0,0.0,0.0,0.0,0.0,0.0,0.0,0.0,0.0,0.0,0.0,0.0,0.0,0.0,0.0,0.0,0.0,0.0,0.0,0.0,0.0,0.0,0.0,0.0,0.0,0.0,0.0,0.0,0.0,0.0,0.0,0.0,0.0,0.0,0.0,0.0,0.0,0.0,0.0,0.0,0.0,0.0,0.0,0.0,0.0,0.0,0.0,0.0,0.0,0.0,0.0,0.0,0.0,0.0,0.0,0.0,0.0,0.0,0.0,0.0,0.0,0.0,0.0,0.0,0.0,0.0,0.0,0.0,0.0,0.0,0.0,0.0,0.0,0.0,0.0,0.0,0.0,0.0,0.0,0.0,0.0,0.0,0.0,0.0,0.0,0.0,0.0,0.0,0.0,0.0,0.0,0.0,0.0,0.0,0.0,0.0,0.0,0.0,0.0,0.0,0.0,0.0,0.0,0.0,0.0,0.0,0.0,0.0,0.0,0.0,0.0,0.0,0.0,0.0,0.0,0.0,0.0,0.0,0.0,0.0,0.0,0.0,0.0,0.0,0.0,0.0,0.0,0.0,0.0,0.0,0.0,0.0,0.0,0.0,0.0,0.0,0.0,0.0,0.0,0.0,0.0,0.0,0.0,0.0,0.0,0.0,0.0,0.0,0.0,0.0,0.0,0.0,0.0,0.0,0.0,0.0,0.0,0.0,0.0,0.0,0.0,0.0,0.0,0.0,0.0,0.0,0.0,0.0,0.0,0.0,0.0,0.0,0.0,0.0,0.0,0.0,0.0,0.0,0.0,0.0,0.0,0.0,0.0,0.0,0.0,0.0,0.0,0.0,0.0,0.0,0.0,0.0,0.0,0.0,0.0,0.0,0.0,0.0,0.0,0.0,0.0,0.0,0.0,0.0,0.0,0.0,0.0,0.0,0.0,0.0,0.0,0.0,0.0,0.0,0.0,0.0,0.0,0.0,0.0,0.0,0.0,0.0,0.0,0.0,0.0,0.0,0.0,0.0,0.0,0.0,0.0,0.0,0.0,0.0,0.0,0.0,0.0,0.0,0.0,0.0,0.0,0.0,0.0,0.0,0.0,0.0,0.0,0.0,0.0,0.0,0.0,0.0,0.0,0.0,0.0,0.0,0.0,0.0,0.0,0.0,0.0,0.0,0.0,0.0,0.0,0.0,0.0,0.0,0.0,0.0,0.0,0.0,0.0,0.0,0.0,0.0,0.0,0.0,0.0,0.0,0.0,0.0,0.0,0.0,0.0,0.0,0.0,0.0,0.0,0.0,0.0,0.0,0.0,0.0,0.0,0.0,0.0,0.0,0.0,0.0,0.0,0.0,0.0,0.0,0.0,0.0,0.0,0.0,0.0,0.0,0.0,0.0,0.0,0.0,0.0,0.0,0.0,0.0,0.0,0.0,0.0,0.0,0.0,0.0,0.0,0.0,0.0,0.0,0.0,0.0,0.0,0.0,0.0,0.0,0.0,0.0,0.0,0.0,0.0,0.0,0.0,0.0,0.0,0.0,0.0,0.0,0.0,0.0,0.0,0.0,0.0,0.0,0.0,0.0,0.0,0.0,0.0,0.0,0.0,0.0,0.0,0.0,0.0,0.0,0.0,0.0,0.0,0.0,0.0,0.0,0.0,0.0,0.0,0.0,0.0,0.0,0.0,0.0,0.0,0.0,0.0,0.0,0.0,0.0,0.0,0.0,0.0,0.0,0.0,0.0,0.0,0.0,0.0,0.0,0.0,0.0,0.0,0.0,0.0,0.0,0.0,0.0,0.0,0.0,0.0,0.0,0.0,0.0,0.0,0.0,0.0,0.0,0.0,0.0,0.0,0.0,0.0,0.0,0.0,0.0,0.0,0.0,0.0,0.0,0.0,0.0,0.0,0.0,0.0,0.0,0.0,0.0,0.0,0.0,0.0,0.0,0.0,0.0,0.0,0.0,0.0,0.0,0.0,0.0,0.0,0.0,0.0,0.0,0.0,0.0,0.0,0.0,0.0,0.0,0.0,0.0,0.0,0.0,0.0,0.0,0.0,0.0,0.0,0.0,0.0,0.0,0.0,0.0,0.0,0.0,0.0,0.0,0.0,0.0,0.0,0.0,0.0,0.0,0.0,0.0,0.0,0.0,0.0,0.0,0.0,0.0,0.0,0.0,0.0,0.0,0.0,0.0,0.0,0.0,0.0,0.0,0.0,0.0,0.0,0.0,0.0,0.0,0.0,0.0,0.0,0.0,0.0,0.0,0.0,0.0,0.0,0.0,0.0,0.0,0.0,0.0,0.0,0.0,0.0,0.0,0.0,0.0,0.0,0.0,0.0,0.0,0.0,0.0,0.0,0.0,0.0,0.0,0.0,0.0,0.0,0.0,0.0,0.0,0.0,0.0,0.0,0.0,0.0,0.0,0.0,0.0,0.0,0.0,0.0,0.0,0.0,0.0,0.0,0.0,0.0,0.0,0.0,0.0,0.0,0.0,0.0,0.0,0.0,0.0,0.0,0.0,0.0,0.0,0.0,0.0,0.0,0.0,0.0,0.0,0.0,0.0,0.0,0.0,0.0,0.0,0.0,0.0,0.0,0.0,0.0,0.0,0.0,0.0,0.0,0.0,0.0,0.0,0.0,0.0,0.0,0.0,0.0,0.0,0.0,0.0,0.0,0.0,0.0,0.0,0.0,0.0,0.0,0.0,0.0,0.0,0.0,0.0,0.0,0.0,0.0,0.0,0.0,0.0,0.0,0.0,0.0,0.0,0.0,0.0,0.0,0.0,0.0,0.0,0.0,0.0,0.0,0.0,0.0,0.0,0.0,0.0,0.0,0.0,0.0,0.0,0.0,0.0,0.0,0.0,0.0,0.0,0.0,0.0,0.0,0.0,0.0,0.0,0.0,0.0,0.0,0.0,0.0,0.0,0.0,0.0,0.0,0.0,0.0,0.0,0.0,0.0,0.0,0.0,0.0,0.0,0.0,0.0,0.0,0.0,0.0,0.0,0.0,0.0,0.0,0.0,0.0,0.0,0.0,0.0,0.0,0.0,0.0,0.0,0.0,0.0,0.0,0.0,0.0,0.0,0.0,0.0,0.0,0.0,0.0,0.0,0.0,0.0,0.0,0.0,0.0,0.0,0.0,0.0,0.0,0.0,0.0,0.0,0.0,0.0,0.0,0.0,0.0,0.0,0.0,0.0,0.0,0.0,0.0,0.0,0.0,0.0,0.0,0.0,0.0,0.0,0.0,0.0,0.0,0.0,0.0,0.0,0.0,0.0,0.0,0.0,0.0,0.0,0.0,0.0,0.0,0.0,0.0,0.0,0.0,0.0,0.0,0.0,0.0,0.0,0.0,0.0,0.0,0.0,0.0,0.0,0.0,0.0,0.0,0.0,0.0,0.0,0.0,0.0,0.0,0.0,0.0,0.0,0.0,0.0,0.0,0.0,0.0,0.0,0.0,0.0,0.0,0.0,0.0,0.0,0.0,0.0,0.0,0.0,0.0,0.0,0.0,0.0,0.0,0.0,0.0,0.0,0.0,0.0,0.0,0.0,0.0,0.0,0.0,0.0,0.0,0.0,0.0,0.0,0.0,0.0,0.0,0.0,0.0,0.0,0.0,0.0,0.0,0.0,0.0,0.0,0.0,0.0,0.0,0.0,0.0,0.0,0.0,0.0,0.0,0.0,0.0,0.0,0.0,0.0,0.0,0.0,0.0,0.0,0.0,0.0,0.0,0.0,0.0,0.0,0.0,0.0,0.0,0.0,0.0,0.0,0.0,0.0,1.0322,0.0,0.0,0.0,0.0,0.0,0.0,0.0,0.0,0.0,0.0,0.0,0.0,0.0,0.0,0.0,0.0,0.0,0.0,0.0,0.0,0.0,0.0,0.0,0.0,0.0,0.0,0.0,0.0,0.0,0.0,0.0,0.0,0.0,0.0,0.0,0.0,0.0,0.0,0.0,0.0,0.0,0.0,0.0,0.0,0.0,0.0,0.0,0.0,0.0,0.0,0.0,0.0,0.0,0.0,0.0,0.0,0.0,0.0,0.0,0.0,0.0,0.0,0.0,0.0,0.0,0.0,0.0,0.0,0.0,0.0,0.0,0.0,0.0,0.0,0.0,0.0,0.0,0.0,0.0,0.0,0.0,0.0,0.0,0.0,0.0,0.0,0.0,0.0,0.0,0.0,0.0,0.0,0.0,0.0,0.0,0.0,0.0,0.0,0.0,0.0,0.0,0.0,0.0,0.0,0.0,0.0,0.0,0.0,0.0,0.0,1.0322,1.0322,1.0322,1.0322,1.0312,0.0,0.0,0.0,0.0,0.0,0.0,0.0,0.0,0.0,0.0,0.0,0.0,0.0,0.0,0.0,0.0,0.0,0.0,0.0,0.0,0.0,0.0,0.0,0.0,0.0,0.0,0.0,0.0,0.0,0.0,0.0,0.0,0.0,0.0,0.0,0.0,0.0,0.0,0.0,0.0,0.0,0.0,0.0,0.0,0.0,0.0,0.0,0.0,0.0,0.0,0.0,0.0,0.0,0.0,0.0,0.0,0.0,0.0,0.0,0.0,0.0,0.0,0.0,0.0,0.0,0.0,0.0,0.0,0.0,0.0,0.0,0.0,0.0,0.0,0.0,0.0,0.0,0.0,0.0,0.0,0.0,0.0,0.0,0.0,0.0,0.0,0.0,0.0,0.0,0.0,0.0,0.0,0.0,0.0,0.0,0.0,0.0,0.0,0.0,0.0,0.0,0.0,0.0,0.0,0.0,0.0,0.0,0.0,0.0,0.0,0.0,0.0,1.0723,1.0743,1.0783,0.0,0.0,0.0,0.0,0.0,0.0,0.0,0.0,0.0,0.0,0.0,0.0,0.0,0.0,0.0,0.0,0.0,0.0,0.0,0.0,0.0,0.0,0.0,0.0,0.0,0.0,0.0,0.0,0.0,0.0,0.0,0.0,0.0,0.0,0.0,0.0,0.0,0.0,0.0,0.0,0.0,0.0,0.0,0.0,0.0,0.0,0.0,0.0,0.0,0.0,0.0,0.0,0.0,0.0,0.0,0.0,0.0,0.0,0.0,0.0,0.0,0.0,0.0,0.0,0.0,0.0,0.0,0.0,0.0,0.0,0.0,0.0,0.0,0.0,0.0,0.0,0.0,0.0,0.0,0.0,0.0,0.0,0.0,0.0,0.0,0.0,0.0,0.0,0.0,0.0,0.0,0.0,0.0,0.0,0.0,0.0,0.0,0.0,0.0,0.0,0.0,0.0,0.0,0.0,0.0,0.0,0.0,0.0,0.0,0.0,1.085,1.1989,1.2018,0.0,1.2187,0.0,0.0,0.0,0.0,0.0,0.0,0.0,0.0,0.0,0.0,0.0,0.0,0.0,0.0,0.0,0.0,0.0,0.0,0.0,0.0,0.0,0.0,0.0,0.0,0.0,0.0,0.0,0.0,0.0,0.0,0.0,0.0,0.0,0.0,0.0,0.0,0.0,0.0,0.0,0.0,0.0,0.0,0.0,0.0,0.0,0.0,0.0,0.0,0.0,0.0,0.0,0.0,0.0,0.0,0.0,0.0,0.0,0.0,0.0,0.0,0.0,0.0,0.0,0.0,0.0,0.0,0.0,0.0,0.0,0.0,0.0,0.0,0.0,0.0,0.0,0.0,0.0,0.0,0.0,0.0,0.0,0.0,0.0,0.0,0.0,0.0,0.0,0.0,0.0,0.0,0.0,0.0,0.0,0.0,0.0,0.0,0.0,0.0,0.0,0.0,0.0,0.0,0.0,0.0,0.0,0.0,0.0,0.0,0.0,0.0,1.1035,1.1816,1.189,1.1817,0.0,0.0,0.0,0.0,0.0,0.0,0.0,0.0,0.0,0.0,0.0,0.0,0.0,0.0,0.0,0.0,0.0,0.0,0.0,0.0,0.0,0.0,0.0,0.0,0.0,0.0,0.0,0.0,0.0,0.0,0.0,0.0,0.0,0.0,0.0,0.0,0.0,0.0,0.0,0.0,0.0,0.0,0.0,0.0,0.0,0.0,0.0,0.0,0.0,0.0,0.0,0.0,0.0,0.0,0.0,0.0,0.0,0.0,0.0,0.0,0.0,0.0,0.0,0.0,0.0,0.0,0.0,0.0,0.0,0.0,0.0,0.0,0.0,0.0,0.0,0.0,0.0,0.0,0.0,0.0,0.0,0.0,0.0,0.0,0.0,0.0,0.0,0.0,0.0,0.0,0.0,0.0,0.0,0.0,0.0,0.0,0.0,0.0,0.0,0.0,0.0,0.0,0.0,0.0,0.0,0.0,0.0,0.0,0.0,0.0,1.0898,1.1113,1.1888,1.1854,1.1679,1.1502,0.0,0.0,0.0,0.0,0.0,0.0,0.0,0.0,0.0,0.0,0.0,0.0,0.0,0.0,0.0,0.0,0.0,0.0,0.0,0.0,0.0,0.0,0.0,0.0,0.0,0.0,0.0,0.0,0.0,0.0,0.0,0.0,0.0,0.0,0.0,0.0,0.0,0.0,0.0,0.0,0.0,0.0,0.0,0.0,0.0,0.0,0.0,0.0,0.0,0.0,0.0,0.0,0.0,0.0,0.0,0.0,0.0,0.0,0.0,0.0,0.0,0.0,0.0,0.0,0.0,0.0,0.0,0.0,0.0,0.0,0.0,0.0,0.0,0.0,0.0,0.0,0.0,0.0,0.0,0.0,0.0,0.0,0.0,0.0,0.0,0.0,0.0,0.0,0.0,0.0,0.0,0.0,0.0,0.0,0.0,0.0,0.0,0.0,0.0,0.0,0.0,0.0,0.0,0.0,0.0,0.0,0.0,0.0,1.3125,1.1348,1.1134,1.2719,1.2283,1.2123,0.0,0.0,0.0,0.0,0.0,0.0,0.0,0.0,0.0,0.0,0.0,0.0,0.0,0.0,0.0,0.0,0.0,0.0,0.0,0.0,0.0,0.0,0.0,0.0,0.0,0.0,0.0,0.0,0.0,0.0,0.0,0.0,0.0,0.0,0.0,0.0,0.0,0.0,0.0,0.0,0.0,0.0,0.0,0.0,0.0,0.0,0.0,0.0,0.0,0.0,0.0,0.0,0.0,0.0,0.0,0.0,0.0,0.0,0.0,0.0,0.0,0.0,0.0,0.0,0.0,0.0,0.0,0.0,0.0,0.0,0.0,0.0,0.0,0.0,0.0,0.0,0.0,0.0,0.0,0.0,0.0,0.0,0.0,0.0,0.0,0.0,0.0,0.0,0.0,0.0,0.0,0.0,0.0,0.0,0.0,0.0,0.0,0.0,0.0,0.0,0.0,0.0,0.0,0.0,0.0,0.0,0.0,0.0,0.0,1.0927,1.0537,1.086,1.1966,1.1443,1.1348,0.0,0.0,0.0,0.0,0.0,0.0,0.0,0.0,0.0,0.0,0.0,0.0,0.0,0.0,0.0,0.0,0.0,0.0,0.0,0.0,0.0,0.0,0.0,0.0,0.0,0.0,0.0,0.0,0.0,0.0,0.0,0.0,0.0,0.0,0.0,0.0,0.0,0.0,0.0,0.0,0.0,0.0,0.0,0.0,0.0,0.0,0.0,0.0,0.0,0.0,0.0,0.0,0.0,0.0,0.0,0.0,0.0,0.0,0.0,0.0,0.0,0.0,0.0,0.0,0.0,0.0,0.0,0.0,0.0,0.0,0.0,0.0,0.0,0.0,0.0,0.0,0.0,0.0,0.0,0.0,0.0,0.0,0.0,0.0,0.0,0.0,0.0,0.0,0.0,0.0,0.0,0.0,0.0,0.0,0.0,0.0,0.0,0.0,0.0,0.0,0.0,0.0,0.0,0.0,0.0,0.0,0.0,0.0,0.0,1.0021,0.0,1.1222,1.1361,1.1014,1.086,0.0,0.0,0.0,0.0,0.0,0.0,0.0,0.0,0.0,0.0,0.0,0.0,0.0,0.0,0.0,0.0,0.0,0.0,0.0,0.0,0.0,0.0,0.0,0.0,0.0,0.0,0.0,0.0,0.0,0.0,0.0,0.0,0.0,0.0,0.0,0.0,0.0,0.0,0.0,0.0,0.0,0.0,0.0,0.0,0.0,0.0,0.0,0.0,0.0,0.0,0.0,0.0,0.0,0.0,0.0,0.0,0.0,0.0,0.0,0.0,0.0,0.0,0.0,0.0,0.0,0.0,0.0,0.0,0.0,0.0,0.0,0.0,0.0,0.0,0.0,0.0,0.0,0.0,0.0,0.0,0.0,0.0,0.0,0.0,0.0,0.0,0.0,0.0,0.0,0.0,0.0,0.0,0.0,0.0,0.0,0.0,0.0,0.0,0.0,0.0,0.0,0.0,0.0,0.0,0.0,0.0,0.0,0.0,1.0021,1.0869,1.208,1.2122,1.1078,1.1094,1.0745,0.0,0.0,0.0,0.0,0.0,0.0,0.0,0.0,0.0,0.0,0.0,0.0,0.0,0.0,0.0,0.0,0.0,0.0,0.0,0.0,0.0,0.0,0.0,0.0,0.0,0.0,0.0,0.0,0.0,0.0,0.0,0.0,0.0,0.0,0.0,0.0,0.0,0.0,0.0,0.0,0.0,0.0,0.0,0.0,0.0,0.0,0.0,0.0,0.0,0.0,0.0,0.0,0.0,0.0,0.0,0.0,0.0,0.0,0.0,0.0,0.0,0.0,0.0,0.0,0.0,0.0,0.0,0.0,0.0,0.0,0.0,0.0,0.0,0.0,0.0,0.0,0.0,0.0,0.0,0.0,0.0,0.0,0.0,0.0,0.0,0.0,0.0,0.0,0.0,0.0,0.0,0.0,0.0,0.0,0.0,0.0,0.0,0.0,0.0,0.0,0.0,0.0,0.0,0.0,0.0,0.0,0.0,0.0,0.0,1.003,1.041,1.1057,1.1863,1.0875,1.0858,0.0,0.0,0.0,0.0,0.0,0.0,0.0,0.0,0.0,0.0,0.0,0.0,0.0,0.0,0.0,0.0,0.0,0.0,0.0,0.0,0.0,0.0,0.0,0.0,0.0,0.0,0.0,0.0,0.0,0.0,0.0,0.0,0.0,0.0,0.0,0.0,0.0,0.0,0.0,0.0,0.0,0.0,0.0,0.0,0.0,0.0,0.0,0.0,0.0,0.0,0.0,0.0,0.0,0.0,0.0,0.0,0.0,0.0,0.0,0.0,0.0,0.0,0.0,0.0,0.0,0.0,0.0,0.0,0.0,0.0,0.0,0.0,0.0,0.0,0.0,0.0,0.0,0.0,0.0,0.0,0.0,0.0,0.0,0.0,0.0,0.0,0.0,0.0,0.0,0.0,0.0,0.0,0.0,0.0,0.0,0.0,0.0,0.0,0.0,0.0,0.0,0.0,0.0,0.0,0.0,0.0,0.0,0.0,0.0,1.1798,1.1356,1.1543,1.2407,1.1474,1.1376,1.2326,0.0,0.0,0.0,0.0,0.0,0.0,0.0,0.0,0.0,0.0,0.0,0.0,0.0,0.0,0.0,0.0,0.0,0.0,0.0,0.0,0.0,0.0,0.0,0.0,0.0,0.0,0.0,0.0,0.0,0.0,0.0,0.0,0.0,0.0,0.0,0.0,0.0,0.0,0.0,0.0,0.0,0.0,0.0,0.0,0.0,0.0,0.0,0.0,0.0,0.0,0.0,0.0,0.0,0.0,0.0,0.0,0.0,0.0,0.0,0.0,0.0,0.0,0.0,0.0,0.0,0.0,0.0,0.0,0.0,0.0,0.0,0.0,0.0,0.0,0.0,0.0,0.0,0.0,0.0,0.0,0.0,0.0,0.0,0.0,0.0,0.0,0.0,0.0,0.0,0.0,0.0,0.0,0.0,0.0,0.0,0.0,0.0,0.0,0.0,0.0,0.0,0.0,0.0,0.0,0.0,0.0,0.0,0.0,1.5553,1.4487,1.3551,1.2832,1.2774,1.2366,0.0,0.0,0.0,0.0,0.0,0.0,0.0,0.0,0.0,0.0,0.0,0.0,0.0,0.0,0.0,0.0,0.0,0.0,0.0,0.0,0.0,0.0,0.0,0.0,0.0,0.0,0.0,0.0,0.0,0.0,0.0,0.0,0.0,0.0,0.0,0.0,0.0,0.0,0.0,0.0,0.0,0.0,0.0,0.0,0.0,0.0,0.0,0.0,0.0,0.0,0.0,0.0,0.0,0.0,0.0,0.0,0.0,0.0,0.0,0.0,0.0,0.0,0.0,0.0,0.0,0.0,0.0,0.0,0.0,0.0,0.0,0.0,0.0,0.0,0.0,0.0,0.0,0.0,0.0,0.0,0.0,0.0,0.0,0.0,0.0,0.0,0.0,0.0,0.0,0.0,0.0,0.0,0.0,0.0,0.0,0.0,0.0,0.0,0.0,0.0,0.0,0.0,0.0,0.0,0.0,0.0,0.0,0.0,0.0,1.6314,1.6592,1.644,1.5818,1.4482,1.3778,0.0,0.0,0.0,0.0,0.0,0.0,0.0,0.0,0.0,0.0,0.0,0.0,0.0,0.0,0.0,0.0,0.0,0.0,0.0,0.0,0.0,0.0,0.0,0.0,0.0,0.0,0.0,0.0,0.0,0.0,0.0,0.0,0.0,0.0,0.0,0.0,0.0,0.0,0.0,0.0,0.0,0.0,0.0,0.0,0.0,0.0,0.0,0.0,0.0,0.0,0.0,0.0,0.0,0.0,0.0,0.0,0.0,0.0,0.0,0.0,0.0,0.0,0.0,0.0,0.0,0.0,0.0,0.0,0.0,0.0,0.0,0.0,0.0,0.0,0.0,0.0,0.0,0.0,0.0,0.0,0.0,0.0,0.0,0.0,0.0,0.0,0.0,0.0,0.0,0.0,0.0,0.0,0.0,0.0,0.0,0.0,0.0,0.0,0.0,0.0,0.0,0.0,0.0,0.0,0.0,0.0,0.0,0.0,1.5977,1.7886,1.8503,1.8686,1.8434,1.6955,1.5638,0.0,0.0,0.0,0.0,0.0,0.0,0.0,0.0,0.0,0.0,0.0,0.0,0.0,0.0,0.0,0.0,0.0,0.0,0.0,0.0,0.0,0.0,0.0,0.0,0.0,0.0,0.0,0.0,0.0,0.0,0.0,0.0,0.0,0.0,0.0,0.0,0.0,0.0,0.0,0.0,0.0,0.0,0.0,0.0,0.0,0.0,0.0,0.0,0.0,0.0,0.0,0.0,0.0,0.0,0.0,0.0,0.0,0.0,0.0,0.0,0.0,0.0,0.0,0.0,0.0,0.0,0.0,0.0,0.0,0.0,0.0,0.0,0.0,0.0,0.0,0.0,0.0,0.0,0.0,0.0,0.0,0.0,0.0,0.0,0.0,0.0,0.0,0.0,0.0,0.0,0.0,0.0,0.0,0.0,0.0,0.0,0.0,0.0,0.0,0.0,0.0,0.0,0.0,0.0,0.0,0.0,0.0,0.0,1.7574,1.9553,2.0091,2.0311,2.0285,1.9287,1.7388,0.0,0.0,0.0,0.0,0.0,0.0,0.0,0.0,0.0,0.0,0.0,0.0,0.0,0.0,0.0,0.0,0.0,0.0,0.0,0.0,0.0,0.0,0.0,0.0,0.0,0.0,0.0,0.0,0.0,0.0,0.0,0.0,0.0,0.0,0.0,0.0,0.0,0.0,0.0,0.0,0.0,0.0,0.0,0.0,0.0,0.0,0.0,0.0,0.0,0.0,0.0,0.0,0.0,0.0,0.0,0.0,0.0,0.0,0.0,0.0,0.0,0.0,0.0,0.0,0.0,0.0,0.0,0.0,0.0,0.0,0.0,0.0,0.0,0.0,0.0,0.0,0.0,0.0,0.0,0.0,0.0,0.0,0.0,0.0,0.0,0.0,0.0,0.0,0.0,0.0,0.0,0.0,0.0,0.0,0.0,0.0,0.0,0.0,0.0,0.0,0.0,0.0,0.0,0.0,0.0,0.0,0.0,0.0,1.8338,1.9578,2.0558,2.0645,1.9803,1.8001,1.6722,0.0,0.0,0.0,0.0,0.0,0.0,0.0,0.0,0.0,0.0,0.0,0.0,0.0,0.0,0.0,0.0,0.0,0.0,0.0,0.0,0.0,0.0,0.0,0.0,0.0,0.0,0.0,0.0,0.0,0.0,0.0,0.0,0.0,0.0,0.0,0.0,0.0,0.0,0.0,0.0,0.0,0.0,0.0,0.0,0.0,0.0,0.0,0.0,1.6765,0.0,0.0,0.0,0.0,0.0,0.0,0.0,0.0,0.0,0.0,0.0,0.0,0.0,0.0,0.0,0.0,0.0,0.0,0.0,0.0,0.0,0.0,0.0,0.0,0.0,0.0,0.0,0.0,0.0,0.0,0.0,0.0,0.0,0.0,0.0,0.0,0.0,0.0,0.0,0.0,0.0,0.0,0.0,0.0,0.0,0.0,0.0,0.0,0.0,0.0,0.0,0.0,0.0,0.0,0.0,0.0,0.0,0.0,0.0,1.8458,1.9552,2.0603,2.068,1.9682,1.7881,1.6798,0.0,0.0,0.0,0.0,0.0,0.0,0.0,0.0,0.0,0.0,0.0,0.0,0.0,0.0,0.0,0.0,0.0,0.0,0.0,0.0,0.0,0.0,0.0,0.0,0.0,0.0,0.0,0.0,0.0,0.0,0.0,0.0,0.0,0.0,0.0,0.0,0.0,0.0,0.0,0.0,0.0,0.0,0.0,0.0,0.0,0.0,0.0,0.0,0.0,0.0,0.0,0.0,0.0,0.0,0.0,0.0,0.0,0.0,0.0,0.0,0.0,0.0,0.0,0.0,0.0,0.0,0.0,0.0,0.0,0.0,0.0,0.0,0.0,0.0,0.0,0.0,0.0,0.0,0.0,0.0,0.0,0.0,0.0,0.0,0.0,0.0,0.0,0.0,0.0,0.0,0.0,0.0,0.0,0.0,0.0,0.0,0.0,0.0,0.0,0.0,0.0,0.0,0.0,0.0,0.0,0.0,0.0,1.7049,1.8478,1.98,2.0474,2.0479,1.9785,1.8177,1.7033,1.6599,0.0,0.0,0.0,0.0,0.0,0.0,0.0,0.0,0.0,0.0,0.0,0.0,0.0,0.0,0.0,0.0,0.0,0.0,0.0,0.0,0.0,0.0,0.0,0.0,0.0,0.0,0.0,0.0,0.0,0.0,0.0,0.0,0.0,0.0,0.0,0.0,0.0,0.0,1.5513,1.6465,0.0,0.0,0.0,0.0,0.0,0.0,0.0,0.0,1.8172,0.0,0.0,0.0,0.0,0.0,0.0,0.0,0.0,0.0,0.0,0.0,0.0,0.0,0.0,0.0,0.0,0.0,0.0,0.0,0.0,0.0,0.0,0.0,0.0,0.0,0.0,0.0,0.0,0.0,0.0,0.0,0.0,0.0,0.0,0.0,0.0,0.0,0.0,0.0,0.0,0.0,0.0,0.0,0.0,0.0,0.0,0.0,0.0,0.0,0.0,0.0,0.0,0.0,0.0,0.0,0.0,1.8117,1.8375,1.9245,2.0866,2.0196,1.9817,1.9748,1.7741,1.6726,1.6823,0.0,0.0,0.0,0.0,0.0,0.0,0.0,0.0,0.0,0.0,0.0,0.0,0.0,0.0,0.0,0.0,0.0,0.0,0.0,0.0,0.0,0.0,0.0,0.0,0.0,0.0,0.0,0.0,0.0,0.0,0.0,0.0,0.0,0.0,0.0,0.0,0.0,0.0,0.0,1.7381,1.8171,0.0,0.0,0.0,0.0,0.0,0.0,0.0,0.0,1.8773,0.0,0.0,0.0,0.0,0.0,0.0,0.0,0.0,0.0,0.0,0.0,0.0,0.0,0.0,0.0,0.0,0.0,0.0,0.0,0.0,0.0,0.0,0.0,0.0,0.0,0.0,0.0,0.0,0.0,0.0,0.0,0.0,0.0,0.0,0.0,0.0,0.0,0.0,0.0,0.0,0.0,0.0,0.0,0.0,0.0,0.0,0.0,0.0,0.0,0.0,0.0,0.0,0.0,0.0,0.0,1.7699,1.8265,1.8951,1.982,1.9894,1.9342,1.8118,1.7074,1.6422,0.0,0.0,0.0,0.0,0.0,0.0,0.0,0.0,0.0,0.0,0.0,0.0,0.0,0.0,0.0,0.0,0.0,0.0,0.0,0.0,0.0,0.0,0.0,0.0,0.0,0.0,0.0,0.0,0.0,0.0,0.0,0.0,0.0,0.0,0.0,0.0,0.0,0.0,0.0,0.0,1.7161,1.792,1.7175,0.0,0.0,0.0,0.0,0.0,0.0,1.8913,1.8845,0.0,0.0,0.0,0.0,0.0,0.0,0.0,0.0,0.0,0.0,0.0,0.0,0.0,0.0,0.0,0.0,0.0,0.0,0.0,0.0,0.0,0.0,0.0,0.0,0.0,0.0,0.0,0.0,0.0,0.0,0.0,0.0,0.0,0.0,0.0,0.0,0.0,0.0,0.0,0.0,0.0,0.0,0.0,0.0,0.0,0.0,0.0,0.0,0.0,0.0,0.0,0.0,0.0,0.0,0.0,1.7234,1.7946,1.8496,1.8967,1.9483,1.8796,1.686,1.6464,1.6088,0.0,0.0,0.0,0.0,0.0,0.0,0.0,0.0,0.0,0.0,0.0,0.0,0.0,0.0,0.0,0.0,0.0,0.0,0.0,0.0,0.0,0.0,0.0,0.0,0.0,0.0,0.0,0.0,0.0,0.0,0.0,0.0,0.0,0.0,0.0,0.0,0.0,0.0,0.0,0.0,0.0,1.8011,1.714,1.8364,0.0,0.0,0.0,0.0,2.0325,1.9501,0.0,0.0,0.0,0.0,0.0,0.0,0.0,0.0,0.0,0.0,0.0,0.0,0.0,0.0,0.0,0.0,0.0,0.0,0.0,0.0,0.0,0.0,0.0,0.0,0.0,0.0,0.0,0.0,0.0,0.0,0.0,0.0,0.0,0.0,0.0,0.0,0.0,0.0,0.0,0.0,0.0,0.0,0.0,0.0,0.0,0.0,0.0,0.0,0.0,0.0,0.0,0.0,0.0,0.0,0.0,0.0,1.8462,1.8117,1.8635,2.0048,1.8921,1.8089,1.7716,1.6327,1.5822,0.0,0.0,0.0,0.0,0.0,0.0,0.0,0.0,0.0,0.0,0.0,0.0,0.0,0.0,0.0,0.0,0.0,0.0,0.0,0.0,0.0,0.0,0.0,0.0,0.0,0.0,0.0,0.0,0.0,0.0,0.0,0.0,0.0,0.0,0.0,0.0,0.0,0.0,0.0,0.0,0.0,1.9863,1.8255,1.9543,2.019,0.0,0.0,2.063,2.0886,2.0834,0.0,0.0,0.0,0.0,0.0,0.0,0.0,0.0,0.0,0.0,0.0,0.0,0.0,0.0,0.0,0.0,0.0,0.0,0.0,0.0,0.0,0.0,0.0,0.0,0.0,0.0,0.0,0.0,0.0,0.0,0.0,0.0,0.0,0.0,0.0,0.0,0.0,0.0,0.0,0.0,0.0,0.0,0.0,0.0,0.0,0.0,0.0,0.0,0.0,0.0,0.0,0.0,0.0,0.0,0.0,1.6646,1.7865,1.835,1.8708,1.8913,1.8768,1.8083,1.6837,1.6112,1.6023,0.0,0.0,0.0,0.0,0.0,0.0,0.0,0.0,0.0,0.0,0.0,0.0,0.0,0.0,0.0,0.0,0.0,0.0,0.0,0.0,0.0,0.0,0.0,0.0,0.0,0.0,0.0,0.0,0.0,0.0,0.0,0.0,0.0,0.0,0.0,0.0,0.0,0.0,0.0,0.0,0.0,0.0,1.8576,1.9519,0.0,0.0,0.0,2.0451,2.0921,0.0,0.0,0.0,0.0,0.0,0.0,0.0,0.0,0.0,0.0,0.0,0.0,0.0,0.0,0.0,0.0,0.0,0.0,0.0,0.0,0.0,0.0,0.0,0.0,0.0,0.0,0.0,0.0,0.0,0.0,0.0,0.0,0.0,0.0,0.0,0.0,0.0,0.0,0.0,0.0,0.0,0.0,0.0,0.0,0.0,0.0,0.0,0.0,0.0,0.0,0.0,0.0,0.0,0.0,0.0,0.0,0.0,1.7575,1.8574,1.8716,1.8057,1.8534,1.7908,1.5991,1.5882,0.0,0.0,0.0,0.0,0.0,0.0,0.0,0.0,0.0,0.0,0.0,0.0,0.0,0.0,0.0,0.0,0.0,0.0,0.0,0.0,0.0,0.0,0.0,0.0,0.0,0.0,0.0,1.7266,0.0,0.0,0.0,0.0,0.0,0.0,0.0,0.0,0.0,0.0,0.0,0.0,0.0,0.0,2.0191,1.9104,1.9687,2.0408,0.0,0.0,2.0538,2.1588,2.1605,2.1443,0.0,0.0,0.0,0.0,0.0,0.0,0.0,0.0,0.0,0.0,0.0,0.0,0.0,0.0,0.0,0.0,0.0,0.0,0.0,0.0,0.0,0.0,0.0,0.0,0.0,0.0,0.0,0.0,0.0,0.0,0.0,0.0,0.0,0.0,0.0,0.0,0.0,0.0,0.0,0.0,0.0,0.0,0.0,0.0,0.0,0.0,0.0,0.0,0.0,0.0,0.0,0.0,0.0,0.0,1.7623,1.8569,1.8687,1.8708,1.8625,1.8097,1.7101,1.5694,1.5627,1.5891,0.0,0.0,0.0,0.0,0.0,0.0,0.0,0.0,0.0,0.0,0.0,0.0,0.0,0.0,0.0,0.0,0.0,0.0,0.0,0.0,0.0,0.0,0.0,0.0,0.0,0.0,0.0,0.0,0.0,0.0,0.0,0.0,0.0,0.0,0.0,0.0,0.0,0.0,0.0,0.0,0.0,2.1802,2.0136,2.0651,2.0981,0.0,2.079,2.1797,2.3513,2.3102,2.3102,2.4577,0.0,0.0,0.0,0.0,0.0,0.0,0.0,0.0,0.0,0.0,0.0,0.0,0.0,0.0,0.0,0.0,0.0,0.0,0.0,0.0,0.0,0.0,0.0,0.0,0.0,0.0,0.0,0.0,0.0,0.0,0.0,0.0,0.0,0.0,0.0,0.0,0.0,0.0,0.0,0.0,0.0,0.0,0.0,0.0,0.0,0.0,0.0,0.0,0.0,0.0,0.0,0.0,0.0,1.8037,1.816,1.8653,1.8832,1.8579,1.8217,1.7535,1.6615,1.6186,1.6099,0.0,0.0,0.0,0.0,0.0,0.0,0.0,0.0,0.0,0.0,0.0,0.0,0.0,0.0,0.0,0.0,0.0,0.0,0.0,0.0,0.0,0.0,0.0,0.0,0.0,0.0,0.0,0.0,1.6724,1.7302,1.9282,0.0,0.0,0.0,0.0,0.0,0.0,0.0,0.0,0.0,0.0,2.215,2.0419,2.0916,0.0,0.0,2.1696,2.2422,2.3149,2.3851,2.401,2.3116,2.4281,0.0,0.0,0.0,0.0,0.0,0.0,0.0,0.0,0.0,0.0,0.0,0.0,0.0,0.0,0.0,0.0,0.0,0.0,0.0,0.0,0.0,0.0,0.0,0.0,0.0,0.0,0.0,0.0,0.0,0.0,0.0,0.0,0.0,0.0,0.0,0.0,0.0,0.0,0.0,0.0,0.0,0.0,0.0,0.0,0.0,0.0,0.0,0.0,0.0,0.0,0.0,0.0,1.8501,1.8484,1.8884,1.9056,1.8992,1.8273,1.7661,1.7214,1.6356,1.6086,0.0,0.0,0.0,0.0,0.0,0.0,0.0,0.0,0.0,0.0,0.0,0.0,0.0,0.0,0.0,0.0,0.0,0.0,0.0,0.0,0.0,0.0,0.0,0.0,0.0,0.0,0.0,0.0,1.7892,1.869,2.0702,0.0,0.0,0.0,0.0,0.0,0.0,0.0,0.0,0.0,0.0,2.2013,2.0579,2.1094,2.182,2.2304,2.2624,2.306,2.3864,2.4574,2.4509,2.3037,0.0,0.0,0.0,0.0,0.0,0.0,0.0,0.0,0.0,0.0,0.0,0.0,0.0,0.0,0.0,0.0,0.0,0.0,0.0,0.0,0.0,0.0,0.0,0.0,0.0,0.0,0.0,0.0,0.0,0.0,1.8971,0.0,0.0,0.0,0.0,0.0,0.0,0.0,0.0,0.0,0.0,0.0,0.0,0.0,0.0,0.0,0.0,0.0,0.0,0.0,0.0,0.0,0.0,1.9006,2.0005,1.9401,1.9387,1.9967,1.8216,1.7243,1.72,1.5979,1.5709,1.6495,0.0,0.0,0.0,0.0,0.0,0.0,0.0,0.0,0.0,0.0,0.0,0.0,0.0,0.0,0.0,0.0,0.0,0.0,0.0,0.0,0.0,0.0,0.0,0.0,0.0,0.0,2.1116,2.0899,2.076,0.0,0.0,0.0,0.0,0.0,0.0,0.0,0.0,0.0,0.0,2.2275,2.1443,2.063,2.1198,2.2294,2.3867,2.3487,2.3847,2.6236,2.5347,2.4591,0.0,0.0,0.0,0.0,0.0,0.0,0.0,0.0,0.0,0.0,0.0,0.0,0.0,0.0,0.0,0.0,0.0,0.0,0.0,0.0,0.0,0.0,0.0,0.0,0.0,0.0,0.0,1.9699,1.9861,0.0,0.0,0.0,0.0,0.0,0.0,0.0,0.0,0.0,0.0,0.0,1.9199,2.0143,0.0,0.0,0.0,0.0,0.0,0.0,0.0,0.0,0.0,0.0,0.0,0.0,1.907,1.942,1.9217,1.9203,1.9391,1.7983,1.7417,1.7821,1.6574,1.6372,1.7404,0.0,0.0,0.0,0.0,0.0,0.0,0.0,0.0,0.0,0.0,0.0,0.0,0.0,0.0,0.0,0.0,0.0,0.0,0.0,0.0,0.0,0.0,0.0,0.0,0.0,2.0978,0.0,0.0,0.0,0.0,0.0,0.0,0.0,0.0,0.0,0.0,0.0,2.3778,2.2342,2.2413,2.2326,2.1479,2.21,2.3047,0.0,0.0,0.0,0.0,0.0,0.0,0.0,0.0,0.0,0.0,0.0,0.0,0.0,0.0,2.6233,2.571,2.5586,2.5608,2.5645,0.0,0.0,0.0,0.0,0.0,0.0,0.0,0.0,0.0,0.0,0.0,0.0,0.0,0.0,2.0905,0.0,2.107,0.0,0.0,0.0,0.0,0.0,0.0,0.0,0.0,2.1576,2.1814,2.1087,2.225,2.2351,0.0,2.0893,2.0237,0.0,0.0,0.0,0.0,0.0,0.0,0.0,0.0,1.9217,1.942,1.9217,1.9217,1.9391,1.8183,1.7766,1.8158,1.7058,1.686,1.7731,1.7773,1.8053,0.0,0.0,0.0,0.0,0.0,0.0,0.0,0.0,0.0,0.0,0.0,0.0,0.0,0.0,0.0,0.0,0.0,0.0,0.0,0.0,0.0,0.0,0.0,2.1615,0.0,0.0,0.0,0.0,0.0,0.0,0.0,0.0,0.0,2.4325,2.4018,2.3487,2.2339,2.2463,2.2549,2.2282,0.0,0.0,0.0,0.0,0.0,0.0,0.0,2.6021,2.7225,2.6695,2.6399,2.7284,2.6698,2.6113,2.6113,0.0,0.0,2.615,2.6366,2.6562,2.6562,2.658,2.6557,2.6518,2.6512,2.6427,0.0,0.0,0.0,0.0,0.0,0.0,0.0,0.0,2.0893,2.1458,0.0,2.1872,0.0,0.0,0.0,0.0,0.0,2.0675,0.0,0.0,2.4294,2.4568,2.3693,2.4751,2.4663,2.3474,2.2829,2.25,2.2331,2.0439,0.0,0.0,0.0,0.0,0.0,0.0,1.942,2.0001,1.9406,1.942,1.9972,1.884,1.8201,1.819,1.7426,1.7195,1.7542,1.7949,1.8297,1.8546,1.9912,0.0,0.0,0.0,0.0,0.0,0.0,0.0,0.0,0.0,0.0,0.0,0.0,0.0,0.0,0.0,0.0,0.0,0.0,0.0,0.0,2.193,0.0,0.0,0.0,0.0,0.0,0.0,0.0,0.0,0.0,0.0,2.4335,2.3523,2.3019,2.308,0.0,0.0,0.0,0.0,2.4683,2.5513,2.5657,2.6265,2.7918,2.6794,2.6308,2.7968,0.0,0.0,2.8046,2.75,2.6933,2.6888,2.635,2.5975,2.6806,2.7511,2.8039,2.8122,2.809,2.8173,2.8181,2.8,2.7833,2.536,0.0,0.0,0.0,0.0,2.3226,2.3627,2.4155,2.3791,2.3852,2.4107,2.3111,0.0,0.0,0.0,0.0,0.0,0.0,2.3537,2.3903,2.536,2.5813,2.5433,2.5776,2.5573,2.4838,2.4223,2.3465,2.2611,2.156,2.0737,2.019,0.0,0.0,0.0,0.0,1.9203,1.9362,1.9203,1.9188,1.9377,1.8608,1.8222,1.8293,1.8531,1.8501,1.8156,1.882,1.919,1.9287,2.0232,0.0,0.0,0.0,0.0,0.0,0.0,0.0,0.0,0.0,0.0,0.0,0.0,0.0,0.0,0.0,0.0,0.0,0.0,0.0,2.3589,2.1902,2.151,0.0,0.0,0.0,0.0,0.0,0.0,0.0,0.0,0.0,2.4454,2.3608,2.3066,0.0,0.0,2.24,2.3838,2.425,2.4937,2.6364,2.6086,0.0,2.7957,2.7271,2.7127,2.8868,2.8925,2.8652,2.8259,2.7986,2.7631,2.7047,2.7716,2.8274,2.7797,2.7455,2.7528,2.8008,2.8208,2.8172,2.814,2.8121,2.807,2.767,2.5887,2.5247,2.4833,2.4657,2.4903,2.5405,2.6056,2.5736,2.5888,2.6303,2.5468,2.4776,2.4135,2.3,0.0,0.0,0.0,2.504,2.597,2.6512,2.6788,2.6753,2.6753,2.6436,2.5854,2.5229,2.4559,2.3819,2.2673,2.1854,2.1312,0.0,0.0,1.9706,1.9593,1.9517,1.9493,1.9493,1.9377,1.9101,1.8672,1.8611,1.8991,1.9182,1.9088,1.8707,1.9267,1.9482,1.9256,1.996,2.001,0.0,0.0,0.0,0.0,0.0,0.0,0.0,0.0,0.0,0.0,0.0,2.3009,2.3689,0.0,0.0,0.0,2.2152,2.2471,2.2701,2.183,0.0,0.0,0.0,0.0,0.0,0.0,0.0,2.5637,2.5641,2.5468,2.4961,2.4158,2.3607,2.3621,2.3193,2.3387,2.473,0.0,2.5295,2.6327,2.6338,2.6562,2.7532,2.7544,2.7905,2.927,2.9774,2.983,2.9321,2.8931,2.8534,2.814,2.8484,2.8867,2.8651,2.8215,2.8159,2.8991,2.9193,2.9181,2.9136,2.9123,2.9136,2.9705,2.9126,2.7637,2.658,2.5925,2.6568,2.6981,2.7124,2.7182,2.7782,2.8789,2.8369,2.778,2.7005,2.5111,0.0,2.6431,2.5475,2.6349,2.8527,2.7932,2.7682,2.7764,2.769,2.7315,2.6557,2.5974,2.5606,2.5405,2.3676,2.2733,2.2658,2.0721,2.0016,2.0435,2.0304,2.0172,2.0103,2.0084,1.9788,1.9213,1.8964,1.9277,2.0089,1.9497,1.9165,1.9194,1.9583,1.9472,1.8847,1.9397,1.939,1.8713,0.0,0.0,0.0,0.0,0.0,0.0,0.0,0.0,0.0,0.0,0.0,0.0,0.0,0.0,0.0,2.0794,0.0,2.0554,2.193,0.0,0.0,0.0,2.5609,2.56,2.5665,2.57,2.5701,0.0,0.0,2.5687,2.4989,2.4464,2.4423,2.4423,2.4715,2.557,2.5668,2.5722,2.5887,2.6406,2.6905,2.7143,2.7685,2.8424,2.9335,3.0113,3.0464,3.0405,2.9919,2.9479,2.9007,2.857,2.8337,2.9156,2.9214,2.9667,3.0438,3.0636,3.0646,3.0571,3.0555,3.0519,3.1945,3.233,3.1552,3.0034,2.8234,2.9353,2.9897,2.9945,3.0258,3.0573,3.0792,2.9474,2.8282,2.7345,2.7214,2.7442,2.7936,2.8633,2.9267,2.9822,2.9784,2.9537,2.9112,2.8618,2.7739,2.6632,2.6422,2.5839,2.4829,2.3864,2.3167,2.2658,2.169,2.1188,2.1123,2.0504,2.0172,2.0103,1.99,1.9861,2.0004,1.9479,1.9597,2.0464,2.0034,1.9829,1.9952,2.0838,2.0769,1.9551,1.9712,1.9361,1.8234,1.9401,0.0,0.0,0.0,0.0,0.0,0.0,0.0,0.0,0.0,2.4266,2.4452,0.0,2.39,0.0,2.1024,2.1165,2.3678,2.33,0.0,0.0,2.5346,2.5616,2.566,2.57,2.5702,2.57,2.5694,2.5688,2.5687,2.5532,2.5161,2.4516,2.4419,2.4711,2.5551,2.5699,2.5947,2.6466,2.6268,2.6403,2.76,2.8004,2.8379,2.9269,2.9586,2.9713,2.9713,2.9554,2.901,2.7857,2.7874,2.8142,2.8392,2.8939,2.968,3.0467,3.0697,3.0694,3.0704,3.0697,3.0713,3.3292,3.3536,3.386,3.2895,3.1159,3.1638,3.2098,3.2486,3.2421,3.2492,3.2609,3.1467,3.0646,3.0084,2.979,2.9892,3.0231,3.035,3.0546,3.0799,3.0302,2.9759,2.9131,2.8483,2.7604,2.6602,2.6288,2.5779,2.5023,2.4073,2.3522,2.34,2.3036,2.2859,2.2813,2.1914,2.1386,2.1292,2.0719,2.0408,2.0381,2.0172,2.0335,2.0878,2.0857,2.0695,2.0492,2.1383,2.1409,2.0395,2.0517,2.0145,1.9194,1.9903,2.005,0.0,0.0,0.0,0.0,0.0,0.0,0.0,0.0,0.0,0.0,0.0,2.3353,2.2607,2.1523,2.1924,2.447,2.4341,2.4505,2.55,2.5642,2.5674,2.5703,2.5703,2.5702,2.5695,2.5663,2.5671,2.565,2.5637,2.5451,2.4962,2.4879,2.4923,2.5074,2.5371,2.5775,2.6184,2.6173,2.6508,2.7845,2.766,2.7694,2.8468,2.8702,2.8737,2.8737,2.8718,2.8408,2.7575,2.7726,2.7997,2.8036,2.8384,2.8912,2.926,2.9458,2.9765,3.0528,3.0672,3.0653,3.4207,3.4045,3.521,3.5159,3.4289,3.3665,3.3793,3.4427,3.3929,3.384,3.4044,3.3639,3.3466,3.3425,3.2273,3.2019,3.2422,3.13,3.1017,3.1421,3.0357,2.9475,2.8831,2.8169,2.7465,2.6731,2.6105,2.5783,2.5648,2.4483,2.4101,2.4508,2.4431,2.4513,2.4661,2.3767,2.3111,2.2706,2.1938,2.129,2.0822,2.1006,2.1182,2.134,2.1465,2.1309,2.0877,2.1487,2.1636,2.1237,2.1331,2.1172,2.0638,2.0461,2.0707,0.0,2.1099,0.0,0.0,0.0,0.0,0.0,0.0,0.0,0.0,2.2854,2.2968,2.2973,2.251,2.2755,2.4072,2.506,2.5565,2.5472,2.5604,2.5702,2.5702,2.5696,2.569,2.5689,2.5623,2.5593,2.5591,2.5532,2.5485,2.5274,2.5334,2.514,2.453,2.4993,2.5479,2.5395,2.6025,2.6565,2.7113,2.679,2.6636,2.7421,2.7692,2.773,2.7744,2.7764,2.7682,2.7547,2.7435,2.7532,2.7696,2.772,2.7836,2.8212,2.8309,2.8713,2.9823,3.0145,3.0262,3.5129,3.6258,3.6151,3.6377,3.675,3.5772,3.4986,3.4363,3.4714,3.4697,3.4409,3.4321,3.4008,3.3484,3.3245,3.2901,3.2497,3.2228,3.1884,3.1496,3.1256,3.0763,3.0133,2.949,2.8588,2.7445,2.7126,2.6727,2.6228,2.5767,2.5591,2.5638,2.5082,2.4803,2.4867,0.0,0.0,0.0,2.2644,2.2694,2.2377,2.1836,2.1617,2.1675,2.0666,0.0,2.1075,2.1373,2.1567,2.1719,2.1282,0.0,0.0,0.0,0.0,0.0,0.0,0.0,0.0,0.0,0.0,0.0,2.2215,2.2894,2.3577,2.4458,2.4946,2.4953,2.4885,2.4691,2.4331,2.5115,2.5403,2.4746,2.5273,2.57,2.5696,2.5641,2.5621,2.5614,2.5554,2.5518,2.5518,2.5507,2.5226,2.469,2.501,2.5035,2.4285,2.4908,2.5403,2.541,2.5532,2.5582,2.5601,2.5543,2.5784,2.6504,2.6746,2.6795,2.6843,2.6891,2.6626,2.61,2.5873,2.6124,2.6722,2.6877,2.7296,2.8652,2.8883,2.8859,2.8506,2.8424,2.8415,3.6267,0.0,3.7385,3.7368,0.0,3.6694,3.5825,3.4786,3.5082,3.5133,3.4981,3.4981,3.4801,3.4472,3.4128,3.3619,3.2991,3.2662,3.2138,3.1511,3.1496,3.1137,3.0492,3.0495,2.9765,2.847,2.8301,2.7912,2.7255,2.6788,2.6459,2.6274,2.5922,2.5664,2.5565,2.5698,2.4837,2.2912,2.3237,2.3062,2.2287,2.1875,2.1723,2.1764,2.0777,0.0,0.0,0.0,0.0,0.0,0.0,0.0,0.0,2.1621,0.0,2.2092,2.2193,2.2306,2.2481,2.2541,2.281,2.3346,2.4195,2.4358,2.3539,2.3576,2.3636,2.3663,2.3708,2.372,2.3754,2.4526,2.5058,2.5057,2.5419,2.5643,2.5636,2.5586,2.5552,2.5542,2.5492,2.5453,2.545,2.5426,2.5244,2.4849,2.5041,2.5154,2.4788,2.5005,2.5284,2.5259,2.5132,2.5031,2.4975,2.4968,2.5126,2.5601,2.5763,2.5814,2.5906,2.596,2.5802,2.5398,2.5297,2.5456,2.5763,2.5917,2.6229,2.6979,2.7229,2.7113,2.672,2.7568,2.8326,3.7281,3.7496,3.8186,3.7904,3.693,3.6852,3.6208,3.5261,0.0,0.0,0.0,3.5489,3.5489,3.5474,3.4906,3.437,3.3818,3.3276,3.2673,3.2006,3.2006,3.1628,3.1018,3.1359,3.0876,2.9645,2.9564,2.9121,2.8399,2.7806,2.7375,2.7111,2.687,2.6615,2.6401,2.6252,2.5519,2.4228,2.4146,2.3473,2.217,2.2104,2.2002,2.1797,2.1214,2.1329,2.2205,2.1241,2.1179,2.2191,2.1978,2.1841,2.1898,2.2308,2.251,2.2431,2.2723,2.3206,2.3884,2.4279,2.4884,2.5804,2.6612,2.6096,2.3852,2.3015,2.265,2.2675,2.2581,2.2748,2.3278,2.4101,2.4819,2.5403,2.5533,2.5582,2.5578,2.5507,2.548,2.5473,2.5414,2.5359,2.5374,2.5317,2.5282,2.5276,2.5222,2.5212,2.5206,2.5181,2.5147,2.5076,2.4934,2.4827,2.4779,2.4787,2.4808,2.4957,2.5043,2.5089,2.515,2.5205,2.521,2.5241,2.5185,2.5199,2.5193,2.5237,2.5231,2.5365,2.5409,2.5421,2.5598,2.7086,2.8169,3.7653,3.8264,3.7603,3.7253,3.7015,3.6104,3.5603,3.5472,3.5472,3.5472,3.5489,3.5489,3.5489,3.5489,3.54,3.5269,3.5124,3.5017,3.4589,3.3897,3.3909,3.3504,3.2829,3.2295,3.1669,3.0881,3.0733,3.0277,2.9588,2.923,2.9045,2.8854,2.78,2.7193,2.71,2.6518,2.6086,2.5852,2.5836,2.5142,2.3719,2.3686,2.3073,2.1845,2.1447,2.1383,2.1757,2.198,2.2635,2.3709,2.38,2.3897,2.4112,2.4174,2.4075,2.3734,2.4364,2.4598,2.418,2.5473,2.6734,2.7608,2.7895,2.7515,2.6472,2.6238,2.6172,2.6155,2.5408,2.4883,2.4394,2.4925,2.5117,2.4682,2.5128,2.5499,2.5515,2.5462,2.5402,2.5402,2.5307,2.5234,2.5239,2.5233,2.5217,2.5212,2.5209,2.5201,2.5191,2.5144,2.5057,2.4947,2.4858,2.4772,2.4738,2.4715,2.4761,2.4808,2.4886,2.4986,2.5114,2.5175,2.5205,2.521,2.5144,2.5107,2.5101,2.5114,2.5342,2.5787,2.5971,2.6046,2.6014,2.6554,2.6605,3.836,3.8774,3.8481,3.7903,3.7178,3.5977,3.5489,3.5489,3.5489,3.5489,3.5489,3.5489,3.5683,3.5958,3.6005,3.5984,3.5933,3.5933,3.5574,3.494,3.4908,3.4501,3.3847,3.3776,3.3201,3.2175,3.2355,3.2108,3.1385,3.0851,3.039,2.9947,2.8572,2.7895,2.7879,2.7564,2.7181,2.6783,2.6021,2.5094,2.4017,2.3984,2.3765,2.3248,2.2397,2.2535,2.3749,2.2939,2.3159,2.4689,2.4534,2.4271,2.399,2.457,2.4644,2.4065,2.5259,2.61,2.6261,2.7896,2.9066,2.9533,2.9588,2.9466,2.9098,2.7753,2.6953,2.6914,2.5757,2.4985,2.5021,2.4927,2.4868,2.4953,2.5263,2.5429,2.5391,2.5333,2.5289,2.5279,2.5234,2.5212,2.5212,2.5201,2.5209,2.5209,2.5206,2.5172,2.5157,2.5051,2.498,2.4902,2.4804,2.4734,2.4689,2.4681,2.4712,2.4798,2.4865,2.4947,2.507,2.5163,2.5187,2.5163,2.512,2.507,2.5018,2.4993,2.5176,2.5354,2.5564,2.5596,2.5653,2.5735,2.5594,3.9077,3.909,3.9173,3.8497,3.733,3.6207,3.5729,3.5714,3.5579,3.5489,3.5489,3.5489,3.5814,3.6383,3.6399,3.6565,3.6813,3.6823,3.6541,3.6057,3.6025,3.5641,3.5011,3.5202,3.465,3.3575,3.371,3.3431,3.268,3.2133,3.1383,3.0472,2.94,2.8807,2.8624,2.8475,2.8149,2.7611,2.6361,2.5229,2.4315,2.4396,2.4488,2.442,2.3624,2.3894,2.543,2.4215,2.4142,2.5506,2.5369,2.4941,2.4461,2.5239,2.5521,2.5115,2.6397,2.7695,2.8653,2.9922,3.0744,3.079,3.0798,3.0801,3.0694,2.9025,2.7737,2.7428,2.6215,2.5465,2.571,2.5271,2.4946,2.5434,2.5402,2.5339,2.5274,2.5239,2.5206,2.5206,2.5215,2.5215,2.5185,2.5151,2.5099,2.5088,2.5095,2.5057,2.4985,2.4898,2.4818,2.479,2.4742,2.4707,2.4681,2.4681,2.4704,2.4764,2.4837,2.49,2.4999,2.5089,2.5101,2.5051,2.5037,2.4985,2.4881,2.4874,2.4912,2.495,2.4996,2.5004,2.5088,2.5133,2.5151,3.9639,3.9081,3.871,3.8078,3.7375,3.6686,3.6435,3.6345,3.5774,3.5489,3.5599,3.5489,3.5878,3.6352,3.643,3.7038,3.8036,3.8125,3.8018,3.791,3.7939,3.7543,3.6767,3.6216,3.5489,3.4745,3.418,3.3624,3.2934,3.268,3.1901,3.0654,3.0357,2.9996,2.9367,2.8757,2.8548,2.8748,2.7973,2.6722,2.5145,2.5585,2.5461,2.4518,2.5028,2.5409,2.5811,2.6093,2.6439,2.674,2.6967,2.7122,2.7249,2.7425,2.7525,2.76,2.8516,2.948,3.0321,3.0654,3.0791,3.0797,3.0731,3.0718,3.0708,3.0425,2.9953,2.9212,2.8303,2.7387,2.6782,2.6489,2.6105,2.5633,2.5404,2.5208,2.5236,2.522,2.5217,2.5217,2.5172,2.5197,2.5143,2.5025,2.49,2.4808,2.4813,2.4783,2.4704,2.4615,2.4543,2.4526,2.4586,2.4684,2.4692,2.4681,2.47,2.4704,2.4764,2.4834,2.4877,2.49,2.4915,2.4934,2.4879,2.4837,2.4816,2.482,2.479,2.4804,2.484,2.4902,2.4908,2.4907,2.4927,3.9772,3.925,3.9074,3.8616,3.7943,3.73,3.7285,3.7623,3.6921,3.6855,3.7188,3.6832,3.6753,3.7011,3.7354,3.8023,3.8871,3.8898,3.8891,3.8841,3.8841,3.846,3.7781,3.7483,3.692,3.6241,3.5876,3.5363,3.4601,3.3773,3.2796,3.1901,3.1802,3.1653,3.1343,3.0874,3.0524,3.0207,2.99,2.8903,2.7313,2.6907,2.6697,2.6472,2.6359,2.6752,2.7477,2.75,2.7733,2.8436,2.8742,2.8751,2.8427,2.9044,2.923,2.8931,2.9705,3.0365,3.0737,3.0762,3.0734,3.0729,3.0665,3.0637,3.0645,3.056,3.0384,3.0067,2.9272,2.857,2.819,2.7682,2.7149,2.6746,2.6203,2.5787,2.5768,2.5252,2.49,2.4881,2.4912,2.4905,2.4898,2.483,2.4757,2.4707,2.4684,2.461,2.4543,2.4485,2.4408,2.4374,2.4409,2.4486,2.4553,2.4596,2.4602,2.4673,2.4768,2.4813,2.4794,2.4847,2.4895,2.484,2.4808,2.4764,2.4742,2.4734,2.4734,2.4749,2.4787,2.4844,2.4844,2.484,2.4902,3.9861,3.9433,3.9388,3.914,3.8616,3.7958,3.8069,3.8646,3.8015,3.8013,3.8442,3.8114,3.7839,3.7722,3.8108,3.8689,3.9245,3.9315,3.9315,3.9315,3.9315,3.9017,3.851,3.8278,3.793,3.745,3.7168,3.6779,3.6208,3.5048,3.4021,3.3398,3.3234,3.3084,3.2894,3.2549,3.2085,3.1471,3.1255,3.0475,2.9197,2.8396,2.8002,2.7904,2.7549,2.7881,2.8927,2.8629,2.8792,2.9636,2.995,2.987,2.9442,3.0153,3.0346,2.9902,3.0399,3.0797,3.0761,3.0725,3.0687,3.0677,3.0601,3.0568,3.056,3.0501,3.0428,3.0298,2.9773,2.9325,2.9003,2.8464,2.7937,2.7553,2.6845,2.6386,2.6087,2.5551,2.5233,2.4812,2.4982,2.4901,2.4712,2.4781,2.4887,2.4551,2.4442,2.4398,2.4355,2.4265,2.422,2.4173,2.4154,2.4248,2.44,2.4435,2.4495,2.4545,2.4629,2.4634,2.4665,2.4708,2.4775,2.4647,2.4704,2.4727,2.4712,2.4689,2.4681,2.4715,2.4746,2.4783,2.4764,2.4804,2.4825,3.9971,3.9418,3.9388,3.9379,3.9305,3.8667,3.8819,3.957,3.8807,3.8527,3.8767,3.9082,3.8897,3.8391,3.8448,3.8689,3.9245,3.9315,3.9315,3.9315,3.9315,3.9282,3.9172,3.8543,3.8212,3.8112,3.7608,3.7201,3.7019,3.6282,3.5545,3.4864,3.46,3.4134,3.3588,3.3205,3.2692,3.2424,3.1839,3.1148,3.0632,3.0129,2.9315,2.8461,2.8518,2.8842,2.9252,2.9504,2.9717,2.9958,3.017,3.0353,3.046,3.0552,3.0628,3.0683,3.0756,3.0781,3.0726,3.0702,3.0675,3.0626,3.0522,3.0506,3.0447,3.0352,3.0215,3.0037,2.9886,2.9528,2.8927,2.8752,2.8275,2.7463,2.7175,2.6747,2.607,2.6526,2.6187,2.5268,2.5412,2.5441,2.4586,2.5005,2.5004,2.4502,2.4129,2.4101,2.4109,2.4022,2.3937,2.3896,2.3878,2.3939,2.4238,2.4312,2.4312,2.4375,2.4428,2.4366,2.433,2.433,2.44,2.4478,2.4512,2.4569,2.4642,2.47,2.4692,2.47,2.47,2.4704,2.4738,2.4696,2.4798,4.0023,3.9388,3.9388,3.9646,4.006,3.9836,4.0399,4.1374,4.0737,4.0694,4.0893,4.0352,4.0125,4.0257,3.9813,3.9495,3.9332,3.9315,3.9315,3.9315,3.9315,3.9352,3.9388,3.9139,3.9023,3.899,3.8757,3.8323,3.7799,3.7351,3.7026,3.6784,3.6485,3.6191,3.5864,3.5104,3.4646,3.4534,3.3812,3.3181,3.2546,3.1629,3.0713,2.9959,2.9405,2.927,2.9606,2.9748,2.9958,3.024,3.0365,3.0506,3.0635,3.0699,3.0725,3.0738,3.0728,3.0707,3.0625,3.0593,3.0571,3.0528,3.0425,3.0304,3.0202,3.0087,2.9969,2.9834,2.975,2.9472,2.9241,2.9192,2.9142,2.8734,2.8119,2.7615,2.7308,2.7026,2.654,2.6078,2.6179,2.6073,2.5821,2.5923,2.5934,2.5575,2.5058,2.4754,2.4569,2.4239,2.3881,2.3824,2.3795,2.3837,2.3929,2.4105,2.4182,2.4266,2.4312,2.4303,2.4275,2.4257,2.4311,2.4338,2.4356,2.4383,2.4469,2.4545,2.458,2.4642,2.465,2.4626,2.4681,2.4738,2.4949,4.016,3.9818,3.997,4.0339,4.0805,4.0805,4.1492,4.2489,4.2051,4.2108,4.2249,4.1475,4.1226,4.1326,4.0928,4.0464,4.0011,4.0049,4.0076,4.0076,4.013,4.0067,3.9921,3.9931,3.9797,3.9606,3.9677,3.9367,3.8814,3.8522,3.8417,3.8424,3.8182,3.792,3.762,3.6839,3.6397,3.6149,3.5214,3.4487,3.4107,3.2941,3.2098,3.1648,3.0648,2.9983,2.9964,2.9992,3.0151,3.0407,3.05,3.0593,3.0689,3.0754,3.0756,3.0667,3.0677,3.0642,3.0571,3.051,3.0436,3.0339,3.0241,3.0085,2.9896,2.9813,2.9741,2.9617,2.9514,2.9425,2.9291,2.9314,2.9395,2.9339,2.879,2.8281,2.803,2.7624,2.7281,2.6995,2.69,2.6794,2.6567,2.6651,2.657,2.6409,2.5775,2.5499,2.5343,2.4751,2.4186,2.4157,2.3958,2.385,2.3865,2.3966,2.4024,2.4085,2.4115,2.4144,2.4163,2.4154,2.4173,2.421,2.4229,2.4247,2.4303,2.4384,2.4498,2.459,2.4528,2.4478,2.465,2.4835,2.5137,4.0555,4.0643,4.1209,4.1552,4.1636,4.1636,4.1997,4.2617,4.2647,4.261,4.2609,4.2406,4.2009,4.1595,4.1508,4.1409,4.1498,4.1655,4.1583,4.1466,4.1648,4.1335,4.0732,4.0745,4.0421,3.9884,4.0104,4.0128,3.9926,3.9804,3.9766,3.975,3.9547,3.9093,3.8451,3.8061,3.7584,3.6851,3.5648,3.5078,3.5175,3.4003,3.3327,3.3304,3.2144,3.1053,3.0315,3.0279,3.0348,3.0476,3.0579,3.0626,3.0683,3.0705,3.0678,3.0613,3.0605,3.0563,3.054,3.0527,3.0432,3.0352,3.0087,3.0051,2.9839,2.9814,2.971,2.9363,2.9368,2.9302,2.9085,2.9044,2.9055,2.9017,2.8904,2.861,2.8202,2.8457,2.8594,2.7887,2.7693,2.7335,2.687,2.7093,2.7247,2.6728,2.6342,2.6204,2.6143,2.5516,2.5081,2.4882,2.4646,2.4447,2.4121,2.3842,2.386,2.3871,2.3876,2.3888,2.3937,2.3929,2.3998,2.4027,2.4047,2.4095,2.4302,2.4395,2.4607,2.4671,2.4533,2.457,2.4782,2.5077,2.5421,4.1907,4.203,4.2724,4.2998,4.3025,4.3009,4.3134,4.3281,4.3295,4.33,4.3155,4.2704,4.2622,4.2738,4.2406,4.251,4.3107,4.3251,4.2762,4.1916,4.1904,4.1611,4.1139,4.1282,4.1209,4.0847,4.0821,4.0786,4.0822,4.1036,4.1231,4.1163,4.0897,4.0384,3.9638,3.9191,3.8447,3.722,3.6591,3.6117,3.5615,3.4415,3.3832,3.3765,3.2436,3.1502,3.1347,3.0817,3.0568,3.0625,3.0657,3.0675,3.0704,3.0652,3.0617,3.0531,3.0539,3.0689,3.0948,3.0954,3.1066,3.1315,3.1346,3.095,3.0424,3.069,3.0397,2.9459,2.9543,2.9711,2.9157,2.8987,2.9037,2.9005,2.8987,2.8879,2.8557,2.8687,2.8712,2.8589,2.8439,2.8263,2.8064,2.8191,2.799,2.7742,2.7308,2.6995,2.6886,2.6319,2.586,2.5769,2.5479,2.5244,2.5063,2.4791,2.4628,2.4357,2.4103,2.3831,2.3795,2.3806,2.3865,2.3886,2.3907,2.4049,2.426,2.4502,2.4742,2.5012,2.5105,2.5133,2.5161,2.5392,2.5713,4.3139,4.3484,4.391,4.4091,4.4068,4.4067,4.3861,4.3635,4.3615,4.3615,4.3482,4.3118,4.321,4.3522,4.3236,4.339,4.3952,4.4126,4.3777,4.3118,4.3108,4.269,4.1835,4.1601,4.1528,4.1368,4.1415,4.1437,4.1402,4.1619,4.1887,4.2078,4.1534,4.0981,4.0526,4.001,3.9194,3.822,3.771,3.7195,3.6502,3.549,3.4863,3.4502,3.3074,3.2334,3.2349,3.1283,3.0648,3.0646,3.0663,3.0666,3.0684,3.0853,3.0991,3.0904,3.0853,3.1031,3.1475,3.0947,3.1044,3.1659,3.1362,3.1033,3.082,3.1189,3.0561,3.0173,3.0302,3.0332,2.9757,2.9591,2.9553,2.9419,2.9003,2.8761,2.8676,2.8682,2.8639,2.8572,2.8509,2.8469,2.8378,2.8317,2.8264,2.8174,2.7913,2.7653,2.7534,2.7085,2.679,2.6506,2.6156,2.6047,2.6065,2.5823,2.5497,2.499,2.4494,2.4085,2.3795,2.3795,2.3834,2.3845,2.3855,2.421,2.4441,2.4759,2.5053,2.5322,2.5631,2.5277,2.5163,2.5612,2.5967,4.4302,4.4887,4.492,4.4908,4.4773,4.479,4.4327,4.3664,4.3645,4.3645,4.3611,4.3604,4.3713,4.3881,4.3898,4.4059,4.4167,4.4474,4.4804,4.5078,4.5157,4.4524,4.3176,4.2298,4.1838,4.167,4.1987,4.2089,4.2035,4.1902,4.1951,4.25,4.1774,4.0971,4.0909,4.0562,4.013,3.9289,3.868,3.8099,3.7605,3.6876,3.6217,3.5566,3.4101,3.3275,3.314,3.1893,3.0903,3.0718,3.0864,3.0993,3.0913,3.1376,3.1694,3.1609,3.1398,3.1708,3.186,3.1177,3.0756,3.1827,3.1051,3.0002,3.1207,3.1195,3.0986,3.0945,3.1151,3.1074,3.0578,3.0388,3.0258,2.9968,2.9255,2.8708,2.8407,2.8577,2.8712,2.8537,2.8317,2.8253,2.8219,2.8135,2.8071,2.7959,2.8042,2.8101,2.787,2.7548,2.7439,2.715,2.6794,2.6733,2.6729,2.6429,2.6123,2.5859,2.5267,2.4683,2.4085,2.3976,2.3813,2.3795,2.3976,2.4331,2.4722,2.5071,2.5615,2.6161,2.5979,2.5321,2.5459,2.6095,2.6354,4.6125,4.6402,4.6926,4.651,4.5582,4.55,4.4771,4.3711,4.3763,4.3822,4.3852,4.3923,4.4039,4.4097,4.4474,4.4708,4.4937,4.5355,4.5742,4.6074,4.6501,4.5792,4.4458,4.35,4.2922,4.2727,4.275,4.29,4.2883,4.2867,4.2858,4.2526,4.2831,4.2162,4.0933,4.1278,4.062,3.9079,3.8391,3.7779,3.7129,3.6377,3.5872,3.5702,3.4658,3.4138,3.4136,3.3078,3.2081,3.1582,3.2082,3.2334,3.2227,3.2288,3.2286,3.217,3.2021,3.2116,3.2532,3.2229,3.2368,3.311,3.2426,3.2344,3.1913,3.2414,3.2006,3.1409,3.1289,3.134,3.0513,3.0267,3.0145,2.9866,2.966,2.9511,2.949,2.9569,2.9523,2.9521,2.9404,2.9275,2.918,2.9117,2.8926,2.8553,2.8433,2.8329,2.79,2.7773,2.7589,2.7617,2.7427,2.7374,2.727,2.6983,2.6765,2.6647,2.6153,2.5534,2.4864,2.4349,2.4049,2.3795,2.4212,2.4603,2.5045,2.5472,2.6149,2.6934,2.6771,2.6403,2.6627,2.7079,2.7018,4.7062,4.7355,4.7487,4.6858,4.5847,4.5798,4.5,4.3916,4.3839,4.4068,4.4265,4.4406,4.4597,4.4882,4.525,4.5485,4.5648,4.6032,4.6425,4.691,4.7476,4.6751,4.5253,4.4093,4.3393,4.3269,4.325,4.332,4.3401,4.3389,4.32,4.313,4.2945,4.2227,4.1406,4.1203,4.0902,3.9553,3.8852,3.821,3.7436,3.6604,3.6075,3.5755,3.4919,3.4323,3.3929,3.3601,3.3228,3.2822,3.2858,3.2942,3.303,3.3018,3.2934,3.2807,3.2584,3.2747,3.312,3.279,3.2785,3.3335,3.3131,3.2643,3.2464,3.273,3.1978,3.1673,3.1874,3.1579,3.1005,3.0646,3.0491,3.0418,3.0438,3.0334,2.9959,2.9769,2.9739,2.9756,2.9723,2.9641,2.9574,2.9557,2.916,2.8623,2.841,2.8089,2.7681,2.7702,2.7759,2.782,2.7785,2.7686,2.7666,2.7447,2.7317,2.7219,2.6966,2.6351,2.5753,2.5059,2.4882,2.4737,2.4755,2.499,2.566,2.6294,2.6952,2.7477,2.7514,2.7459,2.7477,2.7586,2.755,4.7404,4.7934,4.7305,4.6543,4.5864,4.5796,4.5092,4.4035,4.3956,4.4293,4.4773,4.492,4.525,4.5925,4.5905,4.6187,4.6395,4.6504,4.6898,4.7427,4.7865,4.7371,4.5828,4.4785,4.4051,4.3788,4.3571,4.373,4.3874,4.338,4.339,4.3485,4.231,4.1793,4.1637,4.1157,4.0694,4.0349,3.9675,3.906,3.8352,3.7538,3.6808,3.6038,3.5165,3.4291,3.388,3.3858,3.4134,3.3956,3.3352,3.331,3.3466,3.3685,3.361,3.339,3.3216,3.3376,3.3735,3.2654,3.2243,3.3173,3.2047,3.152,3.245,3.2214,3.1848,3.2,3.2299,3.1952,3.1559,3.1287,3.1142,3.1038,3.1135,3.0691,3.0056,2.9765,2.973,2.9592,2.9626,2.9485,2.9322,2.9162,2.9045,2.9108,2.887,2.8613,2.825,2.8141,2.8133,2.8093,2.8002,2.7871,2.7887,2.7895,2.7833,2.7769,2.7565,2.7126,2.6682,2.6212,2.609,2.595,2.557,2.5914,2.6753,2.7369,2.7731,2.7984,2.8002,2.7785,2.7622,2.7803,2.7876,4.7852,4.7984,4.7819,4.7007,4.5928,4.5872,4.5183,4.4006,4.4172,4.4586,4.5028,4.5276,4.5707,4.6216,4.6261,4.6514,4.7057,4.7114,4.7296,4.7553,4.7749,4.7479,4.6768,4.6372,4.5897,4.5199,4.4941,4.479,4.4555,4.4471,4.4037,4.3094,4.3455,4.2804,4.1238,4.1521,4.1345,4.0799,4.0016,3.9492,3.9126,3.8312,3.7465,3.667,3.5786,3.511,3.4699,3.4683,3.4655,3.4499,3.4384,3.4253,3.4301,3.417,3.4012,3.3885,3.3666,3.3618,3.3638,3.3148,3.2816,3.3046,3.2579,3.2064,3.2073,3.2264,3.1987,3.195,3.1841,3.1832,3.1494,3.1286,3.123,3.1252,3.1213,3.1133,3.0961,3.0861,3.0736,3.0734,3.0698,3.0779,3.0685,3.0565,3.0243,2.9753,2.9434,2.9304,2.8951,2.8544,2.8442,2.8339,2.8339,2.8235,2.8043,2.8012,2.7892,2.7859,2.7739,2.7669,2.7217,2.7005,2.676,2.6465,2.6131,2.6735,2.7586,2.7586,2.7785,2.8129,2.8424,2.8256,2.8129,2.8201,2.8183,4.8001,4.8001,4.8001,4.7531,4.6748,4.6238,4.5736,4.5258,4.4816,4.5214,4.5925,4.6213,4.6383,4.6571,4.6613,4.6908,4.7378,4.7887,4.8034,4.8111,4.8347,4.8342,4.8026,4.8136,4.7726,4.6087,4.5766,4.5523,4.5262,4.5177,4.4732,4.3655,4.4263,4.3329,4.1655,4.1877,4.1616,4.0852,4.0052,3.9572,3.9376,3.8583,3.7854,3.7269,3.6672,3.6235,3.5977,3.5452,3.5208,3.501,3.4722,3.4526,3.4545,3.4328,3.4142,3.3934,3.3793,3.3559,3.3397,3.3235,3.3145,3.3263,3.2913,3.2895,3.2794,3.2896,3.2724,3.2549,3.2471,3.2324,3.1772,3.1292,3.1263,3.1232,3.1213,3.123,3.1232,3.1213,3.119,3.119,3.1108,3.1086,3.1134,3.1131,3.0701,2.9854,2.9667,2.9505,2.8878,2.8581,2.863,2.8616,2.8697,2.8579,2.8296,2.81,2.7847,2.7753,2.7604,2.76,2.7452,2.7357,2.7293,2.7109,2.7043,2.7423,2.8075,2.7984,2.7948,2.8292,2.8545,2.8582,2.8563,2.8437,2.8419,4.8001,4.8001,4.8001,4.7872,4.749,4.6596,4.6345,4.6456,4.5727,4.5925,4.6931,4.7133,4.7075,4.7139,4.7168,4.7261,4.7678,4.8487,4.8852,4.8456,4.9273,4.9238,4.9045,4.9119,4.8713,4.6721,4.6585,4.6272,4.5746,4.5589,4.5226,4.4684,4.4653,4.3821,4.265,4.2353,4.2185,4.1413,4.087,4.0425,4.0106,3.9257,3.8473,3.7633,3.7183,3.6904,3.6557,3.6065,3.5676,3.5596,3.4777,3.4423,3.433,3.4258,3.4189,3.3976,3.3902,3.3584,3.3324,3.3146,3.3166,3.3442,3.3255,3.3339,3.363,3.3478,3.3298,3.3266,3.3177,3.2961,3.2361,3.1836,3.1393,3.1221,3.1171,3.1171,3.1151,3.1151,3.1131,3.119,3.1151,3.1095,3.1035,3.0998,3.0479,3.0084,2.9931,2.9694,2.914,2.8925,2.9164,2.937,2.954,2.925,2.8919,2.8387,2.81,2.7978,2.7769,2.7879,2.7956,2.8241,2.8332,2.818,2.8234,2.844,2.8442,2.8346,2.8401,2.8582,2.86,2.86,2.86,2.86,2.8618,4.8001,4.8001,4.8001,4.7617,4.7056,4.6906,4.6605,4.6139,4.6172,4.6478,4.7089,4.7324,4.7706,4.7865,4.7749,4.7816,4.82,4.907,4.9292,4.896,4.9698,4.9913,4.9397,4.955,4.9074,4.847,4.7797,4.6984,4.6132,4.5933,4.5509,4.4886,4.4863,4.4213,4.338,4.315,4.3038,4.2509,4.2193,4.2039,4.1713,4.0825,3.9499,3.8167,3.7459,3.6976,3.6621,3.6347,3.6109,3.5952,3.5754,3.5448,3.5144,3.4848,3.4788,3.4736,3.4321,3.3824,3.3474,3.3141,3.3011,3.3047,3.3274,3.3407,3.3566,3.3575,3.3677,3.3575,3.3491,3.3152,3.2378,3.2205,3.1776,3.1361,3.1183,3.1183,3.1106,3.1157,3.1268,3.1432,3.1277,3.1015,3.0955,3.0895,3.0634,3.0426,3.0356,3.0323,3.0089,3.0059,3.0282,3.0436,3.0627,3.0112,2.9585,2.8939,2.8469,2.8428,2.8372,2.863,2.885,2.9338,2.9446,2.8908,2.8721,2.8765,2.8745,2.8789,2.8768,2.89,2.8786,2.8672,2.8654,2.869,2.8672,4.8465,4.848,4.8433,4.8389,4.8201,4.7395,4.7237,4.7375,4.6972,4.7093,4.7632,4.7961,4.8014,4.803,4.8004,4.8138,4.8729,4.9608,4.9699,4.9509,5.011,5.0039,4.9342,4.954,4.8991,4.8301,4.7807,4.7239,4.6197,4.6086,4.5644,4.5129,4.5174,4.4724,4.3778,4.3762,4.3598,4.3283,4.292,4.2728,4.2506,4.1446,3.9971,3.8782,3.8062,3.7669,3.7316,3.6607,3.6372,3.6141,3.5585,3.5453,3.5438,3.5384,3.5185,3.4994,3.457,3.4147,3.3837,3.3548,3.3567,3.3772,3.3884,3.4167,3.4416,3.4607,3.4472,3.4416,3.4066,3.3808,3.3406,3.2984,3.2534,3.2177,3.1968,3.193,3.1922,3.1922,3.1876,3.1787,3.1402,3.1072,3.0834,3.0794,3.0753,3.0712,3.0692,3.0712,3.0729,3.0733,3.0753,3.0716,3.0683,3.0346,2.9869,2.9456,2.8976,2.892,2.895,2.9194,2.9344,2.9644,2.9521,2.9109,2.9049,2.9279,2.9546,2.9747,2.9494,2.9321,2.9541,2.9572,2.9047,2.8781,2.8781,4.8876,4.8899,4.8684,4.8992,4.9325,4.7922,4.7755,4.8428,4.7746,4.7713,4.8345,4.855,4.8483,4.8327,4.8531,4.8833,4.9253,5.0183,5.0226,5.0124,5.0604,5.027,4.9495,4.9175,4.8945,4.7747,4.7207,4.6875,4.6289,4.6125,4.5707,4.5417,4.5679,4.525,4.4244,4.4387,4.3971,4.35,4.3022,4.2705,4.2077,4.1287,4.0269,3.9255,3.9087,3.8791,3.8257,3.7433,3.6809,3.6399,3.5826,3.5316,3.5729,3.5815,3.5498,3.4938,3.4711,3.4447,3.4189,3.4085,3.4127,3.4287,3.4595,3.503,3.5295,3.5363,3.5481,3.5481,3.5104,3.4508,3.4122,3.3753,3.3182,3.2696,3.2619,3.268,3.2331,3.2175,3.2171,3.1935,3.1511,3.1291,3.1187,3.0671,3.063,3.063,3.0589,3.0589,3.0589,3.0589,3.0572,3.0551,3.0464,3.0286,3.0033,2.9917,2.9573,2.9447,2.9515,2.9691,2.9694,2.971,2.9586,2.9695,2.9937,3.0226,3.0467,3.0532,3.0202,3.0139,3.0541,3.0328,2.9549,2.9083,2.8962,4.8798,4.8854,4.8149,4.8347,4.8981,4.8158,4.7945,4.8251,4.8186,4.8345,4.8694,4.8905,4.9131,4.9389,4.984,5.0172,5.0437,5.0657,5.0817,5.073,5.0947,5.0618,4.9723,4.904,4.8513,4.7471,4.6718,4.6289,4.6159,4.6161,4.5994,4.575,4.5583,4.5441,4.4895,4.4815,4.4782,4.4367,4.4196,4.3572,4.2559,4.2065,4.1346,4.0483,3.986,3.9299,3.8705,3.7989,3.7508,3.6872,3.6708,3.6454,3.6329,3.6246,3.5959,3.5561,3.5244,3.4926,3.4585,3.4521,3.4533,3.4747,3.5064,3.543,3.5566,3.56,3.56,3.5583,3.538,3.5043,3.4522,3.4158,3.3416,3.2794,3.2488,3.2101,3.175,3.2393,3.2393,3.2253,3.1867,3.1819,3.1742,3.1068,3.0526,3.0489,3.0506,3.0539,3.0489,3.0489,3.0489,3.0489,3.0489,3.0307,3.0241,3.0125,3.0059,2.9947,3.0032,3.0132,3.0138,3.0174,3.0516,3.0656,3.084,3.0832,3.083,3.0789,3.0689,3.0872,3.1174,3.0654,2.9839,2.9518,2.9505,4.8615,4.8846,4.8502,4.8591,4.8888,4.8312,4.8223,4.8418,4.8514,4.8764,4.9142,4.9416,4.9745,5.0172,5.0576,5.0758,5.0875,5.1093,5.1183,5.0965,5.0833,5.0418,4.9687,4.8709,4.7817,4.7677,4.6757,4.6307,4.6241,4.6063,4.5816,4.5706,4.5488,4.5304,4.5118,4.4896,4.4695,4.439,4.4071,4.3275,4.2364,4.1919,4.1415,4.0291,3.9973,3.9509,3.8979,3.8524,3.7926,3.7311,3.7007,3.6526,3.6078,3.5893,3.5761,3.5605,3.544,3.5297,3.517,3.5092,3.5076,3.5126,3.5397,3.5566,3.56,3.56,3.5554,3.5543,3.552,3.5188,3.4708,3.4402,3.393,3.3315,3.2626,3.2376,3.2114,3.2307,3.2561,3.2415,3.2317,3.2288,3.2335,3.2111,3.1533,3.1189,3.1068,3.0969,3.0754,3.0489,3.0489,3.0489,3.0489,3.0456,3.0423,3.0373,3.0357,3.0294,3.036,3.0479,3.0603,3.0751,3.0915,3.1032,3.1007,3.1033,3.1079,3.1274,3.1395,3.1575,3.1781,3.1134,3.0591,3.1016,3.1021,4.8227,4.8502,4.856,4.8756,4.8971,4.8515,4.8495,4.8796,4.8897,4.9246,4.9692,5.0034,5.0375,5.0697,5.0939,5.1088,5.1103,5.1284,5.1316,5.1045,5.0683,5.0289,4.9645,4.8565,4.7915,4.8165,4.6459,4.5967,4.6012,4.586,4.5449,4.546,4.5206,4.5,4.4806,4.4567,4.4327,4.4076,4.3621,4.2867,4.2066,4.1881,4.1272,4.0584,4.0076,3.9799,3.9299,3.8813,3.8225,3.7273,3.7126,3.6698,3.6095,3.619,3.6116,3.5933,3.5801,3.5632,3.5481,3.5402,3.5509,3.5509,3.5549,3.5526,3.5571,3.5549,3.5356,3.5188,3.5095,3.4937,3.4658,3.4153,3.3689,3.3351,3.304,3.2966,3.2768,3.2473,3.2407,3.2468,3.2478,3.279,3.2861,3.305,3.2708,3.2073,3.1714,3.1482,3.1135,3.077,3.0754,3.0837,3.0936,3.0936,3.0903,3.082,3.0737,3.0626,3.0692,3.0651,3.0671,3.0753,3.0855,3.0975,3.1092,3.1238,3.1322,3.1743,3.2105,3.1876,3.1708,3.1679,3.1594,3.2003,3.2162,4.7449,4.7609,4.7744,4.8395,4.9285,4.8789,4.888,4.9336,4.9476,4.9821,5.0336,5.0701,5.0888,5.1039,5.1187,5.1323,5.1349,5.133,5.1306,5.1289,5.1163,5.0569,4.9784,4.8865,4.7902,4.7274,4.6081,4.551,4.5351,4.5246,4.5066,4.5085,4.4884,4.4663,4.4425,4.4154,4.3836,4.3542,4.3105,4.2733,4.2239,4.2022,4.1727,4.1301,4.0844,4.0406,3.9687,3.9129,3.8331,3.7138,3.7343,3.7155,3.6635,3.6836,3.6779,3.647,3.6346,3.6111,3.5817,3.5471,3.5337,3.5354,3.536,3.5406,3.5475,3.536,3.5071,3.4617,3.4521,3.4161,3.3767,3.3355,3.3135,3.2911,3.2656,3.2355,3.2132,3.1921,3.1944,3.2296,3.2505,3.2629,3.2966,3.304,3.3252,3.2671,3.2299,3.205,3.1669,3.1355,3.13,3.135,3.1515,3.1565,3.1548,3.1466,3.135,3.1035,3.0879,3.0696,3.0547,3.0671,3.0814,3.0912,3.1052,3.1295,3.1526,3.1679,3.1742,3.1685,3.1645,3.1808,3.1967,3.2231,3.2332,4.7338,4.7515,4.7899,4.8398,4.8919,4.8954,4.9288,4.9816,5.0004,5.0336,5.077,5.1047,5.1209,5.1264,5.1267,5.1349,5.1335,5.1308,5.1274,5.103,5.0729,5.0452,4.9697,4.8739,4.7619,4.7492,4.6269,4.5445,4.5738,4.4877,4.4503,4.4457,4.4425,4.4213,4.3965,4.3707,4.3389,4.3051,4.2674,4.232,4.2236,4.1867,4.1503,4.0978,4.0838,4.0363,3.9772,3.9514,3.8765,3.8178,3.8053,3.766,3.7218,3.7452,3.736,3.7044,3.6969,3.6711,3.6261,3.5766,3.5325,3.5308,3.5331,3.5291,3.5251,3.5001,3.4666,3.4268,3.3878,3.3511,3.3329,3.2949,3.2614,3.2355,3.2092,3.1796,3.164,3.1524,3.1553,3.1951,3.2035,3.2071,3.2485,3.2902,3.3149,3.3271,3.2931,3.2597,3.2249,3.1984,3.1967,3.205,3.2232,3.2282,3.2282,3.2133,3.1984,3.1548,3.1135,3.0919,3.0758,3.063,3.0753,3.0871,3.1006,3.1244,3.1363,3.1387,3.1436,3.1547,3.183,3.2138,3.2306,3.2439,3.2549,4.7446,4.7687,4.8196,4.8494,4.8687,4.9194,4.9733,5.0223,5.0477,5.0771,5.1126,5.1273,5.1336,5.1375,5.1358,5.1289,5.1286,5.1277,5.1223,5.0979,5.0639,5.028,4.9531,4.8518,4.7434,4.7605,4.6285,4.5129,4.5213,4.4489,4.4113,4.3934,4.3857,4.3728,4.3577,4.3249,4.2939,4.2596,4.2279,4.1846,4.1674,4.1326,4.0914,4.0424,4.0294,4.0145,3.9783,3.9553,3.92,3.873,3.8538,3.8362,3.8036,3.7836,3.7819,3.7685,3.7535,3.7443,3.6912,3.6238,3.5465,3.5288,3.4923,3.493,3.4802,3.4423,3.3919,3.3588,3.3251,3.3013,3.2799,3.2299,3.212,3.191,3.1796,3.1582,3.1553,3.1496,3.1496,3.1625,3.1668,3.1855,3.237,3.2861,3.3284,3.3534,3.3452,3.3204,3.3011,3.2779,3.2646,3.2796,3.3011,3.3033,3.3033,3.2928,3.2762,3.21,3.1702,3.13,3.109,3.0996,3.0849,3.0905,3.1039,3.1207,3.1272,3.1322,3.1426,3.1533,3.1759,3.1909,3.2391,3.2523,3.2816,4.7804,4.7941,4.8514,4.8765,4.9003,4.9638,5.0191,5.0585,5.0849,5.1123,5.1322,5.1377,5.1385,5.1385,5.1367,5.1297,5.1225,5.1202,5.1142,5.0948,5.0504,5.0113,4.9278,4.8238,4.7056,4.613,4.5212,4.4541,4.4311,4.402,4.3726,4.3424,4.332,4.3285,4.3249,4.2844,4.2436,4.2056,4.1821,4.1253,4.0814,4.0594,4.022,3.9935,3.9825,3.9738,3.9651,3.9563,3.9194,3.8785,3.8973,3.8814,3.8389,3.8771,3.8712,3.8271,3.8221,3.7847,3.7159,3.6398,3.581,3.5173,3.4751,3.4323,3.4134,3.3665,3.3145,3.2895,3.2547,3.2188,3.1853,3.1686,3.176,3.1791,3.1749,3.1884,3.1944,3.1959,3.2049,3.2123,3.1853,3.1771,3.2318,3.2877,3.3408,3.3677,3.3791,3.3746,3.3598,3.363,3.3514,3.3557,3.3773,3.3773,3.3796,3.3779,3.3491,3.2796,3.2315,3.205,3.1828,3.1748,3.1537,3.1227,3.1493,3.2015,3.1672,3.1278,3.1517,3.1712,3.1394,3.1531,3.2086,3.2571,3.2821,4.8489,4.9891,4.9802,5.0247,5.0877,5.0326,5.0413,5.0861,5.1132,5.1313,5.1371,5.1393,5.1384,5.1386,5.1301,5.1238,5.1187,5.1132,5.1062,5.0712,5.0186,4.99,4.9083,4.7738,4.6664,4.625,4.5298,4.4227,4.3934,4.3716,4.3284,4.294,4.2932,4.2747,4.2692,4.2436,4.2056,4.1717,4.123,4.0672,4.0375,4.007,3.9825,3.959,3.9563,3.9537,3.9484,3.9405,3.9196,3.8963,3.9249,3.9116,3.8874,3.9282,3.9166,3.8907,3.8874,3.8331,3.7533,3.6786,3.6241,3.5354,3.4542,3.4011,3.3587,3.3018,3.2614,3.2404,3.2233,3.189,3.1553,3.2018,3.2242,3.2392,3.2467,3.2841,3.2976,3.2961,3.2991,3.3021,3.2871,3.2467,3.2652,3.2988,3.3466,3.3757,3.388,3.4031,3.3965,3.4317,3.4442,3.4419,3.4518,3.4518,3.4502,3.4336,3.4121,3.3541,3.3216,3.3056,3.2835,3.2552,3.2465,3.2295,3.2593,3.2841,3.2448,3.2107,3.1927,3.1871,3.1625,3.1704,3.2314,3.2616,3.2666,4.9197,5.0602,5.0522,5.091,5.1466,5.1033,5.0975,5.1162,5.1319,5.1384,5.1361,5.1348,5.132,5.1295,5.1216,5.1133,5.1125,5.0972,5.0894,5.0471,4.9574,4.9087,4.8232,4.7046,4.6021,4.5727,4.4968,4.3968,4.3543,4.347,4.3498,4.3382,4.2769,4.2629,4.2462,4.2129,4.1565,4.1116,4.0528,4.017,3.9935,3.9738,3.952,3.9458,3.9405,3.9395,3.9342,3.9315,3.9315,3.9315,3.9315,3.9315,3.9315,3.9315,3.9315,3.9299,3.893,3.8357,3.7544,3.6921,3.6241,3.534,3.4616,3.4069,3.3568,3.3229,3.2986,3.2726,3.2329,3.2227,3.2228,3.2766,3.2856,3.2991,3.3155,3.3499,3.3529,3.3484,3.3499,3.3559,3.3559,3.323,3.3006,3.3214,3.3545,3.3736,3.3937,3.4169,3.4422,3.4734,3.5015,3.4982,3.4916,3.4816,3.4783,3.475,3.4518,3.422,3.3962,3.3703,3.3617,3.3339,3.3354,3.3395,3.3532,3.3562,3.3301,3.3021,3.2686,3.234,3.202,3.2224,3.264,3.2701,3.2649,4.9899,5.0289,5.066,5.0721,5.0764,5.1457,5.163,5.1396,5.1384,5.1366,5.13,5.1297,5.1243,5.1131,5.1108,5.1047,5.0949,5.0739,5.0481,5.0043,4.9002,4.8315,4.7362,4.6233,4.5419,4.461,4.3989,4.356,4.3142,4.3383,4.386,4.4007,4.3187,4.2763,4.2352,4.1882,4.1207,4.0561,4.0087,3.9764,3.9547,3.9405,3.9352,3.9325,3.9342,3.9342,3.9315,3.9315,3.9315,3.9315,3.9315,3.9315,3.9315,3.9315,3.9315,3.9094,3.859,3.7946,3.7302,3.6719,3.6198,3.544,3.4829,3.4433,3.3993,3.353,3.3336,3.3291,3.3126,3.3246,3.341,3.3455,3.3514,3.3604,3.3679,3.3784,3.3799,3.3799,3.3799,3.3844,3.3873,3.3709,3.3651,3.3744,3.413,3.4332,3.4632,3.503,3.5184,3.5045,3.5247,3.5197,3.5114,3.4998,3.4965,3.4932,3.4833,3.4518,3.4293,3.4051,3.4039,3.4141,3.4153,3.4196,3.4322,3.4281,3.415,3.3761,3.3254,3.2927,3.27,3.2547,3.2903,3.2738,3.2817,4.9786,5.1326,5.1016,5.107,5.1335,5.1344,5.1322,5.126,5.1307,5.1302,5.1221,5.1174,5.1144,5.1089,5.1086,5.0935,5.0784,5.0509,4.9876,4.9162,4.8207,4.7589,4.6652,4.5536,4.4871,4.4472,4.3922,4.3231,4.2894,4.3182,4.3443,4.3436,4.3334,4.2842,4.2372,4.1937,4.107,4.0332,3.9862,3.9534,3.9369,3.9315,3.9315,3.9315,3.9315,3.9315,3.9315,3.9315,3.9315,3.9315,3.9315,3.9315,3.9315,3.9272,3.9175,3.8562,3.801,3.7383,3.6814,3.6523,3.6136,3.5607,3.5225,3.4558,3.4074,3.3757,3.3664,3.3769,3.3799,3.3858,3.3963,3.4038,3.4143,3.4247,3.4367,3.4532,3.4547,3.4547,3.4547,3.4547,3.4562,3.4412,3.434,3.4638,3.4982,3.513,3.5414,3.5853,3.6014,3.5894,3.5545,3.5495,3.5413,3.5313,3.5048,3.4949,3.4916,3.484,3.4674,3.4638,3.4825,3.4906,3.4936,3.4925,3.4952,3.5042,3.5109,3.4619,3.4015,3.3795,3.3567,3.3309,3.3093,3.3036,3.3219,4.9983,5.1273,5.1069,5.0949,5.0879,5.0745,5.0662,5.0712,5.1055,5.1216,5.1152,5.1133,5.107,5.0998,5.0932,5.0769,5.0577,4.9884,4.9303,4.8688,4.7311,4.6657,4.5787,4.4934,4.4376,4.4081,4.3702,4.3014,4.2761,4.2935,4.3221,4.3752,4.351,4.3002,4.2493,4.2001,4.1352,4.0658,4.009,3.964,3.9431,3.9332,3.9315,3.9315,3.9315,3.9315,3.9315,3.9315,3.9315,3.9315,3.9315,3.9148,3.8942,3.8706,3.8226,3.7589,3.7205,3.6662,3.6164,3.6053,3.5829,3.5619,3.5489,3.5117,3.4758,3.4518,3.4472,3.4487,3.4397,3.4382,3.4487,3.4607,3.4756,3.4891,3.516,3.5429,3.5444,3.5444,3.5429,3.5415,3.5325,3.516,3.5281,3.5584,3.5933,3.6198,3.6546,3.7005,3.7075,3.6894,3.6307,3.586,3.5777,3.5678,3.5396,3.5197,3.5297,3.5379,3.5396,3.5426,3.5582,3.5415,3.5221,3.5335,3.5515,3.5515,3.543,3.5261,3.4844,3.4573,3.4286,3.4066,3.3829,3.3736,3.4067,5.0249,5.0501,5.07,5.0249,4.9687,4.9808,4.9824,4.9815,5.0618,5.1078,5.1066,5.1087,5.0991,5.0859,5.0736,5.0452,4.998,4.926,4.8542,4.8323,4.6657,4.5716,4.5148,4.4442,4.3911,4.3479,4.316,4.2947,4.2786,4.3015,4.3558,4.4258,4.3741,4.3126,4.2512,4.2094,4.1538,4.1128,4.0636,4.0227,3.9613,3.9398,3.9315,3.9315,3.9315,3.9315,3.9315,3.9299,3.9272,3.9245,3.9121,3.8827,3.8311,3.7722,3.7071,3.6692,3.6477,3.6133,3.5797,3.5683,3.5619,3.5522,3.5489,3.5385,3.5175,3.5085,3.504,3.5026,3.4951,3.4951,3.504,3.507,3.5175,3.522,3.537,3.5489,3.5489,3.5489,3.5489,3.5489,3.5474,3.5387,3.5518,3.5796,3.6517,3.7035,3.7645,3.8095,3.8054,3.7845,3.7284,3.6539,3.6555,3.6456,3.5876,3.5744,3.5827,3.5909,3.586,3.5725,3.5542,3.5459,3.54,3.5503,3.5616,3.5616,3.5532,3.5397,3.5267,3.4996,3.4776,3.4726,3.4607,3.4523,3.4726,4.9524,4.9638,4.9048,4.8727,4.8748,4.8864,4.8912,4.8944,4.9723,5.0376,5.085,5.0886,5.0824,5.0585,5.0471,5.0059,4.9066,4.8473,4.767,4.684,4.5589,4.4953,4.4426,4.3894,4.3441,4.3232,4.3047,4.2898,4.2966,4.3271,4.344,4.3542,4.3457,4.33,4.2299,4.1972,4.1943,4.1662,4.1077,4.0729,4.0315,3.963,3.9315,3.9332,3.9322,3.9295,3.9251,3.9218,3.8942,3.8689,3.8562,3.821,3.7648,3.6981,3.66,3.6368,3.599,3.5733,3.5587,3.5489,3.5489,3.5489,3.5489,3.5489,3.5474,3.5489,3.5489,3.5489,3.5489,3.5489,3.5489,3.5489,3.5489,3.5489,3.5489,3.5489,3.5489,3.5489,3.5489,3.5489,3.5489,3.5587,3.5748,3.6242,3.6996,3.7748,3.8525,3.8966,3.8863,3.8682,3.8361,3.7781,3.7698,3.745,3.6704,3.6324,3.6423,3.6075,3.586,3.5675,3.5518,3.5783,3.5957,3.5661,3.5616,3.5836,3.5904,3.5616,3.547,3.5284,3.5334,3.5318,3.5436,3.5402,3.5537,4.8556,4.8353,4.7788,4.7856,4.8296,4.8143,4.8011,4.8205,4.9192,4.966,4.9738,4.9991,5.0131,4.9951,4.9827,4.919,4.8079,4.7473,4.668,4.572,4.4907,4.4345,4.3822,4.3442,4.3267,4.305,4.2571,4.2498,4.2824,4.2551,4.2406,4.2722,4.3149,4.3127,4.2158,4.2473,4.244,4.2373,4.1524,4.1143,4.1028,4.058,4.0044,3.9934,3.9512,3.9298,3.8766,3.8662,3.8254,3.7867,3.7618,3.7354,3.686,3.6352,3.6068,3.591,3.5701,3.5489,3.5489,3.5489,3.5489,3.5489,3.5489,3.5489,3.5489,3.5489,3.5489,3.5489,3.5489,3.5489,3.5489,3.5489,3.5489,3.5489,3.5489,3.5489,3.5489,3.5489,3.5489,3.5489,3.5489,3.5522,3.5701,3.6085,3.6753,3.7071,3.8039,3.8854,3.8952,3.9218,3.899,3.8785,3.851,3.7963,3.7069,3.6903,3.7069,3.6589,3.6042,3.5815,3.5826,3.63,3.6508,3.6314,3.6276,3.6518,3.6468,3.6214,3.5769,3.5532,3.5723,3.591,3.6028,3.6011,3.5943,4.769,4.7271,4.6981,4.7354,4.8102,4.7604,4.73,4.7469,4.865,4.8861,4.8316,4.8693,4.8884,4.8894,4.8627,4.789,4.7138,4.6336,4.5555,4.4917,4.4223,4.3706,4.341,4.3178,4.2976,4.2655,4.2231,4.1933,4.1869,4.1827,4.1959,4.1963,4.226,4.2638,4.2804,4.2754,4.234,4.2336,4.1922,4.164,4.1657,4.1612,4.0723,4.0099,3.9621,3.8922,3.8245,3.7793,3.7458,3.7041,3.6723,3.6461,3.6258,3.5878,3.5733,3.5587,3.5587,3.5489,3.5489,3.5489,3.5489,3.5489,3.5489,3.5489,3.5489,3.5489,3.5489,3.5489,3.5489,3.5489,3.5489,3.5489,3.5489,3.5489,3.5489,3.5489,3.5489,3.5489,3.5489,3.5489,3.5489,3.5489,3.5733,3.6085,3.6461,3.6723,3.7251,3.7908,3.8518,3.8996,3.9156,3.9017,3.8825,3.8179,3.7599,3.7466,3.7632,3.7292,3.6787,3.6338,3.6167,3.6688,3.7016,3.7057,3.7087,3.7229,3.7161,3.6958,3.6502,3.5988,3.6394,3.662,3.591,3.591,3.596,4.7517,4.7722,4.7139,4.7131,4.746,4.7345,4.7247,4.7211,4.7287,4.7565,4.7684,4.7037,4.7027,4.7743,4.758,4.6949,4.6008,4.5236,4.4623,4.3962,4.3481,4.305,4.2808,4.2732,4.2575,4.2236,4.1909,4.1688,4.1542,4.1801,4.1637,4.0989,4.2136,4.1872,4.0464,4.0878,4.1939,4.196,4.21,4.184,4.1489,4.1024,3.9884,3.9311,3.891,3.8235,3.7693,3.7488,3.7071,3.6569,3.6116,3.5829,3.5716,3.5619,3.5522,3.5489,3.5489,3.5489,3.5489,3.5489,3.5489,3.5489,3.5489,3.5489,3.5489,3.5489,3.5489,3.5489,3.5489,3.5489,3.5489,3.5489,3.5489,3.5489,3.5489,3.5489,3.5489,3.5489,3.5489,3.5489,3.5489,3.5489,3.5554,3.6022,3.66,3.6981,3.7618,3.825,3.8701,3.9023,3.9315,3.9199,3.9083,3.9149,3.8901,3.8179,3.8096,3.7822,3.7542,3.7103,3.6935,3.7168,3.7414,3.7658,3.7763,3.7872,3.777,3.7686,3.7263,3.6924,3.7324,3.7341,3.6485,3.6113,3.6434]}]]